[[{"header":{"parameterUnit":"m.s-1","parameterCategory":1,"la1":30.6,"la2":29.2853,"lo1":-89.7004,"lo2":-87.6739,"dy":0.0162,"dx":0.0183,"nx":112,"ny":82,"refTime":"2024-03-12T06:00:00:Z","depth":0,"parameterNumber":2,"parameterNumberName":"U-component_of_WINDS"},"data":[0.0,0.0,0.0,0.0,0.0,0.0,0.0,0.0,0.0,0.0,0.0,0.0,0.0,0.0,0.0,0.0,0.0,0.0,0.0,0.0,0.0,0.0,0.0,0.0,0.0,0.0,0.0,0.0,0.0,0.0,0.0,0.0,0.0,0.0,0.0,0.0,0.0,0.0,0.0,0.0,0.0,0.0,0.0,0.0,0.0,0.0,0.0,0.0,0.0,0.0,0.0,0.0,0.0,0.0,0.0,0.0,0.0,0.0,0.0,0.0,0.0,0.0,0.0,0.0,0.0,0.0,0.0,0.0,0.0,0.0,0.0,0.0,0.0,0.0,0.0,0.0,0.0,0.0,0.0,0.0,0.0,0.0,0.0,0.0,0.0,0.0,0.0,0.0,0.0,0.0,-4.6128,-4.6181,-4.6139,-4.6068,-4.6012,-4.5886,-4.5807,-4.5807,0.0,0.0,0.0,0.0,0.0,0.0,0.0,0.0,0.0,0.0,0.0,0.0,0.0,0.0,0.0,0.0,0.0,0.0,0.0,0.0,0.0,0.0,0.0,0.0,0.0,0.0,0.0,0.0,0.0,0.0,0.0,0.0,0.0,0.0,0.0,0.0,0.0,0.0,0.0,0.0,0.0,0.0,0.0,0.0,0.0,0.0,0.0,0.0,0.0,0.0,0.0,0.0,0.0,0.0,0.0,0.0,0.0,0.0,0.0,0.0,0.0,0.0,0.0,0.0,0.0,0.0,0.0,0.0,0.0,0.0,0.0,0.0,0.0,0.0,0.0,0.0,0.0,0.0,0.0,0.0,0.0,0.0,0.0,0.0,0.0,0.0,0.0,0.0,0.0,0.0,0.0,0.0,0.0,0.0,0.0,0.0,0.0,0.0,0.0,0.0,0.0,0.0,0.0,0.0,-4.6134,-4.6199,-4.6139,-4.6068,-4.6012,-4.5886,-4.5807,-4.5807,0.0,0.0,0.0,0.0,0.0,0.0,0.0,0.0,0.0,0.0,0.0,0.0,0.0,0.0,0.0,0.0,0.0,0.0,0.0,0.0,0.0,0.0,0.0,0.0,0.0,0.0,0.0,0.0,0.0,0.0,0.0,0.0,0.0,0.0,0.0,0.0,0.0,0.0,0.0,0.0,0.0,0.0,0.0,0.0,0.0,0.0,0.0,0.0,0.0,0.0,0.0,0.0,0.0,0.0,0.0,0.0,0.0,0.0,0.0,0.0,0.0,0.0,0.0,0.0,0.0,0.0,0.0,0.0,0.0,0.0,0.0,0.0,0.0,0.0,0.0,0.0,0.0,0.0,0.0,0.0,0.0,0.0,0.0,0.0,0.0,0.0,0.0,0.0,0.0,0.0,0.0,0.0,0.0,0.0,0.0,0.0,0.0,0.0,0.0,0.0,0.0,0.0,0.0,-4.6162,-4.6213,-4.6243,-4.6199,-4.6128,-4.6052,-4.5966,-4.5886,-4.5787,-4.5807,0.0,0.0,0.0,0.0,0.0,0.0,0.0,0.0,0.0,0.0,0.0,0.0,0.0,0.0,0.0,0.0,0.0,0.0,0.0,0.0,0.0,0.0,0.0,0.0,0.0,0.0,0.0,0.0,0.0,0.0,0.0,0.0,0.0,0.0,0.0,0.0,0.0,0.0,0.0,0.0,0.0,0.0,0.0,0.0,0.0,0.0,0.0,0.0,0.0,0.0,0.0,0.0,0.0,0.0,0.0,0.0,0.0,0.0,0.0,0.0,0.0,0.0,0.0,0.0,0.0,0.0,0.0,0.0,0.0,0.0,0.0,0.0,0.0,0.0,0.0,0.0,0.0,0.0,0.0,0.0,0.0,0.0,0.0,0.0,0.0,0.0,0.0,0.0,0.0,0.0,0.0,0.0,0.0,0.0,0.0,0.0,0.0,0.0,0.0,0.0,0.0,0.0,-4.6265,-4.6308,-4.6308,-4.624,-4.6171,-4.6128,-4.6054,-4.5964,-4.5841,-4.5827,0.0,0.0,0.0,0.0,0.0,0.0,0.0,0.0,0.0,0.0,0.0,0.0,0.0,0.0,0.0,0.0,0.0,0.0,0.0,0.0,0.0,0.0,0.0,0.0,0.0,0.0,0.0,0.0,0.0,0.0,0.0,0.0,0.0,0.0,0.0,0.0,0.0,0.0,0.0,0.0,0.0,0.0,0.0,0.0,0.0,0.0,0.0,0.0,0.0,0.0,0.0,0.0,0.0,0.0,0.0,0.0,0.0,0.0,0.0,0.0,0.0,0.0,0.0,0.0,0.0,0.0,0.0,0.0,0.0,0.0,0.0,0.0,0.0,0.0,0.0,0.0,0.0,0.0,0.0,0.0,0.0,0.0,0.0,0.0,0.0,0.0,0.0,0.0,0.0,0.0,0.0,0.0,0.0,0.0,0.0,0.0,0.0,0.0,0.0,0.0,0.0,0.0,-4.6265,-4.6308,-4.6308,-4.624,-4.6202,-4.6199,-4.6068,-4.5997,-4.5991,-4.588,0.0,0.0,0.0,0.0,0.0,0.0,0.0,0.0,0.0,0.0,0.0,0.0,0.0,0.0,0.0,0.0,0.0,0.0,0.0,0.0,0.0,0.0,0.0,0.0,0.0,0.0,0.0,0.0,0.0,0.0,0.0,0.0,0.0,0.0,0.0,0.0,0.0,0.0,0.0,0.0,0.0,0.0,0.0,0.0,0.0,0.0,0.0,0.0,0.0,0.0,0.0,0.0,0.0,0.0,0.0,0.0,0.0,0.0,0.0,0.0,0.0,0.0,0.0,0.0,0.0,0.0,0.0,0.0,0.0,0.0,0.0,0.0,0.0,0.0,0.0,0.0,0.0,0.0,0.0,0.0,0.0,0.0,0.0,0.0,0.0,0.0,0.0,0.0,0.0,0.0,0.0,0.0,0.0,0.0,0.0,0.0,0.0,0.0,0.0,0.0,0.0,0.0,-4.6265,-4.6308,-4.6308,-4.6288,-4.6242,-4.6204,-4.6153,-4.6087,-4.6007,0.0,0.0,0.0,0.0,0.0,0.0,0.0,0.0,0.0,0.0,0.0,0.0,0.0,0.0,0.0,0.0,0.0,0.0,0.0,0.0,0.0,0.0,0.0,0.0,0.0,0.0,0.0,0.0,0.0,0.0,0.0,0.0,0.0,0.0,0.0,0.0,0.0,0.0,0.0,0.0,0.0,0.0,0.0,0.0,0.0,0.0,0.0,0.0,0.0,0.0,0.0,0.0,0.0,0.0,0.0,0.0,0.0,0.0,0.0,0.0,0.0,0.0,0.0,0.0,0.0,0.0,0.0,0.0,0.0,0.0,0.0,0.0,0.0,0.0,0.0,0.0,0.0,0.0,0.0,0.0,0.0,0.0,0.0,0.0,0.0,0.0,0.0,0.0,0.0,0.0,0.0,0.0,0.0,0.0,0.0,0.0,0.0,0.0,0.0,0.0,0.0,0.0,-4.6237,-4.6267,-4.6308,-4.6308,-4.6308,-4.6288,-4.6239,-4.6209,-4.615,-4.6041,0.0,0.0,0.0,0.0,0.0,0.0,0.0,0.0,0.0,0.0,0.0,0.0,0.0,0.0,0.0,0.0,0.0,0.0,0.0,0.0,0.0,0.0,0.0,0.0,0.0,0.0,0.0,0.0,0.0,0.0,0.0,0.0,0.0,0.0,0.0,0.0,0.0,0.0,0.0,0.0,0.0,0.0,0.0,0.0,0.0,0.0,0.0,0.0,0.0,0.0,0.0,0.0,0.0,0.0,0.0,0.0,0.0,0.0,0.0,0.0,0.0,0.0,0.0,0.0,0.0,0.0,0.0,0.0,0.0,0.0,0.0,0.0,0.0,0.0,0.0,0.0,0.0,0.0,0.0,0.0,0.0,0.0,0.0,0.0,0.0,0.0,0.0,0.0,0.0,0.0,0.0,0.0,0.0,0.0,0.0,0.0,0.0,0.0,0.0,0.0,0.0,0.0,-4.6308,-4.6308,-4.6308,-4.6308,-4.6308,-4.6308,-4.6308,-4.624,-4.6167,0.0,0.0,0.0,0.0,0.0,0.0,0.0,0.0,0.0,0.0,0.0,0.0,0.0,0.0,0.0,0.0,0.0,0.0,0.0,0.0,0.0,0.0,0.0,0.0,0.0,0.0,0.0,0.0,0.0,0.0,0.0,0.0,0.0,0.0,0.0,0.0,0.0,0.0,0.0,0.0,0.0,0.0,0.0,0.0,0.0,0.0,0.0,0.0,0.0,0.0,0.0,0.0,0.0,0.0,0.0,0.0,0.0,0.0,0.0,0.0,0.0,0.0,0.0,0.0,0.0,0.0,0.0,0.0,0.0,0.0,0.0,0.0,0.0,0.0,0.0,0.0,0.0,0.0,0.0,0.0,0.0,0.0,0.0,0.0,0.0,0.0,0.0,0.0,0.0,0.0,0.0,0.0,0.0,0.0,0.0,0.0,0.0,0.0,0.0,0.0,0.0,0.0,0.0,-4.6308,-4.6308,-4.6308,-4.6308,-4.6308,-4.6308,-4.6308,-4.6288,-4.6241,-4.6167,0.0,0.0,0.0,0.0,0.0,0.0,0.0,0.0,0.0,0.0,0.0,0.0,0.0,0.0,0.0,0.0,0.0,0.0,0.0,0.0,0.0,0.0,0.0,0.0,0.0,0.0,0.0,0.0,0.0,0.0,0.0,0.0,0.0,0.0,0.0,0.0,0.0,0.0,0.0,0.0,0.0,0.0,0.0,0.0,0.0,0.0,0.0,0.0,0.0,0.0,0.0,0.0,0.0,0.0,0.0,0.0,0.0,0.0,0.0,0.0,0.0,0.0,0.0,0.0,0.0,0.0,0.0,0.0,0.0,0.0,0.0,0.0,0.0,0.0,0.0,0.0,0.0,0.0,0.0,0.0,0.0,0.0,0.0,0.0,0.0,0.0,0.0,0.0,0.0,0.0,0.0,0.0,0.0,0.0,0.0,0.0,0.0,0.0,0.0,0.0,0.0,0.0,-4.6308,-4.6308,-4.6308,-4.6308,-4.6308,-4.6308,-4.6308,-4.6308,-4.6267,-4.6206,0.0,0.0,0.0,0.0,0.0,0.0,0.0,0.0,0.0,0.0,0.0,0.0,0.0,0.0,0.0,0.0,0.0,0.0,0.0,0.0,0.0,0.0,0.0,0.0,0.0,0.0,0.0,0.0,0.0,0.0,0.0,0.0,0.0,0.0,0.0,0.0,0.0,0.0,0.0,0.0,0.0,0.0,0.0,0.0,0.0,0.0,0.0,0.0,0.0,0.0,0.0,0.0,0.0,0.0,0.0,0.0,0.0,0.0,0.0,0.0,0.0,0.0,0.0,0.0,0.0,0.0,0.0,0.0,0.0,0.0,0.0,0.0,0.0,0.0,0.0,0.0,0.0,0.0,0.0,0.0,0.0,0.0,0.0,0.0,0.0,0.0,0.0,0.0,0.0,0.0,0.0,0.0,0.0,0.0,0.0,0.0,0.0,0.0,0.0,0.0,0.0,0.0,-4.6308,-4.623,-4.6172,-4.6172,-4.6113,-4.6055,-4.6055,-4.6055,-4.6033,-4.5975,0.0,0.0,0.0,0.0,0.0,0.0,0.0,0.0,0.0,0.0,0.0,0.0,0.0,0.0,0.0,0.0,0.0,0.0,0.0,0.0,0.0,0.0,0.0,0.0,0.0,0.0,0.0,0.0,0.0,0.0,0.0,0.0,0.0,0.0,0.0,0.0,0.0,0.0,0.0,0.0,0.0,0.0,0.0,0.0,0.0,0.0,0.0,0.0,0.0,0.0,0.0,0.0,0.0,0.0,0.0,0.0,0.0,0.0,0.0,0.0,-4.6024,-4.6109,0.0,0.0,0.0,0.0,0.0,0.0,0.0,0.0,0.0,0.0,0.0,0.0,0.0,0.0,0.0,0.0,0.0,0.0,0.0,0.0,0.0,0.0,0.0,0.0,0.0,0.0,0.0,0.0,0.0,0.0,0.0,0.0,0.0,0.0,0.0,0.0,0.0,0.0,0.0,0.0,-4.6308,-4.5703,-4.5273,-4.5273,-4.4668,-4.4258,-4.4258,-4.4258,-4.4258,-4.4237,-4.4237,0.0,0.0,0.0,0.0,0.0,0.0,0.0,0.0,0.0,0.0,0.0,0.0,0.0,0.0,0.0,0.0,0.0,0.0,0.0,0.0,0.0,0.0,0.0,0.0,0.0,0.0,0.0,0.0,0.0,0.0,0.0,0.0,0.0,0.0,0.0,0.0,0.0,0.0,0.0,0.0,0.0,0.0,0.0,0.0,0.0,0.0,0.0,0.0,0.0,0.0,0.0,0.0,0.0,0.0,0.0,0.0,0.0,0.0,0.0,-4.5914,-4.5998,0.0,0.0,0.0,0.0,0.0,0.0,0.0,0.0,0.0,0.0,0.0,0.0,0.0,0.0,0.0,0.0,0.0,0.0,0.0,0.0,0.0,0.0,0.0,0.0,0.0,0.0,0.0,0.0,0.0,0.0,0.0,0.0,0.0,0.0,0.0,0.0,0.0,0.0,0.0,0.0,-4.5058,-4.4668,-4.4375,-4.4375,-4.3965,-4.3691,-4.3691,-4.3691,-4.3691,-4.3691,-4.3691,0.0,0.0,0.0,0.0,0.0,0.0,0.0,0.0,0.0,0.0,0.0,0.0,0.0,0.0,0.0,0.0,0.0,0.0,0.0,0.0,0.0,0.0,0.0,0.0,0.0,0.0,0.0,0.0,0.0,0.0,0.0,0.0,0.0,0.0,0.0,0.0,0.0,0.0,0.0,0.0,0.0,0.0,0.0,0.0,0.0,0.0,0.0,0.0,0.0,0.0,0.0,0.0,0.0,-4.5807,-4.5807,-4.5807,-4.5807,-4.5807,-4.5807,-4.5807,-4.5854,-4.5969,-4.5991,0.0,0.0,0.0,0.0,0.0,0.0,0.0,0.0,0.0,0.0,0.0,0.0,0.0,0.0,0.0,0.0,0.0,0.0,0.0,0.0,0.0,0.0,-4.6173,-4.6173,-4.6173,-4.6202,-4.6244,0.0,0.0,0.0,0.0,0.0,0.0,0.0,0.0,0.0,0.0,0.0,-4.3691,-4.3574,-4.3476,-4.3476,-4.3359,-4.3262,-4.3262,-4.3262,-4.3262,-4.3262,-4.3262,-4.3262,0.0,0.0,0.0,0.0,0.0,0.0,0.0,0.0,0.0,0.0,0.0,0.0,0.0,0.0,0.0,0.0,0.0,0.0,0.0,0.0,0.0,0.0,0.0,0.0,0.0,0.0,0.0,0.0,0.0,0.0,0.0,0.0,-4.5807,-4.5807,0.0,0.0,0.0,0.0,0.0,0.0,0.0,0.0,0.0,0.0,0.0,0.0,0.0,-4.5807,-4.5807,-4.5807,-4.5807,-4.5807,-4.5807,-4.5807,-4.5807,-4.5807,-4.5807,-4.5807,-4.5807,0.0,-4.5841,-4.5958,0.0,0.0,0.0,0.0,0.0,0.0,0.0,0.0,0.0,0.0,0.0,0.0,0.0,0.0,0.0,0.0,0.0,0.0,0.0,0.0,0.0,0.0,-4.6115,-4.6115,-4.6115,-4.6115,-4.6125,-4.6212,-4.6308,-4.6308,-4.6308,-4.6055,0.0,0.0,0.0,0.0,0.0,0.0,-4.3691,-4.3047,-4.2578,-4.2578,-4.1953,-4.1523,-4.1523,-4.1523,-4.1523,-4.1523,-4.1523,-4.1523,-4.1523,-4.1523,0.0,0.0,0.0,0.0,0.0,0.0,0.0,0.0,0.0,0.0,0.0,0.0,0.0,0.0,0.0,0.0,0.0,0.0,0.0,0.0,0.0,0.0,0.0,0.0,0.0,0.0,0.0,0.0,0.0,-4.5807,-4.5807,-4.5807,-4.5807,-4.5807,0.0,0.0,0.0,0.0,0.0,0.0,0.0,0.0,0.0,-4.5807,-4.5807,-4.5807,-4.5807,-4.5807,-4.5807,-4.5807,-4.5807,-4.5807,-4.5807,-4.5807,-4.5807,-4.5807,-4.5807,-4.5807,-4.5787,-4.5854,-4.5899,-4.5886,0.0,0.0,0.0,0.0,-4.5922,-4.5922,-4.5922,-4.5922,-4.5922,-4.5922,0.0,0.0,0.0,0.0,0.0,0.0,0.0,-4.6091,-4.6044,-4.605,-4.605,-4.605,-4.605,-4.6044,-4.6091,-4.5757,-4.5618,-4.6141,-4.5877,-4.5449,-4.5078,-4.4199,0.0,0.0,0.0,-4.2285,-4.2285,-4.1953,-4.1738,-4.1738,-4.1406,-4.1191,-4.1191,-4.1191,-4.1191,-4.1191,-4.1191,-4.1191,-4.1191,-4.1191,-4.1191,0.0,0.0,0.0,0.0,0.0,0.0,0.0,0.0,0.0,0.0,0.0,0.0,0.0,0.0,0.0,0.0,0.0,0.0,0.0,0.0,0.0,0.0,0.0,0.0,0.0,0.0,0.0,0.0,-4.5807,-4.5807,-4.5807,-4.5807,-4.5807,0.0,0.0,0.0,0.0,0.0,0.0,-4.5807,-4.5807,-4.5807,-4.5807,-4.5807,-4.5807,-4.5807,-4.5807,-4.5807,-4.5807,-4.5807,-4.5807,-4.5807,-4.5807,-4.5807,-4.5807,-4.5807,-4.5807,-4.5807,-4.5807,-4.5807,-4.5807,-4.5807,-4.5807,-4.5807,-4.5807,-4.5807,-4.5807,-4.5807,-4.5807,-4.5807,-4.5807,-4.588,-4.5958,-4.5958,0.0,0.0,0.0,0.0,-4.6017,-4.5961,-4.5958,-4.5958,-4.5958,-4.5778,-4.567,-4.571,-4.5044,-4.4722,-4.5685,-4.5205,-4.4589,-4.4375,-4.3262,0.0,-4.2129,-4.1582,-4.1191,-4.1191,-4.1191,-4.1191,-4.1191,-4.1191,-4.1191,-4.1191,-4.1191,-4.1191,-4.1191,-4.1191,-4.1191,-4.1191,-4.1191,-4.1191,-4.1191,0.0,0.0,0.0,0.0,0.0,0.0,0.0,0.0,0.0,0.0,0.0,0.0,0.0,0.0,0.0,0.0,0.0,0.0,0.0,0.0,0.0,0.0,0.0,0.0,0.0,0.0,0.0,0.0,0.0,-4.5807,-4.5807,0.0,0.0,0.0,0.0,-4.5807,-4.5807,-4.5807,-4.5807,-4.5807,-4.5807,-4.5807,-4.5807,-4.5807,-4.5807,-4.5807,-4.5807,-4.5807,-4.5807,-4.5807,-4.5807,-4.5807,-4.5807,-4.5807,-4.5807,-4.5807,-4.5807,-4.5807,-4.5807,-4.5807,-4.5807,-4.5807,-4.5807,-4.5807,-4.5807,-4.5807,-4.5807,-4.5807,-4.5807,-4.5807,-4.5787,-4.5814,-4.5814,-4.5801,0.0,0.0,-4.5827,-4.5808,-4.5821,-4.5814,-4.5814,-4.5814,-4.5233,-4.4665,-4.4672,-4.4042,-4.3774,-4.4762,-4.4254,-4.3425,-4.2656,0.0,-4.2148,-4.1387,-4.123,-4.1191,-4.1191,-4.1191,-4.1191,-4.1191,-4.1191,-4.1191,-4.1191,-4.1191,-4.1191,-4.1191,-4.1191,-4.1191,-4.1191,-4.1191,-4.1191,-4.1191,-4.1191,0.0,0.0,0.0,0.0,0.0,0.0,0.0,0.0,0.0,0.0,0.0,0.0,0.0,0.0,0.0,0.0,0.0,0.0,0.0,0.0,0.0,0.0,0.0,0.0,0.0,0.0,0.0,0.0,-4.5807,-4.5807,0.0,-4.5807,-4.5807,-4.5807,-4.5807,-4.5807,-4.5807,-4.5807,-4.5807,-4.5807,-4.5807,-4.5807,-4.5807,-4.5807,-4.5807,-4.5807,-4.5807,-4.5807,-4.5807,-4.5807,-4.5807,-4.5807,-4.5807,-4.5807,-4.5807,-4.5807,-4.5807,-4.5807,-4.5807,-4.5807,-4.5807,-4.5807,-4.5807,-4.5807,-4.5807,-4.5807,-4.5807,-4.5807,-4.5807,-4.5807,-4.5807,-4.5807,-4.5807,-4.5807,-4.5807,-4.5807,-4.5807,-4.5807,-4.5807,-4.5671,-4.5142,-4.4813,-4.4439,-4.3885,-4.3133,-4.2674,-4.3075,-4.2919,-4.2627,-4.2389,-4.1904,-4.1479,-4.123,-4.1191,-4.1191,-4.1191,-4.1191,-4.1191,-4.1191,-4.1191,-4.1191,-4.1191,-4.1191,-4.1191,-4.1191,-4.1191,-4.1191,-4.1191,-4.1191,-4.1191,-4.1191,-4.1191,-4.1191,0.0,0.0,0.0,0.0,0.0,0.0,0.0,0.0,0.0,0.0,0.0,0.0,0.0,0.0,0.0,0.0,0.0,0.0,0.0,0.0,0.0,0.0,0.0,0.0,0.0,-4.5807,-4.5807,-4.5807,-4.5807,-4.5807,-4.5807,-4.5807,-4.5807,-4.5807,-4.5807,-4.5807,-4.5807,-4.5807,-4.5807,-4.5807,-4.5807,-4.5807,-4.5807,-4.5807,-4.5807,-4.5807,-4.5807,-4.5807,-4.5807,-4.5807,-4.5807,-4.5807,-4.5807,-4.5807,-4.5807,-4.5807,-4.5807,-4.5807,-4.5807,-4.5807,-4.5807,-4.5807,-4.5807,-4.5807,-4.5807,-4.5807,-4.5807,-4.5807,-4.5807,-4.5807,-4.5807,-4.5807,-4.5807,-4.5807,-4.5807,-4.5749,-4.5471,-4.5394,-4.5181,-4.4369,-4.3943,-4.3556,-4.2995,-4.2232,-4.1679,-4.1758,-4.1796,-4.1842,-4.1919,-4.1494,-4.1146,-4.1191,-4.1191,-4.1191,-4.1191,-4.1191,-4.1191,-4.1191,-4.1191,-4.1191,-4.1191,-4.0937,-4.0898,-4.1172,-4.0918,-4.0898,-4.1191,-4.0918,-4.0762,-4.0762,-4.0762,-4.0918,-4.1191,0.0,0.0,0.0,0.0,0.0,0.0,0.0,0.0,0.0,0.0,0.0,0.0,0.0,0.0,0.0,0.0,0.0,0.0,0.0,0.0,0.0,0.0,0.0,-4.5807,-4.5807,-4.5807,-4.5807,-4.5807,-4.5807,-4.5807,-4.5807,-4.5807,-4.5807,-4.5807,-4.5807,-4.5807,-4.5807,-4.5807,-4.5807,-4.5807,-4.5807,-4.5807,-4.5807,-4.5807,-4.5807,-4.5807,-4.5807,-4.5807,-4.5807,-4.5807,-4.5807,-4.5807,-4.5807,-4.5807,-4.5807,-4.5807,-4.5807,-4.5807,-4.5807,-4.5807,-4.5807,-4.5807,-4.5807,-4.5807,-4.5807,-4.5807,-4.5807,-4.5807,-4.5807,-4.5807,-4.5807,-4.5807,-4.5807,-4.5787,-4.5568,-4.4794,-4.4574,-4.4342,-4.3479,-4.2609,-4.199,-4.197,-4.1358,-4.082,-4.0888,-4.1003,-4.1117,-4.1191,-4.1191,-4.1191,-4.1191,-4.1191,0.0,-4.1191,-4.1191,-4.1191,-4.1191,-4.1172,-4.1172,-4.1191,-4.0391,-4.0254,-4.1113,-4.0371,-4.0273,-4.1094,-4.0312,-3.9863,-3.9863,-3.9863,-4.0273,-4.1113,0.0,0.0,0.0,0.0,0.0,0.0,0.0,0.0,0.0,0.0,0.0,0.0,0.0,0.0,0.0,0.0,0.0,0.0,0.0,0.0,0.0,-4.5807,-4.5807,-4.5807,-4.5807,-4.5807,-4.5807,-4.5807,-4.5807,-4.5807,-4.5807,-4.5807,-4.5807,-4.5807,-4.5807,-4.5807,-4.5807,-4.5807,-4.5807,-4.5807,-4.5807,-4.5807,-4.5807,-4.5807,-4.5807,-4.5807,-4.5807,-4.5807,-4.5807,-4.5807,-4.5807,-4.5807,-4.5807,-4.5807,-4.5807,-4.5807,-4.5807,-4.5807,-4.5807,-4.5807,-4.5807,-4.5807,-4.5807,-4.5807,-4.5807,-4.5807,-4.5807,-4.5807,-4.5807,-4.5807,-4.5807,-4.5807,-4.5807,-4.5374,-4.4891,-4.4652,-4.413,-4.344,-4.257,-4.2164,-4.1835,-4.1255,-4.0984,-4.0873,-4.0903,-4.1003,-4.1112,-4.1119,-4.112,-4.1145,-4.1191,-4.1191,-4.1191,-4.1191,-4.1191,-4.1191,-4.1191,-4.0625,-4.0508,-4.1152,-4.0391,-4.0,-4.0234,-4.0039,-3.9726,-3.9336,-3.9082,-3.8965,-3.8965,-3.8965,-3.9082,0.0,0.0,0.0,0.0,0.0,0.0,0.0,0.0,0.0,0.0,0.0,0.0,0.0,0.0,0.0,0.0,0.0,0.0,0.0,0.0,0.0,0.0,-4.5807,-4.5807,-4.5807,-4.5807,-4.5807,-4.5807,-4.5807,-4.5807,-4.5807,-4.5807,-4.5807,-4.5807,-4.5807,-4.5807,-4.5807,-4.5807,-4.5807,-4.5807,-4.5807,-4.5807,-4.5807,-4.5807,-4.5807,-4.5807,-4.5807,-4.5807,-4.5807,-4.5807,-4.5807,-4.5807,-4.5807,-4.5807,-4.5807,-4.5807,-4.5807,-4.5807,0.0,0.0,0.0,0.0,-4.5807,-4.5807,-4.5807,-4.5807,-4.5807,-4.5807,-4.5807,-4.5807,-4.5807,-4.5548,-4.5297,-4.5297,-4.4697,-4.3982,-4.3614,-4.315,-4.2531,-4.1699,-4.1506,-4.1371,-4.0893,-4.0831,-4.0872,-4.0898,-4.0997,0.0,-4.1106,-4.1119,-4.1167,-4.1191,-4.1191,-4.1191,-4.1191,-4.1191,-4.1191,-4.1191,-4.043,-4.0117,-4.0605,-3.9512,0.0,0.0,0.0,-3.8574,-3.8086,-3.8066,0.0,0.0,0.0,-3.8242,-3.8594,-3.8594,0.0,0.0,-3.8945,-3.8809,0.0,0.0,0.0,0.0,0.0,0.0,0.0,0.0,0.0,0.0,0.0,0.0,0.0,0.0,0.0,0.0,-4.5807,-4.5807,-4.5807,-4.5807,-4.5807,-4.5807,-4.5807,-4.5807,-4.5807,-4.5807,-4.5807,-4.5807,-4.5807,-4.5807,-4.5807,-4.5807,0.0,0.0,0.0,-4.5807,-4.5807,-4.5807,-4.5807,-4.5807,-4.5807,-4.5807,-4.5807,-4.5807,-4.5807,-4.5807,-4.5807,-4.5807,-4.5807,-4.5807,-4.5807,-4.5807,-4.5807,-4.5807,-4.5807,-4.5807,-4.5807,-4.5807,-4.5807,0.0,0.0,-4.5807,-4.5807,-4.5787,-4.5691,-4.5162,-4.4574,-4.4478,-4.3827,-4.2976,-4.2202,-4.1932,-4.168,-4.0971,-4.0797,-4.0797,-4.0797,-4.0797,-4.0814,-4.0888,-4.0941,-4.1011,-4.1083,-4.1167,-4.1191,-4.1191,-4.1191,-4.1191,-4.1191,-4.1113,-4.1055,-4.1055,-4.0195,0.0,-3.9746,-3.8242,-3.7637,-3.8398,-3.7637,-3.7148,-3.7148,-3.7148,-3.7148,-3.7148,-3.7148,-3.7539,-3.8301,-3.8301,-3.791,-3.7168,-3.8047,-3.8398,0.0,0.0,0.0,0.0,0.0,0.0,0.0,0.0,0.0,0.0,0.0,0.0,0.0,0.0,0.0,-4.5807,-4.5807,-4.5807,-4.5807,-4.5807,-4.5807,-4.5807,-4.5807,-4.5807,-4.5807,-4.5807,-4.5807,-4.5807,-4.5807,-4.5807,-4.5807,-4.5807,-4.5807,-4.5807,-4.5807,-4.5807,-4.5807,-4.5807,-4.5807,-4.5807,-4.5807,0.0,-4.5807,-4.5807,-4.5807,-4.5807,-4.5807,-4.5807,-4.5807,-4.5807,-4.5807,-4.5807,-4.5807,-4.5807,-4.5807,-4.5807,-4.5807,-4.5807,-4.5807,-4.5807,-4.5807,-4.5807,-4.5807,-4.5691,-4.5026,-4.471,0.0,-4.375,-4.2918,-4.2202,-4.2048,-4.1525,-4.099,-4.0835,-4.0797,-4.0797,-4.0797,-4.0797,-4.0814,-4.0888,-4.0941,-4.1011,-4.1083,-4.1167,-4.1191,-4.1191,-4.1191,-4.1191,-4.1191,-4.0586,-4.0156,-4.0156,-3.873,-3.8086,-3.8789,-3.7891,-3.7363,-3.7539,-3.6738,-3.625,-3.625,-3.625,-3.625,-3.625,-3.625,-3.6328,-3.6504,-3.6504,-3.6426,-3.6269,-3.7148,-3.7168,0.0,0.0,0.0,0.0,0.0,0.0,0.0,0.0,0.0,0.0,0.0,-4.5807,-4.5807,0.0,-4.5807,-4.5807,-4.5807,-4.5807,-4.5807,-4.5807,-4.5807,-4.5807,-4.5807,-4.5807,-4.5807,-4.5807,-4.5807,-4.5807,-4.5807,-4.5807,-4.5807,-4.5807,-4.5807,-4.5807,-4.5807,-4.5807,-4.5807,-4.5807,-4.5807,-4.5807,-4.5807,-4.5807,-4.5807,-4.5807,-4.5807,-4.5807,-4.5807,-4.5807,-4.5807,-4.5807,-4.5807,-4.5807,-4.5807,-4.5807,-4.5807,-4.5807,-4.5807,-4.5807,-4.5807,-4.5807,-4.5807,-4.5807,-4.5529,-4.5123,-4.471,-4.4001,-4.3208,-4.2763,-4.2048,-4.139,-4.139,-4.1106,-4.0797,-4.0797,-4.0797,-4.0797,-4.0797,-4.0797,-4.0814,-4.0888,-4.0941,-4.1011,-4.1083,-4.1167,-4.1191,-4.1191,-4.1191,-4.1035,-4.0605,-4.0176,-3.9726,-3.9297,-3.8086,-3.748,-3.791,-3.7148,-3.6641,-3.6641,-3.623,-3.5996,-3.5996,-3.5996,-3.5996,-3.5996,-3.5996,-3.5996,-3.5996,-3.5996,-3.5996,-3.6016,-3.6445,-3.6426,0.0,0.0,0.0,0.0,0.0,0.0,0.0,-4.598,-4.5941,-4.5827,-4.5807,-4.5807,-4.5807,-4.5807,-4.5807,-4.5807,-4.5807,-4.5807,-4.5807,-4.5807,-4.5807,-4.5807,-4.5807,-4.5807,-4.5807,-4.5807,-4.5807,-4.5807,-4.5807,-4.5807,-4.5807,-4.5807,-4.5807,-4.5807,-4.5807,-4.5807,-4.5807,-4.5807,-4.5807,-4.5807,-4.5807,-4.5807,-4.5807,-4.5807,-4.5807,-4.5807,-4.5807,-4.5807,-4.5807,-4.5807,-4.5807,-4.5807,-4.5807,-4.5807,-4.5807,-4.5807,-4.5807,-4.5807,-4.5807,-4.5807,-4.5807,-4.5807,-4.5355,-4.4775,-4.4439,-4.3363,-4.2183,-4.1854,-4.1293,-4.0797,-4.0797,-4.0797,-4.0797,-4.0797,-4.0797,-4.0797,-4.0797,-4.0815,-4.0848,-4.0917,-4.0963,-4.105,-4.1112,-4.1169,-4.1191,-4.1191,-4.1191,-4.0898,-4.0019,-3.9746,-3.9316,-3.8437,-3.7578,-3.7051,-3.7051,-3.6406,-3.5996,-3.5996,-3.5996,-3.5996,-3.5996,-3.5996,-3.5996,-3.5996,-3.5996,-3.5996,-3.5996,-3.5996,-3.5996,-3.5996,-3.5996,-3.5996,-4.6308,-4.6264,-4.6207,-4.6204,-4.6105,-4.6017,0.0,-4.5917,-4.5827,-4.5807,-4.5807,-4.5807,-4.5807,-4.5807,-4.5807,-4.5807,-4.5807,-4.5807,-4.5807,-4.5807,-4.5807,-4.5807,-4.5807,-4.5807,-4.5807,-4.5807,-4.5807,-4.5807,-4.5807,-4.5807,-4.5807,-4.5807,-4.5807,-4.5807,-4.5807,-4.5807,-4.5807,-4.5807,-4.5807,-4.5807,-4.5807,-4.5807,-4.5807,-4.5807,-4.5807,-4.5807,-4.5807,-4.5807,-4.5807,-4.5807,-4.5807,-4.5807,-4.5807,-4.5807,-4.5807,-4.5807,-4.5807,-4.5807,-4.5807,-4.5807,-4.5807,-4.5807,-4.5749,-4.5394,-4.3904,-4.3305,-4.2841,-4.1351,-4.0874,-4.0797,-4.0797,-4.0797,-4.0797,-4.0797,-4.0797,-4.0797,-4.0797,-4.084,-4.0902,-4.0986,-4.1033,-4.1114,-4.1171,-4.1191,-4.1191,-4.1191,-4.1191,-4.0898,-4.0019,-3.9219,-3.8418,-3.7539,-3.668,-3.6152,-3.6152,-3.6055,-3.5996,-3.5996,-3.5996,-3.5996,-3.5996,-3.5996,-3.5996,-3.5996,-3.5996,-3.5996,-3.5996,-3.5996,-3.5996,-3.5996,-3.5996,-3.5996,-4.6308,-4.6288,-4.6265,-4.6265,-4.621,-4.6153,-4.6072,-4.6017,-4.5933,-4.5822,-4.5807,-4.5807,-4.5807,-4.5807,-4.5807,-4.5807,-4.5807,-4.5807,-4.5807,-4.5807,-4.5807,-4.5807,-4.5807,-4.5807,-4.5807,-4.5807,-4.5807,-4.5807,-4.5807,-4.5807,-4.5807,-4.5807,-4.5807,-4.5807,-4.5807,-4.5807,-4.5807,-4.5807,-4.5807,-4.5807,-4.5807,-4.5807,-4.5807,-4.5807,-4.5807,-4.5807,-4.5807,-4.5807,-4.5807,-4.5807,-4.5807,-4.5807,-4.5807,-4.5807,-4.5807,-4.5807,-4.5807,-4.5807,-4.5807,-4.5807,-4.5807,-4.5807,-4.5471,-4.4968,-4.4272,-4.3343,-4.2396,-4.1699,-4.1164,-4.0797,-4.0797,-4.0797,-4.0797,-4.0797,-4.0797,-4.0797,-4.0797,-4.082,-4.0868,-4.099,-4.1014,-4.1074,-4.1171,-4.1191,-4.1035,-4.0527,-4.0449,-4.0137,-3.9258,-3.8379,-3.7519,-3.6641,-3.6211,-3.5996,-3.5996,-3.5996,-3.5996,-3.5996,-3.5996,-3.5996,-3.5996,-3.5996,-3.5996,-3.5996,-3.5996,-3.5996,-3.5996,-3.5996,-3.5996,-3.5996,-3.5996,-3.5996,-4.6308,-4.6308,-4.6308,-4.6308,-4.6289,-4.6242,-4.6147,-4.6098,-4.6031,-4.5886,-4.5834,-4.5807,-4.5807,-4.5807,-4.5807,-4.5807,-4.5807,-4.5807,-4.5807,-4.5807,-4.5807,-4.5807,-4.5807,-4.5807,-4.5807,-4.5807,-4.5807,-4.5807,-4.5807,-4.5807,-4.5807,-4.5807,-4.5807,-4.5807,-4.5807,-4.5807,-4.5807,-4.5807,-4.5807,-4.5807,-4.5807,-4.5807,-4.5807,-4.5807,-4.5807,-4.5807,-4.5807,-4.5807,-4.5807,-4.5807,-4.5807,-4.5807,-4.5807,-4.5807,-4.5807,-4.5807,-4.5807,-4.5807,-4.5807,-4.5807,-4.5807,-4.5807,-4.5413,-4.4891,-4.4671,-4.3556,-4.2318,-4.2067,-4.1409,-4.0797,-4.0797,-4.0797,-4.0797,-4.0797,-4.0797,-4.0797,-4.0797,-4.0831,-4.0883,-4.097,-4.1039,-4.1099,-4.1171,-4.0996,-4.0625,-3.998,-3.9492,-3.8945,-3.832,-3.748,-3.6699,-3.6074,-3.5996,-3.5996,-3.5996,-3.5996,-3.5996,-3.5996,-3.5996,-3.5996,-3.5996,-3.5996,-3.5996,-3.5996,-3.5996,-3.5996,-3.5996,-3.5996,-3.5996,-3.5996,-3.5996,-3.5996,-4.6308,-4.6308,-4.6308,-4.6308,-4.6244,-4.6204,-4.6202,-4.6095,-4.6002,-4.5997,-4.588,-4.5807,-4.5807,-4.5807,-4.5807,-4.5807,-4.5807,-4.5807,-4.5807,-4.5807,-4.5807,-4.5807,-4.5807,-4.5807,-4.5807,-4.5807,-4.5807,-4.5807,-4.5807,-4.5807,-4.5807,-4.5807,-4.5807,-4.5807,-4.5807,-4.5807,-4.5807,-4.5807,-4.5807,-4.5807,-4.5807,-4.5807,-4.5807,-4.5807,-4.5807,-4.5807,-4.5807,-4.5807,-4.5807,-4.5807,-4.5807,-4.5807,-4.5807,-4.5807,-4.5807,-4.5807,-4.5807,-4.5807,-4.5807,-4.5807,-4.5807,-4.5807,-4.5787,-4.5633,-4.4833,-4.3982,-4.3073,-4.2241,-4.1409,-4.0797,-4.0797,-4.0797,-4.0797,-4.0797,-4.0797,-4.0797,-4.0797,-4.0893,-4.1007,-4.099,-4.1109,-4.1191,-4.1191,-4.0508,-3.9922,-3.9902,-3.8457,-3.7363,-3.7344,-3.6582,-3.6035,-3.5996,-3.5996,-3.5996,-3.5996,-3.5996,-3.5996,-3.5996,-3.5996,-3.5996,-3.5996,-3.5996,-3.5996,-3.5996,-3.5996,-3.5996,-3.5996,-3.5996,-3.5996,-3.5996,-3.5996,-3.5996,-4.6308,-4.6308,-4.6308,-4.6308,-4.6288,-4.6245,-4.6207,-4.616,-4.6109,-4.6013,-4.5969,-4.5917,-4.5821,-4.5807,-4.5807,-4.5807,-4.5807,-4.5807,-4.5807,-4.5807,-4.5807,-4.5807,-4.5807,-4.5807,-4.5807,-4.5807,-4.5807,-4.5807,-4.5807,-4.5807,-4.5807,-4.5807,-4.5807,-4.5807,-4.5807,-4.5807,-4.5807,-4.5807,-4.5807,-4.5807,-4.5807,-4.5807,-4.5807,-4.5807,-4.5807,-4.5807,-4.5807,-4.5807,-4.5807,-4.5807,-4.5807,-4.5807,-4.5807,-4.5807,-4.5807,-4.5807,-4.5807,-4.5807,-4.5807,-4.5807,-4.5807,-4.5807,-4.5807,-4.5749,-4.5471,-4.4813,-4.3982,-4.3111,-4.2241,-4.1467,-4.0951,-4.0797,-4.0797,-4.0797,-4.0797,-4.0821,-4.0856,-4.0893,-4.0968,-4.1057,-4.1068,-4.1078,-4.1139,-4.0419,-3.9466,-3.834,-3.7676,-3.709,-3.6504,-3.6172,-3.5996,-3.5996,-3.5996,-3.5996,-3.5996,-3.5996,-3.5996,-3.5996,-3.5996,-3.5996,-3.5996,-3.5996,-3.5996,-3.5996,-3.5996,-3.5996,-3.5996,-3.5996,-3.5996,-3.5996,-3.5996,-3.5996,-4.6308,-4.6308,-4.6308,-4.6308,-4.6308,-4.6289,-4.6242,-4.6212,-4.6189,-4.6087,-4.6032,-4.5975,-4.5899,-4.5822,-4.5807,-4.5807,-4.5807,-4.5807,-4.5807,-4.5807,-4.5807,-4.5807,-4.5807,-4.5807,-4.5807,-4.5807,-4.5807,-4.5807,-4.5807,-4.5807,-4.5807,-4.5807,-4.5807,-4.5807,-4.5807,-4.5807,-4.5807,-4.5807,-4.5807,-4.5807,-4.5807,-4.5807,-4.5807,-4.5807,-4.5807,-4.5807,-4.5807,-4.5807,-4.5807,-4.5807,-4.5807,-4.5807,-4.5807,-4.5807,-4.5807,-4.5807,-4.5807,-4.5807,-4.5807,-4.5807,-4.5807,-4.5807,-4.5807,-4.5807,-4.5807,-4.5239,-4.4478,-4.3924,-4.2918,-4.1874,-4.1351,-4.1029,-4.0797,-4.0797,-4.0797,-4.0815,-4.0856,-4.0893,-4.0941,-4.1011,-4.1025,-4.1057,-4.1085,-4.0395,-3.9252,-3.7558,-3.7305,-3.6992,-3.6113,-3.5996,-3.5996,-3.5996,-3.5996,-3.5996,-3.5996,-3.5996,-3.5996,-3.5996,-3.5996,-3.5996,-3.5996,-3.5996,-3.5996,-3.5996,-3.5996,-3.5996,-3.5996,-3.5996,-3.5996,-3.5996,-3.5996,-3.5996,-4.6308,-4.6308,-4.6308,-4.6308,-4.6308,-4.6308,-4.6308,-4.6243,-4.6206,-4.6202,-4.6095,-4.6007,-4.6002,-4.588,-4.5807,-4.5807,-4.5807,-4.5807,-4.5807,-4.5807,-4.5807,-4.5807,-4.5807,-4.5807,-4.5807,-4.5807,-4.5807,-4.5807,-4.5807,-4.5807,-4.5807,-4.5807,-4.5807,-4.5807,-4.5807,-4.5807,-4.5807,-4.5807,-4.5807,-4.5807,-4.5807,-4.5807,-4.5807,-4.5807,-4.5807,-4.5807,-4.5807,-4.5807,-4.5807,-4.5807,-4.5807,-4.5807,-4.5807,-4.5807,-4.5807,-4.5807,-4.5807,-4.5807,-4.5807,-4.5807,-4.5807,-4.5807,-4.5807,-4.5807,-4.5807,-4.5278,-4.4652,-4.4613,-4.3382,-4.2067,-4.2009,-4.139,-4.0797,-4.0797,-4.0797,-4.0797,-4.0803,-4.0917,-4.0986,-4.0911,-4.1019,-4.1085,-4.1048,-4.0403,-3.9316,-3.7617,-3.7324,-3.6992,-3.6113,-3.5996,-3.5996,-3.5996,-3.5996,-3.5996,-3.5996,-3.5996,-3.5996,-3.5996,-3.5996,-3.5996,-3.5996,-3.5996,-3.5996,-3.5996,-3.5996,-3.5996,-3.5996,-3.5996,-3.5996,-3.5996,-3.5996,-3.5996,-4.6308,-4.6308,-4.6308,-4.6308,-4.6308,-4.6308,-4.6308,-4.6289,-4.6265,-4.6209,-4.6134,-4.6072,-4.6017,-4.588,-4.5807,-4.5807,-4.5807,-4.5807,-4.5807,-4.5807,-4.5807,-4.5807,-4.5807,-4.5807,-4.5807,-4.5807,-4.5807,-4.5807,-4.5807,-4.5807,-4.5807,-4.5807,-4.5807,-4.5807,-4.5807,-4.5807,-4.5807,-4.5807,-4.5807,-4.5807,-4.5807,-4.5807,-4.5807,-4.5807,-4.5807,-4.5807,-4.5807,-4.5807,-4.5807,-4.5807,-4.5807,-4.5807,-4.5807,-4.5807,-4.5807,-4.5807,-4.5807,-4.5807,-4.5807,-4.5807,-4.5807,-4.5807,-4.5807,-4.5807,-4.5807,-4.5671,-4.5374,-4.4775,-4.3808,-4.2821,-4.2164,-4.139,-4.0797,-4.0797,-4.0797,-4.0802,-4.0853,-4.0907,-4.0937,-4.0976,-4.0953,-4.0762,-4.0168,-3.9894,-3.9417,-3.8417,-3.7715,-3.6992,-3.6113,-3.5996,-3.5996,-3.5996,-3.5996,-3.5996,-3.5996,-3.5996,-3.5996,-3.5996,-3.5996,-3.5996,-3.5996,-3.5996,-3.5996,-3.5996,-3.5996,-3.5996,-3.5996,-3.5996,-3.5996,-3.5996,-3.5996,-3.5996,-4.6308,-4.6308,-4.6308,-4.6308,-4.6308,-4.6308,-4.6308,-4.6308,-4.6289,-4.6244,-4.6197,-4.6125,-4.6067,-4.5961,-4.588,-4.5814,-4.5807,-4.5807,-4.5807,-4.5807,-4.5807,-4.5807,-4.5807,-4.5807,-4.5807,-4.5807,-4.5807,-4.5807,-4.5807,-4.5807,-4.5807,-4.5807,-4.5807,-4.5807,-4.5807,-4.5807,-4.5807,-4.5807,-4.5807,-4.5807,-4.5807,-4.5807,-4.5807,-4.5807,-4.5807,-4.5807,-4.5807,-4.5807,-4.5807,-4.5807,-4.5807,-4.5807,-4.5807,-4.5807,-4.5807,-4.5807,-4.5807,-4.5807,-4.5807,-4.5807,-4.5807,-4.5807,-4.5807,-4.5807,-4.5807,-4.5807,-4.571,-4.5258,-4.4523,-4.3672,-4.2802,-4.1951,-4.1235,-4.0874,-4.0797,-4.0815,-4.0846,-4.0873,-4.0902,-4.0953,-4.0953,-4.0805,-4.0357,-4.0311,-4.0097,-3.9296,-3.875,-3.8125,-3.7246,-3.6465,-3.5996,-3.5996,-3.5996,-3.5996,-3.5996,-3.5996,-3.5996,-3.5996,-3.5996,-3.5996,-3.5996,-3.5996,-3.5996,-3.5996,-3.5996,-3.5996,-3.5996,-3.5996,-3.5996,-3.5996,-3.5996,-3.5996,-4.6308,-4.6308,-4.6308,-4.6308,-4.6308,-4.6308,-4.6308,-4.6308,-4.6308,-4.6308,-4.624,-4.6162,-4.6112,-4.6022,-4.5941,-4.5827,-4.5807,-4.5807,-4.5807,-4.5807,-4.5807,-4.5807,-4.5807,-4.5807,-4.5807,-4.5807,-4.5807,-4.5807,-4.5807,-4.5807,-4.5807,-4.5807,-4.5807,-4.5807,-4.5807,-4.5807,-4.5807,-4.5807,-4.5807,-4.5807,-4.5807,-4.5807,-4.5807,-4.5807,-4.5807,-4.5807,-4.5807,-4.5807,-4.5807,-4.5807,-4.5807,-4.5807,-4.5807,-4.5807,-4.5807,-4.5807,-4.5807,-4.5807,-4.5807,-4.5807,-4.5807,-4.5807,-4.5807,-4.5807,-4.5807,-4.5807,-4.5807,-4.5807,-4.522,-4.442,-4.3672,-4.2744,-4.1816,-4.1126,-4.0874,-4.0797,-4.0797,-4.0859,-4.0888,-4.0888,-4.0937,-4.099,-4.1007,-4.1106,-4.0917,-4.0176,-3.9961,-3.9629,-3.8867,-3.7344,-3.6309,-3.6172,-3.6172,-3.6133,-3.6016,-3.5996,-3.5996,-3.5996,-3.5996,-3.5996,-3.5996,-3.5996,-3.5996,-3.5996,-3.5996,-3.5996,-3.5996,-3.6113,-3.6172,-3.6172,-3.6289,-3.6348,-4.6308,-4.6308,-4.6308,-4.6308,-4.6308,-4.6308,-4.6308,-4.6308,-4.6308,-4.6308,-4.6204,-4.6115,-4.6102,-4.5944,-4.5834,-4.5807,-4.5807,-4.5807,-4.5807,-4.5807,-4.5807,-4.5807,-4.5807,-4.5807,-4.5807,-4.5807,-4.5807,-4.5807,-4.5807,-4.5807,-4.5807,-4.5807,-4.5807,-4.5807,-4.5807,-4.5807,-4.5807,-4.5807,-4.5807,-4.5807,-4.5807,-4.5807,-4.5807,-4.5807,-4.5807,-4.5807,-4.5807,-4.5807,-4.5807,-4.5807,-4.5807,-4.5807,-4.5807,-4.5807,-4.5807,-4.5807,-4.5807,-4.5807,-4.5807,-4.5807,-4.5807,-4.5807,-4.5807,-4.5807,-4.5807,-4.5807,-4.5807,-4.5807,-4.522,-4.4574,-4.44,-4.3189,-4.1951,-4.1835,-4.1274,-4.0797,-4.0797,-4.0815,-4.0827,-4.0827,-4.0825,-4.0863,-4.097,-4.1031,-4.1014,-4.0976,-4.0351,-3.9844,-3.9687,-3.8789,-3.7871,-3.7148,-3.707,-3.6777,-3.6055,-3.5996,-3.5996,-3.5996,-3.5996,-3.5996,-3.5996,-3.5996,-3.5996,-3.5996,-3.5996,-3.5996,-3.5996,-3.6719,-3.707,-3.709,-3.7812,-3.8144,-4.6308,-4.6308,-4.6308,-4.6308,-4.6308,-4.6308,-4.6308,-4.6308,-4.6308,-4.6308,-4.6213,-4.6139,-4.6056,-4.5929,-4.5848,-4.5805,-4.5776,-4.5757,-4.58,-4.5805,-4.5805,-4.58,-4.5805,-4.5798,-4.5798,-4.5776,-4.5742,-4.5742,-4.5742,-4.5764,-4.58,-4.5807,-4.5807,-4.5807,-4.5807,-4.5807,-4.5807,-4.5807,-4.5807,-4.5807,-4.5807,-4.5807,-4.5807,-4.5807,-4.5807,-4.5807,-4.5807,-4.5807,-4.5807,-4.5807,-4.5807,-4.5807,-4.5807,-4.5807,-4.5807,-4.5807,-4.5807,-4.5807,-4.5807,-4.5807,-4.5807,-4.5807,-4.5807,-4.5807,-4.5807,-4.5807,-4.5807,-4.5807,-4.551,-4.5123,-4.471,-4.3982,-4.3247,-4.2783,-4.2048,-4.1409,-4.1409,-4.1106,-4.0797,-4.0797,-4.0856,-4.0924,-4.1,-4.1061,-4.1138,-4.1191,-4.084,-4.0586,-4.0586,-4.0215,-3.9453,-3.8125,-3.7988,-3.7812,-3.7383,-3.7344,-3.7344,-3.7344,-3.7344,-3.7344,-3.7344,-3.7344,-3.7344,-3.7344,-3.7344,-3.7344,-3.7344,-3.7773,-3.7988,-3.7988,-3.8418,-3.8594,-4.6308,-4.6308,-4.6308,-4.6308,-4.6308,-4.6308,-4.6308,-4.6308,-4.6308,-4.6308,-4.6241,-4.6165,-4.6029,-4.5949,-4.5866,-4.5783,-4.5731,-4.5731,-4.5771,-4.5776,-4.5788,-4.5786,-4.5776,-4.5773,-4.5785,-4.5723,-4.5708,-4.5708,-4.5708,-4.5712,-4.5778,-4.5778,-4.5778,-4.5778,-4.5778,-4.5786,-4.5793,-4.5793,-4.58,-4.5807,-4.5807,-4.5807,-4.5807,-4.5807,-4.5807,-4.5807,-4.5807,-4.5807,-4.5807,-4.5807,-4.5807,-4.5807,-4.5807,-4.5807,-4.5807,-4.5807,-4.5807,-4.5807,-4.5807,-4.5807,-4.5807,-4.5807,-4.5807,-4.5807,-4.5807,-4.5807,-4.5807,-4.5807,-4.5807,-4.5652,-4.5026,-4.4736,-4.4381,-4.3518,-4.2783,-4.2222,-4.2048,-4.1506,-4.1009,-4.0835,-4.0903,-4.0974,-4.1007,-4.1108,-4.1171,-4.1191,-4.1191,-4.1191,-4.1191,-4.1191,-4.0684,-3.9297,-3.8984,-3.8809,-3.8613,-3.8594,-3.8594,-3.8594,-3.8594,-3.8594,-3.8594,-3.8594,-3.8594,-3.8594,-3.8594,-3.8594,-3.8594,-3.8789,-3.8887,-3.8887,-3.9062,-3.916,-4.6308,-4.6308,-4.6308,-4.6308,-4.6308,-4.6308,-4.6308,-4.6308,-4.6308,-4.6308,-4.6257,-4.6153,-4.6025,-4.5954,-4.5848,-4.5739,-4.5708,-4.5708,-4.5715,-4.5715,-4.5704,-4.57,-4.5704,-4.57,-4.5714,-4.5692,-4.5708,-4.5708,-4.5708,-4.5708,-4.5715,-4.5715,-4.5715,-4.5715,-4.5715,-4.5739,-4.5795,-4.5795,-4.5791,-4.5807,-4.5807,-4.5807,-4.5807,-4.5807,-4.5807,-4.5807,-4.5807,-4.5807,-4.5807,-4.5807,-4.5807,-4.5807,-4.5807,-4.5807,-4.5807,-4.5807,-4.5807,-4.5807,-4.5807,-4.5807,-4.5807,-4.5807,-4.5807,-4.5807,-4.5807,-4.5807,-4.5807,-4.5807,-4.5807,-4.5787,-4.571,-4.5142,-4.4381,-4.3518,-4.3247,-4.2957,-4.2164,-4.1932,-4.1661,-4.0951,-4.0862,-4.0928,-4.0981,-4.1066,-4.1121,-4.1191,-4.1191,-4.1191,-4.1191,-4.1191,-4.1133,-4.0976,-4.0254,-3.9453,-3.8672,-3.8594,-3.8594,-3.8594,-3.8594,-3.8594,-3.8594,-3.8594,-3.8594,-3.8594,-3.8594,-3.8594,-3.8594,-3.9394,-3.9785,-3.9805,-4.0586,-4.0957,-4.6308,-4.6308,-4.6308,-4.6308,-4.6308,-4.6308,-4.6308,-4.6308,-4.6288,-4.6199,-4.6183,-4.6137,-4.5915,-4.5865,-4.5815,-4.5719,-4.5662,-4.5662,-4.5695,-4.5695,-4.5695,-4.5711,-4.5695,-4.5698,-4.5709,-4.5654,-4.5646,-4.5646,-4.5646,-4.5646,-4.5646,-4.5676,-4.5708,-4.5708,-4.5708,-4.5715,-4.5731,-4.5731,-4.5739,-4.5734,-4.5734,-4.5769,-4.5791,-4.5791,-4.5805,-4.5807,-4.5807,-4.5807,-4.5807,-4.5807,-4.5807,-4.5807,-4.5807,-4.5807,-4.5807,-4.5807,-4.5807,-4.5807,-4.5807,-4.5807,-4.5807,-4.5807,-4.5807,-4.5807,-4.5807,-4.5807,-4.5807,-4.5807,-4.5807,-4.5807,-4.5807,-4.5548,-4.522,-4.4891,-4.4427,-4.4001,-4.3634,-4.315,-4.2531,-4.168,-4.1607,-4.154,-4.1085,-4.1081,-4.1169,-4.1191,-4.1191,-4.1191,-4.1191,-4.1191,-4.1191,-4.1191,-4.0898,-4.0547,-4.0195,-4.0156,-4.0156,-4.0156,-4.0156,-4.0156,-4.0156,-4.0156,-4.0156,-4.0156,-4.0156,-4.0156,-4.0176,-4.0508,-4.0684,-4.0684,-4.1035,-4.1191,-4.6308,-4.6308,-4.6308,-4.6308,-4.6308,-4.6308,-4.6308,-4.6308,-4.6267,-4.6138,-4.6143,-4.6092,-4.5859,-4.579,-4.5773,-4.5671,-4.5631,-4.5622,-4.5665,-4.5453,-4.5376,-4.5635,-4.5434,-4.5387,-4.5646,-4.5631,-4.5594,-4.5594,-4.5594,-4.5594,-4.5594,-4.5635,-4.5668,-4.5668,-4.5668,-4.5676,-4.5703,-4.5703,-4.5692,-4.5708,-4.5708,-4.5723,-4.5765,-4.5765,-4.5769,-4.5805,-4.5805,-4.5793,-4.5807,-4.5807,-4.5807,-4.5807,-4.5793,-4.5793,-4.5807,-4.5793,-4.5793,-4.5807,-4.5807,-4.5807,-4.5807,-4.5807,-4.5807,-4.5807,-4.5807,-4.5807,-4.5807,-4.5807,-4.5807,-4.5807,-4.5807,-4.5807,-4.5807,-4.5807,-4.5374,-4.4891,-4.4652,-4.411,-4.344,-4.255,-4.2277,-4.2023,-4.1458,-4.1268,-4.1191,-4.1191,-4.1191,-4.1191,-4.1191,-4.1191,-4.1191,-4.1191,-4.1191,-4.1191,-4.1191,-4.1191,-4.1191,-4.1191,-4.1191,-4.1191,-4.1191,-4.1191,-4.1191,-4.1191,-4.1191,-4.1191,-4.1191,-4.1191,-4.1191,-4.1191,-4.1191,-4.1191,-4.6308,-4.6308,-4.6308,-4.6308,-4.6308,-4.6308,-4.6308,-4.6308,-4.6264,-4.6138,-4.6108,-4.6041,-4.5834,-4.5789,-4.5757,-4.562,-4.5594,-4.5594,-4.5594,-4.4863,-4.4624,-4.5498,-4.4844,-4.4643,-4.5518,-4.5594,-4.5594,-4.5594,-4.5594,-4.5594,-4.5594,-4.5594,-4.5594,-4.5594,-4.5594,-4.564,-4.5701,-4.5701,-4.5706,-4.5708,-4.5708,-4.5708,-4.5708,-4.5708,-4.575,-4.5807,-4.5807,-4.581,-4.5807,-4.5807,-4.5807,-4.58,-4.5803,-4.5791,-4.58,-4.5803,-4.5791,-4.5807,-4.5807,-4.5807,-4.5807,-4.5807,-4.5807,-4.5807,-4.5807,-4.5807,-4.5807,-4.5807,-4.5807,-4.5807,-4.5807,-4.5807,-4.5807,-4.5807,-4.5787,-4.5568,-4.4775,-4.4594,-4.4323,-4.346,-4.2699,-4.2198,-4.2198,-4.1639,-4.1191,-4.1191,-4.1191,-4.1191,-4.1191,-4.1191,-4.1191,-4.1191,-4.1191,-4.1191,-4.1191,-4.1191,-4.1191,-4.1191,-4.1191,-4.1191,-4.1191,-4.1191,-4.1191,-4.1191,-4.1191,-4.1191,-4.1191,-4.1191,-4.1191,-4.1191,-4.1191,-4.1191,-4.6308,-4.6308,-4.6308,-4.6308,-4.6266,-4.6216,-4.6173,-4.6128,-4.6053,-4.592,-4.5935,-4.5901,-4.5708,-4.5742,-4.5757,-4.562,-4.5594,-4.5594,-4.5594,-4.5364,-4.5287,-4.5575,-4.5364,-4.5306,-4.5575,-4.5594,-4.5594,-4.5594,-4.5594,-4.5594,-4.5594,-4.5594,-4.5594,-4.5594,-4.5594,-4.5622,-4.5631,-4.5631,-4.562,-4.5637,-4.5637,-4.5654,-4.5698,-4.5698,-4.5703,-4.5723,-4.5723,-4.5731,-4.5727,-4.5727,-4.5727,-4.5727,-4.5731,-4.5731,-4.5746,-4.5781,-4.5781,-4.5746,-4.5776,-4.5803,-4.5803,-4.5803,-4.5805,-4.5807,-4.5807,-4.5807,-4.5807,-4.5807,-4.5807,-4.5807,-4.5807,-4.5807,-4.5807,-4.5807,-4.5807,-4.5729,-4.5471,-4.5413,-4.5181,-4.4349,-4.4064,-4.3601,-4.2413,-4.2108,-4.1836,-4.1289,-4.1191,-4.1191,-4.1191,-4.1191,-4.1191,-4.1191,-4.1191,-4.1191,-4.1191,-4.1191,-4.1191,-4.1191,-4.1191,-4.1191,-4.1191,-4.1191,-4.1191,-4.1191,-4.1191,-4.1191,-4.1191,-4.1191,-4.1191,-4.1211,-4.1758,-4.2012,-4.6308,-4.6308,-4.6288,-4.6265,-4.6233,-4.6171,-4.6086,-4.602,-4.5963,-4.5841,-4.584,-4.5815,-4.5635,-4.5668,-4.57,-4.5612,-4.5594,-4.5594,-4.5594,-4.5056,-4.4671,-4.4671,-4.4921,-4.5248,-4.5575,-4.5594,-4.5594,-4.5594,-4.5594,-4.5594,-4.5594,-4.5594,-4.5594,-4.5594,-4.5594,-4.5594,-4.5594,-4.5594,-4.5594,-4.5594,-4.5594,-4.5631,-4.5657,-4.5657,-4.5682,-4.5703,-4.5703,-4.5692,0.0,-4.5708,-4.5708,-4.5708,-4.5711,-4.5692,-4.5708,-4.5754,-4.5735,-4.5708,-4.5758,-4.5765,-4.5765,-4.5765,-4.5769,-4.5805,-4.58,-4.5807,-4.5807,-4.5807,-4.5807,-4.5807,-4.5807,-4.5807,-4.5807,-4.5807,-4.5807,-4.5807,-4.5807,-4.5807,-4.5652,-4.5142,-4.4919,-4.4458,-4.3367,-4.3025,-4.2617,-4.1777,-4.1641,-4.1543,-4.123,-4.1191,-4.1191,-4.1191,-4.1191,-4.1191,-4.1191,-4.1191,-4.1191,-4.1191,-4.1191,-4.1191,-4.1191,-4.1191,-4.1191,-4.1191,-4.1191,-4.1191,-4.1191,-4.1504,-4.1641,-4.168,-4.25,-4.2891,0.0,-4.6286,-4.6263,-4.6216,-4.6182,-4.6142,-4.6018,-4.5977,0.0,-4.5816,-4.5794,-4.5742,-4.562,-4.5594,-4.5594,-4.5594,-4.5594,-4.5594,-4.5594,-4.4201,-4.3181,-4.3181,-4.3855,-4.4643,-4.5518,-4.5594,-4.5594,-4.5594,-4.5594,-4.5594,-4.5594,-4.5594,-4.5594,-4.5594,-4.5577,-4.5577,-4.5594,-4.5594,-4.5594,-4.5594,-4.5594,-4.5594,-4.5594,-4.5594,-4.564,-4.5693,-4.5693,-4.5698,-4.57,-4.57,-4.57,-4.5692,-4.569,-4.5679,-4.5692,-4.5698,-4.5706,-4.57,-4.57,-4.57,-4.57,-4.5708,-4.5731,-4.5788,-4.5812,-4.58,-4.5807,-4.5807,-4.5807,-4.5807,-4.5807,-4.5807,-4.5807,-4.5807,-4.5807,-4.5807,-4.5807,-4.5807,-4.5807,-4.5807,-4.5302,-4.488,-4.4805,-4.4232,-4.3496,-4.2617,-4.2441,-4.2129,-4.1387,-4.123,-4.1191,-4.1191,-4.1191,-4.1191,-4.1191,-4.1191,-4.1191,-4.1191,-4.1191,-4.1191,-4.1191,-4.1191,-4.1191,-4.1191,-4.1269,-4.1328,-4.1387,-4.2129,-4.248,-4.2519,-4.3398,-4.3789,-4.6299,0.0,-4.6161,-4.6191,-4.6049,-4.588,0.0,-4.5803,-4.5754,-4.5648,-4.5643,-4.5646,-4.5603,-4.5594,-4.5594,-4.5594,-4.5594,-4.5594,-4.5594,-4.4682,-4.4028,-4.4028,-4.4182,-4.4643,-4.5518,-4.5594,-4.5594,-4.5594,-4.5594,-4.5594,-4.5594,-4.5594,-4.5594,-4.5594,-4.541,-4.54,-4.5594,-4.5594,-4.5594,-4.5594,-4.5594,-4.5594,-4.5594,-4.5594,-4.5614,-4.5631,-4.5631,-4.5612,-4.5629,-4.5629,-4.5629,-4.562,-4.5612,-4.5612,-4.5629,-4.5673,-4.5665,-4.5629,-4.5682,-4.5698,-4.5698,-4.5692,-4.5715,-4.5731,-4.5788,-4.5805,-4.5807,-4.5807,-4.5807,-4.5807,-4.5807,-4.5807,-4.5807,-4.5807,-4.5807,-4.5807,-4.5807,-4.5807,-4.5807,-4.5807,-4.5766,-4.5511,-4.4915,-4.4697,-4.4345,-4.3515,-4.2832,-4.2324,-4.2148,-4.1582,-4.1191,-4.1191,-4.1191,-4.1191,-4.1191,-4.1191,-4.1191,-4.1191,-4.1191,-4.1191,-4.1191,-4.1191,-4.1191,-4.1191,-4.1797,-4.2441,-4.3105,-4.3301,-4.3398,-4.3418,-4.4297,-4.4687,-4.6291,-4.6193,-4.6106,-4.6115,-4.5954,-4.579,-4.5768,-4.5723,-4.5684,-4.5603,-4.5594,-4.5594,-4.5594,-4.5594,-4.5594,-4.5594,-4.5594,-4.5325,-4.4547,-4.3701,-4.3297,-4.3701,-4.3739,-4.4239,-4.5479,-4.5594,-4.5594,-4.5594,-4.5594,-4.5594,-4.5594,-4.5594,-4.5594,-4.5594,-4.5342,-4.5263,-4.5419,-4.5419,-4.5419,-4.5419,-4.5531,-4.5594,-4.5594,-4.5594,-4.5594,-4.5594,-4.5594,-4.5594,-4.5594,-4.5594,-4.5594,-4.5594,-4.5594,-4.5594,-4.5594,-4.564,-4.5631,-4.5614,-4.564,-4.5648,-4.5657,-4.5679,-4.5695,-4.5703,-4.575,-4.5754,-4.5757,-4.5793,-4.5807,-4.5807,-4.5807,-4.5807,-4.5807,-4.5807,-4.5807,-4.5807,-4.5807,-4.5807,-4.5807,-4.5807,-4.5917,-4.5862,-4.5427,-4.5432,-4.5213,-4.4387,-4.3885,-4.3457,-4.3047,-4.2617,-4.2344,-4.2344,-4.2344,-4.2344,-4.2344,-4.2344,-4.2012,-4.125,-4.1191,-4.1367,-4.1738,-4.1758,-4.1933,-4.2344,-4.2773,-4.3223,-4.3691,-4.4101,-4.4297,-4.4316,-4.5195,-4.5605,-4.6305,-4.6192,-4.6075,-4.6026,-4.5908,-4.5773,-4.5703,-4.5701,-4.5684,-4.5603,-4.5594,-4.5594,-4.5594,-4.5594,-4.5594,-4.5594,-4.5498,-4.4863,-4.3316,-4.2354,-4.2124,-4.3008,-4.3104,-4.3758,-4.5441,-4.5594,-4.5594,-4.5594,-4.5594,-4.5594,-4.5594,-4.5594,-4.5594,-4.5594,-4.5302,-4.5129,-4.5129,-4.5129,-4.5129,-4.5129,-4.5362,-4.5485,-4.5485,-4.5513,-4.555,-4.5531,-4.5577,-4.5594,-4.5594,-4.5594,-4.5594,-4.5594,-4.5594,-4.5594,-4.5594,-4.5594,-4.5594,-4.5594,-4.5594,-4.5594,-4.5622,-4.5676,-4.5673,-4.5701,-4.5703,-4.57,-4.5715,-4.5764,-4.5793,-4.58,-4.5807,-4.5807,-4.5807,-4.5807,-4.5807,-4.5807,-4.5807,-4.5807,-4.5807,-4.5807,-4.588,-4.5986,-4.6017,-4.6109,-4.5943,-4.5213,-4.5055,-4.4726,-4.3984,-4.3789,-4.3691,-4.3691,-4.3691,-4.3691,-4.3691,-4.3691,-4.3086,-4.168,-4.1582,-4.1894,-4.2578,-4.2598,-4.3008,-4.3887,-4.3906,-4.3965,-4.4101,-4.4844,-4.5195,-4.5215,-4.5957,-4.6308,-4.6302,-4.6161,-4.6026,-4.6069,-4.5893,-4.5703,-4.5692,-4.5706,-4.5684,-4.5603,-4.5594,-4.5594,-4.5594,-4.5594,-4.5594,-4.5594,-4.4979,-4.4162,-4.3239,-4.2354,-4.2124,-4.3008,-4.3104,-4.3758,-4.5441,-4.5594,-4.5594,-4.5594,-4.5594,-4.5594,-4.5594,-4.5594,-4.5594,-4.5594,-4.5118,-4.4861,-4.4861,-4.4861,-4.4861,-4.4861,-4.4896,-4.4908,-4.4938,-4.5169,-4.5253,-4.5263,-4.5504,-4.5594,-4.5594,-4.5594,-4.5594,-4.5594,-4.5594,-4.5594,-4.5594,-4.5594,-4.5594,-4.5594,-4.5594,-4.5594,-4.5594,-4.5603,-4.5622,-4.5631,-4.5673,-4.569,-4.5698,-4.5708,-4.5773,-4.5803,-4.58,-4.5807,-4.5807,-4.5807,-4.5807,-4.5807,-4.5807,-4.5807,-4.5807,-4.5807,-4.5821,-4.5872,-4.6056,-4.6102,-4.6114,-4.6091,-4.5469,-4.4941,-4.4824,-4.416,-4.3691,-4.3691,-4.3691,-4.3691,-4.3691,-4.3691,-4.3594,-4.332,-4.332,-4.3379,-4.3496,-4.3496,-4.3906,-4.4785,-4.4805,-4.5156,-4.5898,-4.6035,-4.6094,-4.6094,-4.623,-4.6308,-4.6211,-4.6076,-4.5934,-4.5942,-4.5814,-4.5701,-4.5654,-4.5657,-4.564,-4.5614,-4.5594,-4.5594,-4.5594,-4.5594,-4.546,-4.4979,-4.4201,-4.3355,-4.2527,-4.1643,-4.1604,-4.2931,-4.3104,-4.3758,-4.5441,-4.5594,-4.5594,-4.5594,-4.5594,-4.555,-4.54,-4.5513,-4.5476,-4.518,-4.4938,-4.4726,-4.4585,-4.4443,-4.4443,-4.4585,-4.4726,-4.4788,-4.48,-4.5074,-4.5201,-4.5211,0.0,-4.5594,-4.5594,-4.5594,-4.5594,-4.5594,-4.5594,-4.5594,-4.5594,-4.5594,-4.5594,-4.5594,-4.5594,-4.5594,-4.5594,-4.5594,-4.5594,-4.5614,-4.564,-4.5648,-4.5657,-4.5698,-4.5719,-4.5758,-4.5754,-4.5776,-4.5791,-4.5749,-4.5771,-4.58,-4.5798,-4.5793,-4.5807,-4.5807,-4.5807,-4.5828,-4.5931,-4.602,-4.6122,-4.6173,-4.5912,-4.5703,-4.5703,-4.5351,-4.5098,-4.5098,-4.5098,-4.5098,-4.5098,-4.5098,-4.4707,-4.3769,-4.4141,-4.4394,-4.4394,-4.4844,-4.5293,-4.5683,-4.5703,-4.5898,-4.6308,-4.6308,-4.6308,-4.6308,-4.6308,-4.6308,-4.6138,-4.6005,-4.5908,-4.5816,-4.5761,-4.5693,-4.564,-4.5631,-4.5622,-4.5594,-4.5594,-4.5594,-4.5594,-4.5441,-4.5075,-4.4412,-4.3451,-4.2566,-4.1885,-4.1046,-4.1073,-4.2604,-4.2797,-4.3451,-4.5133,-4.5306,-4.5383,-4.5575,-4.5594,-4.5485,-4.5211,-4.5381,-4.5292,-4.4812,-4.4739,-4.4612,-4.4397,-4.4136,-4.4091,-4.4303,-4.4506,-4.4599,-4.4612,-4.4884,-4.5052,-4.5118,-4.54,-4.5531,-4.5594,-4.5594,-4.5594,-4.5594,-4.5594,-4.5594,-4.5594,-4.5594,-4.5594,-4.5594,-4.5594,-4.5594,-4.5594,-4.5594,-4.5594,-4.5594,-4.5594,-4.5594,-4.5622,-4.5657,-4.569,-4.5684,-4.57,-4.575,-4.5765,-4.5715,-4.5734,-4.5771,-4.5788,-4.5791,-4.5793,-4.58,-4.5807,-4.5814,-4.5828,-4.5993,-4.6105,-4.6122,-4.6215,-4.6308,-4.6308,-4.6308,-4.6308,-4.6308,-4.6308,-4.6308,-4.6308,-4.6308,-4.5723,-4.4394,-4.4941,-4.5293,-4.5293,-4.5957,-4.6308,-4.6308,-4.6308,-4.6308,-4.6308,-4.6308,-4.6308,-4.6308,-4.6308,-4.6308,-4.6138,-4.6056,-4.5968,-4.5835,-4.5758,-4.5701,-4.5693,-4.5693,-4.5684,-4.5603,-4.5594,-4.5594,-4.5594,-4.494,-4.4374,-4.4316,-4.2951,-4.1865,-4.1808,-4.1046,-4.0862,-4.1777,-4.1885,-4.2547,-4.422,-4.4393,-4.472,-4.5537,-4.5594,-4.5485,-4.5211,-4.5222,-4.5096,-4.48,-4.4559,-4.4411,-4.4397,-4.4136,-4.402,-4.4017,-4.4048,-4.4048,-4.4064,-4.4332,-4.4599,-4.4837,-4.5107,-4.5362,-4.5594,-4.5594,-4.5594,-4.5594,-4.5594,-4.5594,-4.5594,-4.5594,-4.5594,-4.5594,-4.5594,-4.5594,-4.5594,-4.5594,-4.5594,-4.5594,-4.5594,-4.5594,-4.5594,-4.5614,-4.5622,-4.562,-4.5684,-4.5708,-4.5708,-4.5708,-4.5688,-4.5723,-4.58,-4.5807,-4.5803,-4.58,-4.5807,-4.5848,-4.5969,-4.6039,-4.6122,-4.6173,-4.6244,-4.6308,-4.6308,-4.6308,-4.6308,-4.6308,-4.6308,-4.6308,-4.6308,-4.6308,-4.625,-4.6113,-4.6172,-4.6211,-4.6211,-4.6269,-4.6308,-4.6308,-4.6308,-4.6308,-4.6308,-4.6308,-4.6308,-4.6308,-4.6308,-4.6308,-4.6005,-4.5928,-4.5848,-4.5704,-4.5654,-4.564,-4.564,-4.564,-4.5631,-4.5614,-4.5594,-4.5594,-4.5594,-4.4902,-4.4143,-4.3643,-4.2566,-4.1604,-4.1066,-4.0708,-4.0816,-4.17,-4.1788,-4.2258,-4.3431,-4.3547,-4.3682,-4.4008,-4.4354,-4.4438,-4.4163,-4.4665,-4.4751,-4.4322,-4.4374,-4.4318,-4.4151,-4.4048,-4.4005,-4.4005,-4.4005,-4.4005,-4.402,-4.4294,-4.4452,-4.4572,-4.5019,-4.5253,-4.5362,-4.5522,-4.5504,-4.5342,-4.5342,-4.5342,-4.5362,-4.555,-4.5594,-4.5594,-4.5594,-4.5594,-4.5594,-4.5594,-4.5594,-4.5594,-4.5594,-4.5594,-4.5594,-4.5594,-4.5594,-4.5603,-4.5637,-4.5662,-4.5698,-4.5654,-4.5668,-4.57,-4.573,-4.577,-4.5788,-4.5803,-4.5805,-4.5821,-4.5874,-4.5972,-4.6052,-4.6128,-4.6181,-4.6244,-4.6289,-4.6308,-4.6308,-4.6308,-4.6308,-4.6308,-4.6308,-4.6308,-4.6308,-4.6308,-4.6308,-4.6308,-4.6308,-4.6308,-4.6308,-4.6308,-4.6308,-4.6308,-4.6308,-4.6308,-4.6308,-4.6308,-4.6308,-4.6308,-4.5914,-4.5828,-4.5766,-4.5627,-4.5594,-4.5594,-4.5594,-4.5594,-4.5594,-4.5594,-4.5594,-4.5518,-4.5248,-4.4489,-4.3643,-4.2816,-4.197,-4.1181,-4.0573,-4.0496,-4.0727,-4.1316,-4.1393,-4.1739,-4.2604,-4.2701,-4.2797,-4.3085,-4.3369,-4.3501,-4.3507,-4.4014,-4.4189,-4.4002,-4.4181,-4.4196,-4.4005,-4.4005,-4.4005,-4.4005,-4.4005,-4.4005,-4.4005,-4.4177,-4.4318,-4.4443,-4.4872,-4.5074,-4.5096,-4.5352,-4.5322,-4.5085,-4.5169,-4.5201,-4.5232,-4.5504,-4.5594,-4.5594,-4.5594,-4.5594,-4.5594,-4.5594,-4.5594,-4.5594,-4.5594,-4.5594,-4.5594,-4.5594,-4.5594,-4.5594,-4.5594,-4.564,-4.5648,-4.5603,-4.5637,-4.566,-4.5701,-4.575,-4.577,-4.5765,-4.5769,-4.5771,-4.5771,-4.588,-4.5983,-4.6061,-4.6133,-4.6215,-4.6289,-4.6308,-4.6308,-4.6308,-4.6308,-4.6308,-4.6308,-4.6308,-4.6308,-4.6308,-4.6308,-4.6308,-4.6308,-4.6308,-4.6308,-4.6308,-4.6308,-4.6308,-4.6308,-4.6308,-4.6308,-4.6308,-4.6308,-4.6308,-4.5873,-4.5796,-4.5775,-4.5627,-4.5594,-4.5594,-4.5594,-4.5594,-4.5594,-4.5594,-4.5594,-4.5325,-4.4451,-4.3643,-4.2816,-4.1942,-4.1066,-4.0496,-4.0496,-4.0496,-4.0496,-4.0496,-4.0496,-4.0843,-4.1692,-4.1788,-4.2162,-4.3008,-4.2823,-4.2921,-4.345,-4.3302,-4.3432,-4.3983,-4.4005,-4.4005,-4.4005,-4.4005,-4.4005,-4.4005,-4.4005,-4.4005,-4.4005,-4.4005,-4.4151,-4.4397,-4.4676,-4.4788,-4.4812,-4.5085,-4.5041,-4.4812,-4.5085,-4.5201,-4.5232,-4.5504,-4.5594,-4.5594,-4.5594,-4.5594,-4.5594,-4.5594,-4.5594,-4.5594,-4.5594,-4.5594,-4.5594,-4.5594,-4.5594,-4.5594,-4.5594,-4.5594,-4.5594,-4.5594,-4.5594,-4.5622,-4.5673,-4.5701,-4.569,-4.57,-4.5708,-4.5708,-4.5708,-4.5809,-4.5919,-4.5998,-4.6106,-4.6215,-4.6289,-4.6308,-4.6308,-4.6308,-4.6308,-4.6308,-4.6308,-4.6308,-4.6308,-4.6308,-4.6308,-4.6308,-4.6308,-4.6308,-4.6308,-4.6308,-4.6308,-4.6308,-4.6308,-4.6308,-4.6308,-4.6308,-4.6308,-4.6308,-4.5892,-4.5775,-4.566,-4.5612,-4.5594,-4.5594,-4.5594,-4.5594,-4.5594,-4.5594,-4.5594,-4.5325,-4.4451,-4.3643,-4.2816,-4.1942,-4.1066,-4.0496,-4.0496,-4.0496,-4.0496,-4.0496,-4.0496,-4.0593,-4.0854,-4.0893,-4.0989,-4.1247,-4.1456,-4.1646,-4.1814,-4.2522,-4.2995,-4.315,-4.3708,-4.4005,-4.4005,-4.4005,-4.4005,-4.4005,-4.4005,-4.4005,-4.4005,-4.4005,-4.4033,-4.4136,-4.4402,-4.4519,-4.4519,-4.4612,-4.4599,-4.4546,-4.4812,-4.4927,-4.4966,-4.5429,-4.5594,-4.5594,-4.5594,-4.5594,-4.5594,-4.5594,-4.5594,-4.5594,-4.5594,-4.5594,-4.5594,-4.5594,-4.5594,-4.5594,-4.5594,-4.5594,-4.5594,-4.5594,-4.5594,-4.5614,-4.5631,-4.5676,-4.5701,-4.5698,-4.5703,-4.5708,-4.5708,-4.5776,-4.5841,-4.5914,-4.6033,-4.6165,-4.6288,-4.6308,-4.6308,-4.6308,-4.6308,-4.6308,-4.6308,-4.6308,-4.6308,-4.6308,-4.6308,-4.6308,-4.6308,-4.6308,-4.6308,-4.6308,-4.6308,-4.6308,-4.6308,-4.6308,-4.6308,-4.6308,-4.6308,-4.6308,-4.5848,-4.573,-4.5637,-4.5603,-4.5594,-4.5594,-4.5594,-4.5594,-4.5594,-4.5594,-4.5325,-4.4816,-4.397,-4.3143,-4.2297,-4.1431,-4.0835,-4.0496,-4.0496,-4.0496,-4.0496,-4.0496,-4.0496,-4.0496,-4.0496,-4.0496,-4.0496,-4.0496,-4.0558,-4.0734,-4.1075,-4.1565,-4.198,-4.2314,-4.3095,-4.3522,-4.3522,-4.3838,-4.4005,-4.4005,-4.4005,-4.4005,-4.4005,-4.4005,-4.4005,-4.402,-4.4181,-4.4303,-4.4383,-4.4294,-4.425,-4.4294,-4.465,-4.4788,-4.4861,-4.541,-4.5594,-4.5594,-4.5594,-4.5594,-4.5594,-4.5594,-4.5594,-4.5594,-4.5594,-4.5594,-4.5594,-4.5594,-4.5594,-4.5594,-4.5594,-4.5594,-4.5594,-4.5594,-4.5594,-4.5594,-4.5594,-4.5631,-4.5657,-4.5657,-4.5654,-4.5651,-4.5651,-4.5711,-4.5776,-4.5859,-4.6017,-4.6162,-4.6243,-4.6288,-4.6308,-4.6308,-4.6308,-4.6308,-4.6308,-4.6308,-4.6308,-4.6308,-4.6308,-4.6308,-4.6308,-4.6308,-4.6308,-4.6308,-4.6308,-4.6308,-4.6308,-4.6308,-4.6308,-4.6308,-4.6308,-4.6308,-4.5735,-4.5703,-4.5684,-4.562,-4.5594,-4.5594,-4.5594,-4.5594,-4.5575,-4.5498,-4.4855,-4.4028,-4.3143,-4.2335,-4.1508,-4.065,-4.0496,-4.0496,-4.0496,-4.0496,-4.0496,-4.0496,-4.0496,-4.0496,-4.0496,-4.0496,-4.0489,-4.0473,-4.0043,-4.0127,-4.0908,-4.0592,-4.075,-4.146,-4.2259,-4.2686,-4.2686,-4.3485,-4.3893,-4.3893,-4.3968,-4.4005,-4.4005,-4.4005,-4.4005,-4.4005,-4.4005,-4.4136,-4.4346,-4.4091,-4.4005,-4.4048,-4.4585,-4.4788,-4.4861,-4.541,-4.5594,-4.5594,-4.5594,-4.5594,-4.5594,-4.5594,-4.5594,-4.5594,-4.5594,-4.5594,-4.5594,-4.5594,-4.5594,-4.5594,-4.5594,-4.5594,-4.5594,-4.5594,-4.5594,-4.5594,-4.5594,-4.5594,-4.5594,-4.5594,-4.5594,-4.5594,-4.5594,-4.5648,-4.5715,-4.579,-4.6022,-4.6173,-4.6197,-4.6243,-4.6289,-4.6289,-4.6308,-4.6308,-4.6308,-4.6308,-4.6308,-4.6308,-4.6308,-4.6308,-4.6308,-4.6308,-4.6308,-4.6308,-4.6308,-4.6308,-4.6308,-4.6308,-4.6308,-4.6308,-4.6308,-4.6308,-4.5782,-4.5746,-4.569,-4.5673,-4.564,-4.5594,-4.5594,-4.5594,-4.5421,-4.472,-4.4432,-4.3855,-4.2354,-4.1923,-4.1508,-4.065,-4.0496,-4.0496,-4.0496,-4.0496,-4.0496,-4.0496,-4.0496,-4.0496,-4.0496,-4.0496,-4.0422,-4.0278,-3.9973,-3.9815,-3.9844,-4.0186,-4.0476,-4.0657,-4.1441,-4.185,-4.185,-4.2649,-4.3058,-4.3076,-4.3708,-4.4005,-4.4005,-4.4005,-4.4005,-4.4005,-4.4005,-4.4033,-4.4094,-4.4017,-4.4005,-4.4048,-4.4585,-4.4788,-4.4861,-4.541,-4.5594,-4.5594,-4.5594,-4.5594,-4.5594,-4.5594,-4.5594,-4.5594,-4.5594,-4.5594,-4.5594,-4.5594,-4.5594,-4.5594,-4.5594,-4.5594,-4.5594,-4.5594,-4.5594,-4.5594,-4.5594,-4.5594,-4.5594,-4.5594,-4.5594,-4.5594,-4.5594,-4.5648,-4.5743,-4.5859,-4.5924,-4.5996,-4.6115,-4.6171,-4.6213,-4.6213,-4.6267,-4.6308,-4.6308,-4.6308,-4.6308,-4.6308,-4.6308,-4.6308,-4.6308,-4.6308,-4.6308,-4.6308,-4.6308,-4.6308,-4.6308,-4.6308,-4.6308,-4.6308,-4.6308,-4.6308,-4.5749,-4.5727,-4.5693,-4.5657,-4.5631,-4.5594,-4.5594,-4.5287,-4.4739,-4.3893,-4.372,-4.3335,-4.2038,-4.147,-4.1027,-4.0573,-4.0496,-4.0496,-4.0496,-4.0496,-4.0496,-4.0496,-4.0496,-4.0496,-4.0496,-4.0496,-4.0425,-4.0223,-3.9953,-3.9717,-3.9508,-3.9674,-3.977,-3.977,-4.0587,-4.1033,-4.1033,-4.1813,-4.2222,-4.224,-4.3039,-4.3633,-4.4005,-4.4005,-4.4005,-4.4005,-4.4005,-4.4005,-4.4005,-4.4005,-4.4005,-4.4048,-4.4585,-4.4788,-4.4861,-4.541,-4.5594,-4.5594,-4.5594,-4.5594,-4.5594,-4.5594,-4.5594,-4.5594,-4.5594,-4.5594,-4.5594,-4.5594,-4.5594,-4.5594,-4.5594,-4.5594,-4.5594,-4.5594,-4.5594,-4.5594,-4.5594,-4.5594,-4.5594,-4.5594,-4.5594,-4.5594,-4.5594,-4.5648,-4.573,-4.5793,-4.5828,-4.5892,-4.5993,-4.6059,-4.6133,-4.6181,-4.6237,-4.6266,-4.6308,-4.6308,-4.6308,-4.6308,-4.6308,-4.6308,-4.6308,-4.6308,-4.6308,-4.6308,-4.6308,-4.6308,-4.6308,-4.6308,-4.6308,-4.6308,-4.6308,-4.6308,-4.5709,-4.569,-4.5682,-4.5622,-4.5594,-4.5594,-4.5594,-4.494,-4.4066,-4.3278,-4.2989,-4.2604,-4.1739,-4.0989,-4.0496,-4.0496,-4.0496,-4.0496,-4.0496,-4.0496,-4.0496,-4.0496,-4.0496,-4.0496,-4.0496,-4.0496,-4.0397,-4.0148,-3.9932,-3.9687,-3.9433,-3.9219,-3.9101,-3.9101,-3.9788,-4.0193,-4.0193,-4.0977,-4.1386,-4.1386,-4.2203,-4.3002,-4.3782,-4.3782,-4.3875,-4.4005,-4.4005,-4.4005,-4.4005,-4.4005,-4.4005,-4.4048,-4.4585,-4.4788,-4.4861,-4.541,-4.5594,-4.5594,-4.5594,-4.5594,-4.5594,-4.5594,-4.5594,-4.5594,-4.5594,-4.5594,-4.5594,-4.5594,-4.5594,-4.5594,-4.5594,-4.5594,-4.5594,-4.5594,-4.5594,-4.5594,-4.5594,-4.5594,-4.5594,-4.5594,-4.5594,-4.5594,-4.5594,-4.5648,-4.5693,-4.5701,-4.5752,-4.5803,-4.5853,-4.5925,-4.6022,-4.6133,-4.6173,-4.6213,-4.6288,-4.6289,-4.6308,-4.6308,-4.6308,-4.6308,-4.6308,-4.6308,-4.6308,-4.6308,-4.6308,-4.6308,-4.6308,-4.6308,-4.6308,-4.6308,-4.6308,-4.6308,-4.5703,-4.57,-4.5676,-4.5612,-4.5594,-4.5594,-4.5594,-4.494,-4.4066,-4.3278,-4.2508,-4.172,-4.0843,-4.0573,-4.0496,-4.0496,-4.0496,-4.0496,-4.0496,-4.0496,-4.0496,-4.0496,-4.0496,-4.0496,-4.0496,-4.0496,-4.0319,-3.9882,-3.9819,-3.9606,-3.9178,-3.9129,-3.9101,-3.9101,-3.9212,-3.9268,-3.9268,-4.0123,-4.0564,-4.0568,-4.1367,-4.2184,-4.2965,-4.2965,-4.3336,-4.4005,-4.4005,-4.4005,-4.4005,-4.4005,-4.4005,-4.4048,-4.4585,-4.4788,-4.4861,-4.541,-4.5594,-4.5594,-4.5594,-4.5594,-4.5594,-4.5594,-4.5594,-4.5594,-4.5594,-4.5594,-4.5594,-4.5594,-4.5594,-4.5594,-4.5594,-4.5594,-4.5594,-4.5594,-4.5594,-4.5594,-4.5594,-4.5594,-4.5594,-4.5594,-4.5594,-4.5594,-4.5594,-4.5614,-4.5631,-4.5693,-4.5706,-4.5719,-4.5719,-4.5848,-4.5928,-4.5949,-4.6102,-4.6204,-4.6209,-4.6266,-4.6308,-4.6308,-4.6308,-4.6308,-4.6308,-4.6308,-4.6308,-4.6308,-4.6308,-4.6308,-4.6308,-4.6308,-4.6308,-4.6308,-4.6308,-4.6308,-4.5654,-4.5671,-4.5671,-4.5631,-4.5594,-4.5479,-4.4979,-4.422,-4.3393,-4.2547,-4.1681,-4.095,-4.0573,-4.0496,-4.0496,-4.0496,-4.0496,-4.0496,-4.0496,-4.0496,-4.0496,-4.0496,-4.0496,-4.0496,-4.0496,-4.0496,-4.0311,-3.984,-3.9808,-3.9595,-3.9129,-3.9101,-3.9101,-3.9101,-3.9101,-3.9101,-3.9101,-3.9472,-3.9918,-4.0416,-4.0754,-4.1349,-4.2129,-4.2593,-4.3243,-4.4005,-4.4005,-4.4005,-4.4005,-4.4005,-4.4005,-4.4048,-4.4585,-4.4788,-4.4861,-4.541,-4.5594,-4.5594,-4.5594,-4.5594,-4.5594,-4.5594,-4.5594,-4.5594,-4.5594,-4.5594,-4.5594,-4.5594,-4.5594,-4.5594,-4.5594,-4.5594,-4.5594,-4.5594,-4.5594,-4.5594,-4.5594,-4.5594,-4.5594,-4.5594,-4.5594,-4.5594,-4.5594,-4.5594,-4.5622,-4.564,-4.564,-4.5657,-4.5706,-4.5754,-4.5815,-4.5889,-4.5978,-4.6089,-4.6199,-4.6235,-4.6265,-4.6308,-4.6308,-4.6308,-4.6308,-4.6308,-4.6308,-4.6308,-4.6308,-4.6308,-4.6308,-4.6308,-4.6308,-4.6308,-4.6308,-4.6308,-4.5637,-4.5662,-4.5698,-4.5648,-4.5631,-4.5391,-4.4498,-4.3682,-4.2854,-4.1981,-4.1104,-4.0496,-4.0496,-4.0496,-4.0496,-4.0496,-4.0496,-4.0496,-4.0496,-4.0496,-4.0496,-4.0496,-4.0496,-4.0496,-4.0496,-4.0496,-4.0311,-3.984,-3.9808,-3.9595,-3.9129,-3.9101,-3.9101,-3.9101,-3.9101,-3.9101,-3.9101,-3.9101,-3.9435,-4.0067,-4.0067,-4.0494,-4.1311,-4.1924,-4.2742,-4.3708,-4.3912,-4.4005,-4.4005,-4.4005,-4.4005,-4.4048,-4.4585,-4.4788,-4.4861,-4.541,-4.5594,-4.5594,-4.5594,-4.5594,-4.5594,-4.5594,-4.5594,-4.5594,-4.5594,-4.5594,-4.5594,-4.5594,-4.5594,-4.5594,-4.5594,-4.5594,-4.5594,-4.5594,-4.5594,-4.5594,-4.5594,-4.5594,-4.5594,-4.5594,-4.5594,-4.5594,-4.5594,-4.5594,-4.5594,-4.5594,-4.5594,-4.5622,-4.5676,-4.5693,-4.5735,-4.5848,-4.5859,-4.5949,-4.6114,-4.6136,-4.6179,-4.6242,-4.6243,-4.6243,-4.6243,-4.6243,-4.6243,-4.6243,-4.6266,-4.6288,-4.6308,-4.6308,-4.6308,-4.6308,-4.6308,-4.6308,-4.5708,-4.575,-4.5785,-4.5717,-4.5693,-4.5453,-4.4506,-4.3682,-4.2854,-4.1981,-4.1104,-4.0496,-4.0496,-4.0496,-4.0496,-4.0496,-4.0496,-4.0496,-4.0496,-4.0496,-4.0496,-4.0496,-4.0496,-4.0496,-4.0496,-4.0496,-4.0311,-3.984,-3.9808,-3.9595,-3.9129,-3.9101,-3.9101,-3.9101,-3.9101,-3.9101,-3.9101,-3.9101,-3.912,-3.9175,-3.9175,-3.9621,-4.0471,-4.0494,-4.1367,-4.289,-4.367,-4.4005,-4.4005,-4.4005,-4.4005,-4.4048,-4.4585,-4.4788,-4.4861,-4.541,-4.5594,-4.5594,-4.5594,-4.5594,-4.5594,-4.5594,-4.5594,-4.5594,-4.5594,-4.5594,-4.5594,-4.5594,-4.5594,-4.5594,-4.5594,-4.5594,-4.5594,-4.5594,-4.5594,-4.5594,-4.5594,-4.5594,-4.5594,-4.5594,-4.5594,-4.5594,-4.5594,-4.5594,-4.5594,-4.5594,-4.5594,-4.5594,-4.5594,-4.5657,-4.5709,-4.5717,-4.5775,-4.5832,-4.5917,-4.5972,-4.6049,-4.6109,-4.6112,-4.6112,-4.6112,-4.6112,-4.6112,-4.6112,-4.6167,-4.6239,-4.6308,-4.6308,-4.6308,-4.6308,-4.6308,-4.6308,-4.5723,-4.5758,-4.5785,-4.5726,-4.5277,-4.4625,-4.3728,-4.2874,-4.2027,-4.1143,-4.0727,-4.0496,-4.0496,-4.0496,-4.0496,-4.0496,-4.0496,-4.0496,-4.0496,-4.0496,-4.0496,-4.0496,-4.0496,-4.0496,-4.0496,-4.0496,-4.0311,-3.984,-3.9808,-3.9595,-3.9129,-3.9101,-3.9101,-3.9101,-3.9101,-3.9101,-3.9101,-3.9101,-3.9101,-3.9101,-3.9101,-3.925,-3.9584,-4.0141,-4.0713,-4.133,-4.2649,-4.3522,-4.4005,-4.4005,-4.4005,-4.4051,-4.4402,-4.465,-4.4837,-4.5211,-4.5448,-4.5594,-4.5594,-4.5594,-4.5594,-4.5594,-4.5594,-4.5594,-4.5594,-4.5594,-4.5594,-4.5594,-4.5594,-4.5594,-4.5594,-4.5594,-4.5594,-4.5594,-4.5594,-4.5594,-4.5594,-4.5594,-4.5594,-4.5594,-4.5594,-4.5594,-4.5594,-4.5594,-4.5594,-4.5594,-4.5594,-4.5594,-4.5594,-4.5622,-4.5648,-4.5701,-4.5708,-4.5754,-4.584,-4.5908,-4.5954,-4.6037,-4.6075,-4.6098,-4.6098,-4.6098,-4.6122,-4.616,-4.6195,-4.6209,-4.6239,-4.6288,-4.6308,-4.6308,-4.6308,-4.6308,-4.5746,-4.5765,-4.5785,-4.5726,-4.5046,-4.4163,-4.3305,-4.2431,-4.1546,-4.0689,-4.0496,-4.0496,-4.0496,-4.0496,-4.0496,-4.0496,-4.0496,-4.0496,-4.0496,-4.0496,-4.0496,-4.0496,-4.0496,-4.04,-4.0131,-4.0342,-4.0196,-3.945,-3.9646,-3.9595,-3.9129,-3.9101,-3.9101,-3.9101,-3.9101,-3.9101,-3.9101,-3.9101,-3.9101,-3.9101,-3.9101,-3.9101,-3.9101,-3.9417,-3.9877,-4.0471,-4.1534,-4.2593,-4.3615,-4.3893,-4.4005,-4.4036,-4.4308,-4.4559,-4.4825,-4.5096,-4.5362,-4.5594,-4.5594,-4.5594,-4.5594,-4.5594,-4.5594,-4.5594,-4.5594,-4.5594,-4.5594,-4.5594,-4.5594,-4.5594,-4.5594,-4.5594,-4.5594,-4.5594,-4.5594,-4.5594,-4.5594,-4.5594,-4.5594,-4.5594,-4.5594,-4.5594,-4.5594,-4.5594,-4.5594,-4.5594,-4.5594,-4.5594,-4.5594,-4.5594,-4.5622,-4.5657,-4.5676,-4.5684,-4.5749,-4.5802,-4.5841,-4.5894,-4.5964,-4.6017,-4.6028,-4.6056,-4.6098,-4.616,-4.6197,-4.6202,-4.6202,-4.6267,-4.6308,-4.6308,-4.6308,-4.6308,0.0,0.0,0.0,-4.5687,-4.5007,-4.4124,-4.3267,-4.2393,-4.1527,-4.0669,-4.0496,-4.0496,-4.0496,-4.0496,-4.0496,-4.0496,-4.0496,-4.0496,-4.0496,-4.0496,-4.0496,-4.0496,-4.0496,-4.0189,-3.9419,-4.0008,-3.9938,-3.87,-3.9294,-3.9526,-3.9054,-3.9045,-3.9082,-3.9101,-3.9101,-3.9101,-3.9101,-3.9101,-3.9101,-3.9101,-3.9101,-3.9101,-3.9064,-3.8284,-3.8804,-4.0327,-4.0378,-4.1293,-4.2797,-4.3652,-4.4005,-4.4036,-4.4275,-4.4559,-4.4825,-4.5085,-4.5352,-4.5594,-4.5594,-4.5594,-4.5594,-4.5594,-4.5594,-4.5594,-4.5594,-4.5594,-4.5594,-4.5594,-4.5594,-4.5594,-4.5594,-4.5594,-4.5594,-4.5594,-4.5594,-4.5594,-4.5594,-4.5594,-4.5594,-4.5594,-4.5594,-4.5594,-4.5594,-4.5594,-4.5594,-4.5594,-4.5594,-4.5594,-4.5594,-4.5594,-4.5594,-4.5594,-4.5594,-4.5631,-4.5693,-4.5701,-4.5698,-4.57,-4.5765,-4.584,-4.5894,-4.5966,-4.6032,-4.6102,-4.6162,-4.6204,-4.6204,-4.6267,-4.6308,-4.6308,-4.6308,-4.6308,-4.5746,0.0,0.0,0.0,0.0,0.0,-4.2362,-4.1489,-4.0785,-4.0554,-4.0496,-4.0496,-4.0496,-4.0496,-4.0496,-4.0496,-4.0496,-4.0496,-4.0496,-4.0496,-4.0496,-4.0496,-4.0496,-4.0419,-4.0189,-3.9701,-3.9192,-3.8645,-3.8096,-3.765,-3.7381,-3.7912,-3.8488,-3.9082,-3.9101,-3.9101,-3.9101,-3.9101,-3.9101,-3.9101,-3.9101,-3.9101,-3.9082,-3.8859,-3.8692,-3.8655,-3.9877,-4.0657,-4.1219,-4.3188,-4.4005,-4.402,-4.4094,-4.4388,-4.48,-4.4872,-4.5201,-4.5594,-4.5594,-4.5594,-4.5594,-4.5594,-4.5594,-4.5594,-4.5594,-4.5594,-4.5594,-4.5594,-4.5594,-4.5594,-4.5594,-4.5594,-4.5594,-4.5594,-4.5594,-4.5594,-4.5594,-4.5594,-4.5594,-4.5594,-4.5594,-4.5594,-4.5594,-4.5594,-4.5594,-4.5594,-4.5594,-4.5594,-4.5594,-4.5594,-4.5594,-4.5594,-4.5594,-4.5614,-4.5631,-4.5665,-4.5709,-4.5698,-4.5812,-4.5886,-4.5904,-4.6013,-4.6103,-4.617,-4.6193,-4.6215,-4.6267,-4.6289,-4.6308,-4.6308,-4.6308,-4.6308,-4.5708,-4.5692,-4.5483,-4.4586,0.0,0.0,-4.1989,-4.1123,-4.0496,-4.0496,-4.0496,-4.0496,-4.0496,-4.0496,-4.0496,-4.0496,-4.0496,-4.0496,-4.0496,-4.0496,-4.0496,-4.0496,-4.0496,-4.0362,-4.0035,-3.9698,-3.9109,-3.8122,-3.7728,-3.7304,-3.6731,-3.7132,-3.7764,-3.8562,-3.8599,-3.8767,-3.9101,-3.9101,-3.9101,-3.9101,-3.9101,-3.9101,-3.9082,-3.8748,-3.8525,-3.8451,-3.9435,-4.0253,-4.1033,-4.2779,-4.3708,-4.4005,-4.4005,-4.4336,-4.4788,-4.4788,-4.5129,-4.5594,-4.5594,-4.5594,-4.5594,-4.5594,-4.5594,-4.5594,-4.5594,-4.5594,-4.5594,-4.5594,-4.5594,-4.5594,-4.5594,-4.5594,-4.5594,-4.5594,-4.5594,-4.5594,-4.5594,-4.5594,-4.5594,-4.5594,-4.5594,-4.5594,-4.5594,-4.5594,-4.5594,-4.5594,-4.5594,-4.5594,-4.5594,-4.5594,-4.5594,-4.5594,-4.5594,-4.5594,-4.5594,-4.564,-4.5657,-4.5657,-4.5765,-4.5827,-4.5867,-4.5993,-4.6061,-4.6063,-4.6138,-4.6183,-4.6219,-4.6267,-4.6308,-4.6307,-4.6307,-4.6307,-4.5698,-4.5613,-4.5327,-4.441,-4.3566,0.0,-4.1854,-4.1066,-4.0496,-4.0496,-4.0496,-4.0496,-4.0496,-4.0496,-4.0496,-4.0496,-4.0496,-4.0496,-4.0496,-4.0496,-4.0496,-4.0496,-4.0496,-4.0227,-3.9496,-3.9778,-3.9319,-3.7562,-3.777,-3.7579,-3.6619,-3.6569,-3.6941,-3.7745,-3.7838,-3.8228,-3.8952,-3.9064,-3.9101,-3.9101,-3.9101,-3.9101,-3.9082,-3.8358,-3.8377,-3.8971,-3.9064,-3.9955,-4.1386,-4.2296,-4.3188,-4.4005,-4.4005,-4.4336,-4.4788,-4.4788,-4.5129,-4.5594,-4.5594,-4.5594,-4.5594,-4.5594,-4.5594,-4.5594,-4.5594,-4.5594,-4.5594,-4.5594,-4.5594,-4.5594,-4.5594,-4.5594,-4.5594,-4.5594,-4.5594,-4.5594,-4.5594,-4.5594,-4.5594,-4.5594,-4.5594,-4.5594,-4.5594,-4.5594,-4.5594,-4.5594,-4.5594,-4.5594,-4.5594,-4.5594,-4.5594,-4.5594,-4.5594,-4.5594,-4.5594,-4.5594,-4.5594,-4.5594,-4.5673,-4.5731,-4.5809,-4.5924,-4.5957,-4.5894,-4.6011,-4.6078,-4.6078,-4.6209,-4.6262,-4.6301,-4.628,-4.6279,-4.5631,-4.5111,-4.4372,-4.3538,-4.2692,0.0,-4.095,-4.0631,-4.0496,-4.0496,-4.0496,-4.0496,-4.0496,-4.0496,-4.0496,-4.0496,-4.0496,-4.0496,-4.0496,-4.0496,-4.0496,-4.0496,-4.0496,-4.0439,-4.0285,-3.9441,-3.8752,-3.8369,-3.6918,-3.5963,-3.5751,-3.5733,-3.6105,-3.6922,-3.7559,-3.7968,-3.8135,-3.8785,-3.9101,-3.9101,-3.9101,-3.9101,-3.9082,-3.8934,-3.8599,-3.8172,-3.8822,-3.9287,-3.9695,-4.12,-4.2686,-4.4005,-4.4005,-4.4336,-4.4788,-4.4788,-4.5129,-4.5594,-4.5594,-4.5594,-4.5594,-4.5594,-4.5594,-4.5594,-4.5594,-4.5594,-4.5594,-4.5594,-4.5594,-4.5594,-4.5594,-4.5594,-4.5594,-4.5594,-4.5594,-4.5594,-4.5594,-4.5594,-4.5594,-4.5594,-4.5594,-4.5594,-4.5594,-4.5594,-4.5594,-4.5594,-4.5594,-4.5594,-4.5594,-4.5594,-4.5594,-4.5594,-4.5594,-4.5594,-4.5594,-4.5594,-4.5594,-4.5594,-4.5715,-4.5786,-4.5794,-4.5878,-4.591,-4.5891,-4.5927,-4.5935,-4.5938,-4.5979,-4.6089,-4.6301,-4.62,-4.6145,-4.4968,-4.4333,-4.3506,-4.2654,-4.2115,0.0,0.0,-4.0496,-4.0496,-4.0496,-4.0496,-4.0496,-4.0496,-4.0496,-4.0496,-4.0496,-4.0496,-4.0496,-4.0496,-4.0496,-4.0496,-4.0496,-4.0496,-4.0496,-4.0496,-3.984,-3.9133,-3.8493,-3.662,-3.551,-3.551,-3.5101,-3.525,-3.6086,-3.6495,-3.7076,-3.7894,-3.8302,-3.8692,-3.9101,-3.9101,-3.9101,-3.9101,-3.9101,-3.8878,-3.8525,-3.8915,-3.9342,-3.9844,-4.1089,-4.2314,-4.3448,-4.3838,-4.425,-4.4612,-4.4751,-4.5052,-4.5419,-4.5559,-4.5594,-4.5594,-4.5594,-4.5594,-4.5594,-4.5594,-4.5594,-4.5594,-4.5594,-4.5594,-4.5594,-4.5594,-4.5594,-4.5594,-4.5594,-4.5594,-4.5594,-4.5594,-4.5594,-4.5594,-4.5594,-4.5594,-4.5594,-4.5594,-4.5594,-4.5594,-4.5594,-4.5594,-4.5594,-4.5594,-4.5594,-4.5594,-4.5594,-4.5594,-4.5594,-4.5594,-4.5594,-4.5594,-4.5594,-4.566,-4.5708,-4.5708,-4.5796,-4.5858,-4.5858,-4.579,-4.579,-4.5858,-4.5783,-4.5875,-4.6105,-4.6029,-4.599,-4.4102,-4.3476,-4.2686,-4.1978,-4.1662,-4.1373,0.0,0.0,0.0,-4.0496,-4.0496,-4.0496,-4.0496,-4.0496,-4.0496,-4.0496,-4.0496,-4.0496,-4.0496,-4.0496,-4.0496,-4.0496,-4.0496,-4.0496,-4.0496,-4.0321,-3.964,-3.8326,-3.6858,-3.5889,-3.5529,-3.4841,-3.4711,-3.5231,-3.5417,-3.6197,-3.7652,-3.7819,-3.8302,-3.9101,-3.9101,-3.9101,-3.9101,-3.9101,-3.9101,-3.9101,-3.9101,-3.9491,-4.0215,-4.12,-4.198,-4.2649,-4.3633,-4.4147,-4.4443,-4.4637,-4.4938,-4.5232,-4.5438,-4.5559,-4.5594,-4.5594,-4.5594,-4.5594,-4.5594,-4.5594,-4.5594,-4.5594,-4.5594,-4.5594,-4.5594,-4.5594,-4.5594,-4.5594,-4.5594,-4.5594,-4.5594,-4.5594,-4.5594,-4.5594,-4.5594,-4.5594,-4.5594,-4.5594,-4.5594,-4.5594,-4.5594,-4.5594,-4.5594,-4.5594,-4.5594,-4.5594,-4.5594,-4.5594,-4.5594,-4.5594,-4.5594,-4.5594,-4.5594,-4.5594,-4.5594,-4.5688,-4.5764,-4.5764,-4.5671,-4.5643,-4.5764,-4.5643,-4.5696,-4.5899,-4.5897,-4.5886,-4.3437,-4.2601,-4.192,-4.1828,-4.1224,-4.0631,-4.0516,0.0,-4.0496,-4.0496,0.0,-4.0496,-4.0496,0.0,0.0,-4.0496,-4.0496,-4.0496,-4.0496,-4.0496,-4.0496,-4.0496,-4.0496,-4.0496,-4.0496,-4.0321,-3.9578,-3.8069,-3.7966,-3.7261,-3.5597,-3.5417,-3.5045,-3.4364,-3.5101,-3.5937,-3.6829,-3.7541,-3.8302,-3.9101,-3.9101,-3.9101,-3.9101,-3.9101,-3.9101,-3.9101,-3.9101,-3.9157,-3.9361,-4.094,-4.1646,-4.1887,-4.341,-4.4147,-4.4397,-4.4425,-4.4776,-4.5201,-4.5232,-4.541,-4.5594,-4.5594,-4.5594,-4.5594,-4.5594,-4.5594,-4.5594,-4.5594,-4.5594,-4.5594,-4.5594,-4.5594,-4.5594,-4.5594,-4.5594,-4.5594,-4.5594,-4.5594,-4.5594,-4.5594,-4.5594,-4.5594,-4.5594,-4.5594,-4.5594,-4.5594,-4.5594,-4.5594,-4.5594,-4.5594,-4.5594,-4.5594,-4.5594,-4.5594,-4.5594,-4.5594,-4.5594,-4.5594,-4.5594,-4.5594,-4.5594,-4.5612,-4.562,-4.562,-4.5603,-4.5603,-4.562,-4.5603,-4.5696,-4.5899,-4.5848,-4.5808,-4.2439,-4.1708,-4.1054,-4.1051,-4.0773,-4.0496,-4.0496,-4.0496,-4.0496,-4.0496,0.0,0.0,0.0,0.0,0.0,0.0,-4.0496,-4.0496,-4.0496,-4.0496,-4.0496,-4.0496,-4.0496,-4.0457,-4.0339,-4.0251,-3.9829,-3.8902,-3.8496,-3.7885,-3.6954,-3.6012,-3.5343,-3.4971,-3.4822,-3.5144,-3.6012,-3.6811,-3.7596,-3.8414,-3.8878,-3.9101,-3.9101,-3.9101,-3.9101,-3.9101,-3.9101,-3.9101,-3.9194,-4.0401,-4.1181,-4.1702,-4.2853,-4.3669,-4.4196,-4.4346,-4.4637,-4.4996,-4.5159,-4.539,-4.5594,-4.5594,-4.5594,-4.5594,-4.5594,-4.5594,-4.5594,-4.5594,-4.5594,-4.5594,-4.5594,-4.5594,-4.5594,-4.5594,-4.5594,-4.5594,-4.5594,-4.5594,-4.5594,-4.5594,-4.5594,-4.5594,-4.5594,-4.5594,-4.5594,-4.5594,-4.5594,-4.5594,-4.5594,-4.5594,-4.5594,-4.5594,-4.5594,-4.5594,-4.5594,-4.5594,-4.5594,-4.5594,-4.5594,-4.5594,-4.5594,-4.5594,-4.5594,-4.5594,-4.5594,-4.5594,-4.5594,-4.5594,-4.5632,-4.5725,-4.5696,-4.5684,-4.1508,-4.0969,-4.0496,-4.0496,-4.0496,-4.0496,-4.0496,-4.0496,-4.0496,-4.0496,-4.0496,0.0,0.0,0.0,-4.0496,-4.0496,0.0,-4.0496,-4.0496,-4.0496,-4.0496,-4.0496,-4.0457,-4.0339,-4.0101,-4.0148,-3.9972,-3.9421,-3.8975,-3.8464,-3.7939,-3.6792,-3.5956,-3.551,-3.4897,-3.486,-3.5491,-3.6309,-3.7108,-3.7912,-3.8711,-3.9101,-3.9101,-3.9101,-3.9101,-3.9101,-3.9101,-3.9101,-3.9175,-4.003,-4.075,-4.1367,-4.2389,-4.315,-4.372,-4.4146,-4.4452,-4.4726,-4.5007,-4.5312,-4.5594,-4.5594,-4.5594,-4.5594,-4.5594,-4.5594,-4.5594,-4.5594,-4.5594,-4.5594,-4.5594,-4.5594,-4.5594,-4.5594,-4.5594,-4.5594,-4.5594,-4.5594,-4.5594,-4.5594,-4.5594,-4.5594,-4.5594,-4.5594,-4.5594,-4.5594,-4.5594,-4.5594,-4.5594,-4.5594,-4.5594,-4.5594,-4.5594,-4.5594,-4.5594,-4.5594,-4.5594,-4.5594,-4.5594,-4.5594,-4.5594,-4.5594,-4.5594,-4.5594,-4.5594,-4.5594,-4.5594,-4.5594,-4.5594,-4.5594,-4.5594,-4.5594,-4.0766,-4.0516,-4.0496,-4.0496,-4.0496,-4.0496,-4.0496,-4.0496,-4.0496,-4.0496,-4.0496,-4.0496,-4.0496,-4.0496,-4.0496,-4.0496,-4.0496,0.0,0.0,-4.0496,-4.0496,-4.0496,-4.033,-4.011,-3.984,-4.0052,-3.9899,-3.9165,-3.9505,-3.9206,-3.7971,-3.7838,-3.7113,-3.5547,-3.5473,-3.5473,-3.551,-3.6309,-3.7108,-3.7912,-3.8711,-3.9101,-3.9101,-3.9101,-3.9101,-3.9101,-3.9101,-3.9101,-3.9175,-4.003,-4.042,-4.0587,-4.2184,-4.2816,-4.2927,-4.3723,-4.4177,-4.4452,-4.4714,-4.5169,-4.5594,-4.5594,-4.5594,-4.5594,-4.5594,-4.5594,-4.5594,-4.5594,-4.5594,-4.5594,-4.5594,-4.5594,-4.5594,-4.5594,-4.5594,-4.5594,-4.5594,-4.5594,-4.5594,-4.5594,-4.5594,-4.5594,-4.5594,-4.5594,-4.5594,-4.5594,-4.5594,-4.5594,-4.5594,-4.5594,-4.5594,-4.5594,-4.5594,-4.5594,-4.5594,-4.5594,-4.5594,-4.5594,-4.5594,-4.5594,-4.5594,-4.5594,-4.5594,-4.5594,-4.5594,-4.5594,-4.5594,-4.5594,-4.5594,-4.5594,-4.5594,-4.5594,0.0,-4.0496,-4.0496,-4.0496,-4.0496,-4.0496,-4.0496,-4.0496,-4.0496,-4.0496,-4.0496,-4.0496,-4.0496,-4.0496,-4.0496,-4.0496,-4.0496,-4.0496,0.0,-4.0496,-4.0496,-4.0496,-4.0449,-4.023,-3.984,-4.0042,-3.988,-3.917,-3.9421,-3.9339,-3.8738,-3.8191,-3.7652,-3.7113,-3.6067,-3.551,-3.551,-3.6309,-3.6835,-3.7113,-3.8451,-3.9101,-3.9101,-3.9101,-3.9101,-3.9101,-3.9101,-3.9101,-3.912,-3.9417,-3.9881,-4.0438,-4.0996,-4.185,-4.289,-4.3708,-4.4181,-4.4465,-4.4908,-4.5302,-4.5594,-4.5594,-4.5594,-4.5594,-4.5594,-4.5594,-4.5594,-4.5594,-4.5594,-4.5594,-4.5594,-4.5594,-4.5594,-4.5594,-4.5594,-4.5594,-4.5594,-4.5594,-4.5594,-4.5594,-4.5594,-4.5594,-4.5594,-4.5594,-4.5594,-4.5594,-4.5594,-4.5594,-4.5594,-4.5594,-4.5594,-4.5594,-4.5594,-4.5594,-4.5594,-4.5594,-4.5594,-4.5594,-4.5594,-4.5594,-4.5594,-4.5594,-4.5594,-4.5594,-4.5594,-4.5594,-4.5594,-4.5594,-4.5594,-4.5594,-4.5594,-4.5594,-4.0496,-4.0496,0.0,-4.0496,-4.0496,-4.0496,-4.0496,-4.0496,-4.0481,-4.0417,-4.0457,-4.0457,-4.0274,-4.0397,-4.0473,-4.0397,-4.0457,-4.0496,0.0,-4.0496,-4.0496,-4.0496,-4.0441,-4.025,-3.984,-3.9953,-3.9794,-3.9137,-3.935,-3.9389,-3.9115,-3.8599,-3.8191,-3.7912,-3.6904,-3.6086,-3.551,-3.6588,-3.6978,-3.6705,-3.8321,-3.9101,-3.9101,-3.9101,-3.9101,-3.9101,-3.9101,-3.9101,-3.9101,-3.9101,-3.9435,-3.9974,-4.0285,-4.12,-4.2463,-4.328,-4.3993,-4.4585,-4.4931,-4.5302,-4.5594,-4.5594,-4.5594,-4.5594,-4.5594,-4.5594,-4.5594,-4.5594,-4.5594,-4.5594,-4.5594,-4.5594,-4.5594,-4.5594,-4.5594,-4.5594,-4.5594,-4.5594,-4.5594,-4.5594,-4.5594,-4.5594,-4.5594,-4.5594,-4.5594,-4.5594,-4.5594,-4.5594,-4.5594,-4.5594,-4.5594,-4.5594,-4.5594,-4.5594,-4.5594,-4.5594,-4.5594,-4.5594,-4.5594,-4.5594,-4.5594,-4.5594,-4.5748,-4.6067,-4.5768,-4.5748,-4.6067,-4.5748,-4.5594,-4.5594,-4.5594,-4.5594]},{"header":{"parameterUnit":"m.s-1","parameterCategory":1,"la1":30.6,"la2":29.2853,"lo1":-89.7004,"lo2":-87.6739,"dy":0.0162,"dx":0.0183,"nx":112,"ny":82,"refTime":"2024-03-12T06:00:00:Z","depth":0,"parameterNumber":3,"parameterNumberName":"V-component_of_WINDS"},"data":[0.0,0.0,0.0,0.0,0.0,0.0,0.0,0.0,0.0,0.0,0.0,0.0,0.0,0.0,0.0,0.0,0.0,0.0,0.0,0.0,0.0,0.0,0.0,0.0,0.0,0.0,0.0,0.0,0.0,0.0,0.0,0.0,0.0,0.0,0.0,0.0,0.0,0.0,0.0,0.0,0.0,0.0,0.0,0.0,0.0,0.0,0.0,0.0,0.0,0.0,0.0,0.0,0.0,0.0,0.0,0.0,0.0,0.0,0.0,0.0,0.0,0.0,0.0,0.0,0.0,0.0,0.0,0.0,0.0,0.0,0.0,0.0,0.0,0.0,0.0,0.0,0.0,0.0,0.0,0.0,0.0,0.0,0.0,0.0,0.0,0.0,0.0,0.0,0.0,0.0,-0.2014,-0.1663,-0.2569,-0.3626,-0.4684,-0.5787,-0.6387,-0.6387,0.0,0.0,0.0,0.0,0.0,0.0,0.0,0.0,0.0,0.0,0.0,0.0,0.0,0.0,0.0,0.0,0.0,0.0,0.0,0.0,0.0,0.0,0.0,0.0,0.0,0.0,0.0,0.0,0.0,0.0,0.0,0.0,0.0,0.0,0.0,0.0,0.0,0.0,0.0,0.0,0.0,0.0,0.0,0.0,0.0,0.0,0.0,0.0,0.0,0.0,0.0,0.0,0.0,0.0,0.0,0.0,0.0,0.0,0.0,0.0,0.0,0.0,0.0,0.0,0.0,0.0,0.0,0.0,0.0,0.0,0.0,0.0,0.0,0.0,0.0,0.0,0.0,0.0,0.0,0.0,0.0,0.0,0.0,0.0,0.0,0.0,0.0,0.0,0.0,0.0,0.0,0.0,0.0,0.0,0.0,0.0,0.0,0.0,0.0,0.0,0.0,0.0,0.0,0.0,-0.267,-0.1714,-0.2569,-0.3626,-0.4684,-0.5787,-0.6387,-0.6387,0.0,0.0,0.0,0.0,0.0,0.0,0.0,0.0,0.0,0.0,0.0,0.0,0.0,0.0,0.0,0.0,0.0,0.0,0.0,0.0,0.0,0.0,0.0,0.0,0.0,0.0,0.0,0.0,0.0,0.0,0.0,0.0,0.0,0.0,0.0,0.0,0.0,0.0,0.0,0.0,0.0,0.0,0.0,0.0,0.0,0.0,0.0,0.0,0.0,0.0,0.0,0.0,0.0,0.0,0.0,0.0,0.0,0.0,0.0,0.0,0.0,0.0,0.0,0.0,0.0,0.0,0.0,0.0,0.0,0.0,0.0,0.0,0.0,0.0,0.0,0.0,0.0,0.0,0.0,0.0,0.0,0.0,0.0,0.0,0.0,0.0,0.0,0.0,0.0,0.0,0.0,0.0,0.0,0.0,0.0,0.0,0.0,0.0,0.0,0.0,0.0,0.0,0.0,-0.2116,-0.1261,-0.0807,-0.1714,-0.2771,-0.3827,-0.4933,-0.5787,-0.6384,-0.6387,0.0,0.0,0.0,0.0,0.0,0.0,0.0,0.0,0.0,0.0,0.0,0.0,0.0,0.0,0.0,0.0,0.0,0.0,0.0,0.0,0.0,0.0,0.0,0.0,0.0,0.0,0.0,0.0,0.0,0.0,0.0,0.0,0.0,0.0,0.0,0.0,0.0,0.0,0.0,0.0,0.0,0.0,0.0,0.0,0.0,0.0,0.0,0.0,0.0,0.0,0.0,0.0,0.0,0.0,0.0,0.0,0.0,0.0,0.0,0.0,0.0,0.0,0.0,0.0,0.0,0.0,0.0,0.0,0.0,0.0,0.0,0.0,0.0,0.0,0.0,0.0,0.0,0.0,0.0,0.0,0.0,0.0,0.0,0.0,0.0,0.0,0.0,0.0,0.0,0.0,0.0,0.0,0.0,0.0,0.0,0.0,0.0,0.0,0.0,0.0,0.0,0.0,-0.0656,0.0,0.0,-0.0958,-0.1915,-0.2771,-0.4029,-0.5135,-0.5984,-0.6237,0.0,0.0,0.0,0.0,0.0,0.0,0.0,0.0,0.0,0.0,0.0,0.0,0.0,0.0,0.0,0.0,0.0,0.0,0.0,0.0,0.0,0.0,0.0,0.0,0.0,0.0,0.0,0.0,0.0,0.0,0.0,0.0,0.0,0.0,0.0,0.0,0.0,0.0,0.0,0.0,0.0,0.0,0.0,0.0,0.0,0.0,0.0,0.0,0.0,0.0,0.0,0.0,0.0,0.0,0.0,0.0,0.0,0.0,0.0,0.0,0.0,0.0,0.0,0.0,0.0,0.0,0.0,0.0,0.0,0.0,0.0,0.0,0.0,0.0,0.0,0.0,0.0,0.0,0.0,0.0,0.0,0.0,0.0,0.0,0.0,0.0,0.0,0.0,0.0,0.0,0.0,0.0,0.0,0.0,0.0,0.0,0.0,0.0,0.0,0.0,0.0,0.0,-0.0656,0.0,0.0,-0.0958,-0.1613,-0.1714,-0.3626,-0.4834,-0.4885,-0.5837,0.0,0.0,0.0,0.0,0.0,0.0,0.0,0.0,0.0,0.0,0.0,0.0,0.0,0.0,0.0,0.0,0.0,0.0,0.0,0.0,0.0,0.0,0.0,0.0,0.0,0.0,0.0,0.0,0.0,0.0,0.0,0.0,0.0,0.0,0.0,0.0,0.0,0.0,0.0,0.0,0.0,0.0,0.0,0.0,0.0,0.0,0.0,0.0,0.0,0.0,0.0,0.0,0.0,0.0,0.0,0.0,0.0,0.0,0.0,0.0,0.0,0.0,0.0,0.0,0.0,0.0,0.0,0.0,0.0,0.0,0.0,0.0,0.0,0.0,0.0,0.0,0.0,0.0,0.0,0.0,0.0,0.0,0.0,0.0,0.0,0.0,0.0,0.0,0.0,0.0,0.0,0.0,0.0,0.0,0.0,0.0,0.0,0.0,0.0,0.0,0.0,0.0,-0.0656,0.0,0.0,-0.0353,-0.0858,-0.1563,-0.2318,-0.3374,-0.4734,0.0,0.0,0.0,0.0,0.0,0.0,0.0,0.0,0.0,0.0,0.0,0.0,0.0,0.0,0.0,0.0,0.0,0.0,0.0,0.0,0.0,0.0,0.0,0.0,0.0,0.0,0.0,0.0,0.0,0.0,0.0,0.0,0.0,0.0,0.0,0.0,0.0,0.0,0.0,0.0,0.0,0.0,0.0,0.0,0.0,0.0,0.0,0.0,0.0,0.0,0.0,0.0,0.0,0.0,0.0,0.0,0.0,0.0,0.0,0.0,0.0,0.0,0.0,0.0,0.0,0.0,0.0,0.0,0.0,0.0,0.0,0.0,0.0,0.0,0.0,0.0,0.0,0.0,0.0,0.0,0.0,0.0,0.0,0.0,0.0,0.0,0.0,0.0,0.0,0.0,0.0,0.0,0.0,0.0,0.0,0.0,0.0,0.0,0.0,0.0,0.0,0.0,-0.111,-0.0454,0.0,0.0,0.0,-0.0303,-0.1009,-0.1412,-0.2368,-0.418,0.0,0.0,0.0,0.0,0.0,0.0,0.0,0.0,0.0,0.0,0.0,0.0,0.0,0.0,0.0,0.0,0.0,0.0,0.0,0.0,0.0,0.0,0.0,0.0,0.0,0.0,0.0,0.0,0.0,0.0,0.0,0.0,0.0,0.0,0.0,0.0,0.0,0.0,0.0,0.0,0.0,0.0,0.0,0.0,0.0,0.0,0.0,0.0,0.0,0.0,0.0,0.0,0.0,0.0,0.0,0.0,0.0,0.0,0.0,0.0,0.0,0.0,0.0,0.0,0.0,0.0,0.0,0.0,0.0,0.0,0.0,0.0,0.0,0.0,0.0,0.0,0.0,0.0,0.0,0.0,0.0,0.0,0.0,0.0,0.0,0.0,0.0,0.0,0.0,0.0,0.0,0.0,0.0,0.0,0.0,0.0,0.0,0.0,0.0,0.0,0.0,0.0,0.0,0.0,0.0,0.0,0.0,0.0,0.0,-0.0958,-0.2016,0.0,0.0,0.0,0.0,0.0,0.0,0.0,0.0,0.0,0.0,0.0,0.0,0.0,0.0,0.0,0.0,0.0,0.0,0.0,0.0,0.0,0.0,0.0,0.0,0.0,0.0,0.0,0.0,0.0,0.0,0.0,0.0,0.0,0.0,0.0,0.0,0.0,0.0,0.0,0.0,0.0,0.0,0.0,0.0,0.0,0.0,0.0,0.0,0.0,0.0,0.0,0.0,0.0,0.0,0.0,0.0,0.0,0.0,0.0,0.0,0.0,0.0,0.0,0.0,0.0,0.0,0.0,0.0,0.0,0.0,0.0,0.0,0.0,0.0,0.0,0.0,0.0,0.0,0.0,0.0,0.0,0.0,0.0,0.0,0.0,0.0,0.0,0.0,0.0,0.0,0.0,0.0,0.0,0.0,0.0,0.0,0.0,0.0,0.0,0.0,0.0,0.0,0.0,0.0,0.0,0.0,0.0,0.0,0.0,0.0,-0.0303,-0.0908,-0.2016,0.0,0.0,0.0,0.0,0.0,0.0,0.0,0.0,0.0,0.0,0.0,0.0,0.0,0.0,0.0,0.0,0.0,0.0,0.0,0.0,0.0,0.0,0.0,0.0,0.0,0.0,0.0,0.0,0.0,0.0,0.0,0.0,0.0,0.0,0.0,0.0,0.0,0.0,0.0,0.0,0.0,0.0,0.0,0.0,0.0,0.0,0.0,0.0,0.0,0.0,0.0,0.0,0.0,0.0,0.0,0.0,0.0,0.0,0.0,0.0,0.0,0.0,0.0,0.0,0.0,0.0,0.0,0.0,0.0,0.0,0.0,0.0,0.0,0.0,0.0,0.0,0.0,0.0,0.0,0.0,0.0,0.0,0.0,0.0,0.0,0.0,0.0,0.0,0.0,0.0,0.0,0.0,0.0,0.0,0.0,0.0,0.0,0.0,0.0,0.0,0.0,0.0,0.0,0.0,0.0,0.0,0.0,0.0,0.0,0.0,-0.0454,-0.1513,0.0,0.0,0.0,0.0,0.0,0.0,0.0,0.0,0.0,0.0,0.0,0.0,0.0,0.0,0.0,0.0,0.0,0.0,0.0,0.0,0.0,0.0,0.0,0.0,0.0,0.0,0.0,0.0,0.0,0.0,0.0,0.0,0.0,0.0,0.0,0.0,0.0,0.0,0.0,0.0,0.0,0.0,0.0,0.0,0.0,0.0,0.0,0.0,0.0,0.0,0.0,0.0,0.0,0.0,0.0,0.0,0.0,0.0,0.0,0.0,0.0,0.0,0.0,0.0,0.0,0.0,0.0,0.0,0.0,0.0,0.0,0.0,0.0,0.0,0.0,0.0,0.0,0.0,0.0,0.0,0.0,0.0,0.0,0.0,0.0,0.0,0.0,0.0,0.0,0.0,0.0,0.0,0.0,0.0,0.0,0.0,0.0,0.0,0.0,0.0,0.0,0.0,0.0,0.0,0.0,0.0,0.0,0.0,0.0,0.0,-0.0402,-0.1405,0.0,0.0,0.0,0.0,0.0,0.0,0.0,0.0,0.0,0.0,0.0,0.0,0.0,0.0,0.0,0.0,0.0,0.0,0.0,0.0,0.0,0.0,0.0,0.0,0.0,0.0,0.0,0.0,0.0,0.0,0.0,0.0,0.0,0.0,0.0,0.0,0.0,0.0,0.0,0.0,0.0,0.0,0.0,0.0,0.0,0.0,0.0,0.0,0.0,0.0,0.0,0.0,0.0,0.0,0.0,0.0,0.0,0.0,0.0,0.0,0.3925,0.3073,0.0,0.0,0.0,0.0,0.0,0.0,0.0,0.0,0.0,0.0,0.0,0.0,0.0,0.0,0.0,0.0,0.0,0.0,0.0,0.0,0.0,0.0,0.0,0.0,0.0,0.0,0.0,0.0,0.0,0.0,0.0,0.0,0.0,0.0,0.0,0.0,0.0,0.0,0.0,0.0,0.0,0.0,0.0,0.0,0.0,0.0,0.0,0.0,-0.0097,-0.0338,-0.0338,0.0,0.0,0.0,0.0,0.0,0.0,0.0,0.0,0.0,0.0,0.0,0.0,0.0,0.0,0.0,0.0,0.0,0.0,0.0,0.0,0.0,0.0,0.0,0.0,0.0,0.0,0.0,0.0,0.0,0.0,0.0,0.0,0.0,0.0,0.0,0.0,0.0,0.0,0.0,0.0,0.0,0.0,0.0,0.0,0.0,0.0,0.0,0.0,0.0,0.0,0.0,0.0,0.0,0.0,0.0,0.0,0.0,0.0,0.0,0.5231,0.4429,0.0,0.0,0.0,0.0,0.0,0.0,0.0,0.0,0.0,0.0,0.0,0.0,0.0,0.0,0.0,0.0,0.0,0.0,0.0,0.0,0.0,0.0,0.0,0.0,0.0,0.0,0.0,0.0,0.0,0.0,0.0,0.0,0.0,0.0,0.0,0.0,0.0,0.0,0.0,0.0,0.0,0.0,0.0,0.0,0.0,0.0,0.0,0.0,0.0,0.0,0.0,0.0,0.0,0.0,0.0,0.0,0.0,0.0,0.0,0.0,0.0,0.0,0.0,0.0,0.0,0.0,0.0,0.0,0.0,0.0,0.0,0.0,0.0,0.0,0.0,0.0,0.0,0.0,0.0,0.0,0.0,0.0,0.0,0.0,0.0,0.0,0.0,0.0,0.0,0.0,0.0,0.0,0.0,0.0,0.0,0.0,0.0,0.0,0.0,0.0,0.0,0.0,0.0,0.0,0.6387,0.6387,0.6387,0.6387,0.6387,0.6387,0.6387,0.5884,0.5085,0.4885,0.0,0.0,0.0,0.0,0.0,0.0,0.0,0.0,0.0,0.0,0.0,0.0,0.0,0.0,0.0,0.0,0.0,0.0,0.0,0.0,0.0,0.0,0.1865,0.1865,0.1865,0.1613,0.0757,0.0,0.0,0.0,0.0,0.0,0.0,0.0,0.0,0.0,0.0,0.0,0.0,0.0,0.0,0.0,0.0,0.0,0.0,0.0,0.0,0.0,0.0,0.0,0.0,0.0,0.0,0.0,0.0,0.0,0.0,0.0,0.0,0.0,0.0,0.0,0.0,0.0,0.0,0.0,0.0,0.0,0.0,0.0,0.0,0.0,0.0,0.0,0.0,0.0,0.0,0.0,0.0,0.0,0.0,0.0,0.6387,0.6387,0.0,0.0,0.0,0.0,0.0,0.0,0.0,0.0,0.0,0.0,0.0,0.0,0.0,0.6387,0.6387,0.6387,0.6387,0.6387,0.6387,0.6387,0.6387,0.6387,0.6387,0.6387,0.6387,0.0,0.6137,0.5186,0.0,0.0,0.0,0.0,0.0,0.0,0.0,0.0,0.0,0.0,0.0,0.0,0.0,0.0,0.0,0.0,0.0,0.0,0.0,0.0,0.0,0.0,0.2972,0.2972,0.2972,0.2972,0.2821,0.1311,0.0,0.0,0.0,0.0,0.0,0.0,0.0,0.0,0.0,0.0,0.0,0.0,0.0,0.0,0.0,0.0,0.0,0.0,0.0,0.0,0.0,0.0,0.0,0.0,0.0,0.0,0.0,0.0,0.0,0.0,0.0,0.0,0.0,0.0,0.0,0.0,0.0,0.0,0.0,0.0,0.0,0.0,0.0,0.0,0.0,0.0,0.0,0.0,0.0,0.0,0.0,0.0,0.0,0.6387,0.6387,0.6387,0.6387,0.6387,0.0,0.0,0.0,0.0,0.0,0.0,0.0,0.0,0.0,0.6387,0.6387,0.6387,0.6387,0.6387,0.6387,0.6387,0.6387,0.6387,0.6387,0.6387,0.6387,0.6387,0.6387,0.6387,0.6384,0.5884,0.5687,0.5634,0.0,0.0,0.0,0.0,0.4979,0.4979,0.4979,0.4979,0.4979,0.4979,0.0,0.0,0.0,0.0,0.0,0.0,0.0,0.3324,0.3927,0.4079,0.4079,0.4079,0.4079,0.3927,0.3324,0.2398,0.1543,0.1007,0.04,0.0,0.0,0.0,0.0,0.0,0.0,0.0,0.0,0.0,0.0,0.0,0.0,0.0,0.0,0.0,0.0,0.0,0.0,0.0,0.0,0.0,0.0,0.0,0.0,0.0,0.0,0.0,0.0,0.0,0.0,0.0,0.0,0.0,0.0,0.0,0.0,0.0,0.0,0.0,0.0,0.0,0.0,0.0,0.0,0.0,0.0,0.0,0.0,0.0,0.0,0.6387,0.6387,0.6387,0.6387,0.6387,0.0,0.0,0.0,0.0,0.0,0.0,0.6387,0.6387,0.6387,0.6387,0.6387,0.6387,0.6387,0.6387,0.6387,0.6387,0.6387,0.6387,0.6387,0.6387,0.6387,0.6387,0.6387,0.6387,0.6387,0.6387,0.6387,0.6387,0.6387,0.6387,0.6387,0.6387,0.6387,0.6387,0.6387,0.6387,0.6387,0.6387,0.5837,0.5186,0.5186,0.0,0.0,0.0,0.0,0.4228,0.4983,0.5186,0.5186,0.5186,0.5216,0.4951,0.415,0.3693,0.3029,0.1845,0.0937,0.0292,0.0048,0.0,0.0,0.0,0.0,0.0,0.0,0.0,0.0,0.0,0.0,0.0,0.0,0.0,0.0,0.0,0.0,0.0,0.0,0.0,0.0,0.0,0.0,0.0,0.0,0.0,0.0,0.0,0.0,0.0,0.0,0.0,0.0,0.0,0.0,0.0,0.0,0.0,0.0,0.0,0.0,0.0,0.0,0.0,0.0,0.0,0.0,0.0,0.0,0.0,0.0,0.6387,0.6387,0.0,0.0,0.0,0.0,0.6387,0.6387,0.6387,0.6387,0.6387,0.6387,0.6387,0.6387,0.6387,0.6387,0.6387,0.6387,0.6387,0.6387,0.6387,0.6387,0.6387,0.6387,0.6387,0.6387,0.6387,0.6387,0.6387,0.6387,0.6387,0.6387,0.6387,0.6387,0.6387,0.6387,0.6387,0.6387,0.6387,0.6387,0.6387,0.6384,0.6337,0.6337,0.6284,0.0,0.0,0.6237,0.6234,0.6287,0.6337,0.6337,0.6337,0.6257,0.6228,0.6179,0.5261,0.3878,0.1954,0.1449,0.1042,0.014,0.0,0.0,0.0,0.0,0.0,0.0,0.0,0.0,0.0,0.0,0.0,0.0,0.0,0.0,0.0,0.0,0.0,0.0,0.0,0.0,0.0,0.0,0.0,0.0,0.0,0.0,0.0,0.0,0.0,0.0,0.0,0.0,0.0,0.0,0.0,0.0,0.0,0.0,0.0,0.0,0.0,0.0,0.0,0.0,0.0,0.0,0.0,0.0,0.0,0.0,0.6387,0.6387,0.0,0.6387,0.6387,0.6387,0.6387,0.6387,0.6387,0.6387,0.6387,0.6387,0.6387,0.6387,0.6387,0.6387,0.6387,0.6387,0.6387,0.6387,0.6387,0.6387,0.6387,0.6387,0.6387,0.6387,0.6387,0.6387,0.6387,0.6387,0.6387,0.6387,0.6387,0.6387,0.6387,0.6387,0.6387,0.6387,0.6387,0.6387,0.6387,0.6387,0.6387,0.6387,0.6387,0.6387,0.6387,0.6387,0.6387,0.6387,0.6387,0.6368,0.6344,0.6298,0.6295,0.6168,0.5296,0.4109,0.2776,0.2437,0.2047,0.1064,0.0914,0.0679,0.009,0.0,0.0,0.0,0.0,0.0,0.0,0.0,0.0,0.0,0.0,0.0,0.0,0.0,0.0,0.0,0.0,0.0,0.0,0.0,0.0,0.0,0.0,0.0,0.0,0.0,0.0,0.0,0.0,0.0,0.0,0.0,0.0,0.0,0.0,0.0,0.0,0.0,0.0,0.0,0.0,0.0,0.0,0.0,0.0,0.0,0.6387,0.6387,0.6387,0.6387,0.6387,0.6387,0.6387,0.6387,0.6387,0.6387,0.6387,0.6387,0.6387,0.6387,0.6387,0.6387,0.6387,0.6387,0.6387,0.6387,0.6387,0.6387,0.6387,0.6387,0.6387,0.6387,0.6387,0.6387,0.6387,0.6387,0.6387,0.6387,0.6387,0.6387,0.6387,0.6387,0.6387,0.6387,0.6387,0.6387,0.6387,0.6387,0.6387,0.6387,0.6387,0.6387,0.6387,0.6387,0.6387,0.6387,0.6379,0.6391,0.638,0.635,0.6236,0.6176,0.6121,0.6043,0.5419,0.4611,0.3607,0.2877,0.2101,0.1098,0.0905,0.0718,0.009,0.0,0.0,0.0,0.0,0.0,0.0,0.0,0.0,0.0,0.0,0.0,0.0,0.0,0.0,0.0,0.0,0.0,0.0,0.0,0.0,0.0,0.0,0.0,0.0,0.0,0.0,0.0,0.0,0.0,0.0,0.0,0.0,0.0,0.0,0.0,0.0,0.0,0.0,0.0,0.0,0.0,0.0,0.0,0.0,0.6387,0.6387,0.6387,0.6387,0.6387,0.6387,0.6387,0.6387,0.6387,0.6387,0.6387,0.6387,0.6387,0.6387,0.6387,0.6387,0.6387,0.6387,0.6387,0.6387,0.6387,0.6387,0.6387,0.6387,0.6387,0.6387,0.6387,0.6387,0.6387,0.6387,0.6387,0.6387,0.6387,0.6387,0.6387,0.6387,0.6387,0.6387,0.6387,0.6387,0.6387,0.6387,0.6387,0.6387,0.6387,0.6387,0.6387,0.6387,0.6387,0.6387,0.6384,0.6404,0.6295,0.6314,0.6281,0.6111,0.5988,0.5901,0.5899,0.5766,0.5374,0.4478,0.2732,0.1122,0.018,0.0045,0.0045,0.0,0.0,0.0,0.0,0.0,0.0,0.0,0.0,0.0,0.0,0.0,0.0,0.0,0.0,0.0,0.0,0.0,0.0,0.0,0.0,0.0,0.0,0.0,0.0,0.0,0.0,0.0,0.0,0.0,0.0,0.0,0.0,0.0,0.0,0.0,0.0,0.0,0.0,0.0,0.0,0.0,0.0,0.0,0.6387,0.6387,0.6387,0.6387,0.6387,0.6387,0.6387,0.6387,0.6387,0.6387,0.6387,0.6387,0.6387,0.6387,0.6387,0.6387,0.6387,0.6387,0.6387,0.6387,0.6387,0.6387,0.6387,0.6387,0.6387,0.6387,0.6387,0.6387,0.6387,0.6387,0.6387,0.6387,0.6387,0.6387,0.6387,0.6387,0.6387,0.6387,0.6387,0.6387,0.6387,0.6387,0.6387,0.6387,0.6387,0.6387,0.6387,0.6387,0.6387,0.6387,0.6387,0.6387,0.6377,0.6309,0.6325,0.6251,0.6105,0.5983,0.5926,0.588,0.5798,0.5168,0.4612,0.4344,0.2732,0.1301,0.1077,0.1032,0.0763,0.009,0.0,0.0,0.0,0.0,0.0,0.0,0.0,0.0,0.0,0.0,0.0,0.0,0.0,0.0,0.0,0.0,0.0,0.0,0.0,0.0,0.0,0.0,0.0,0.0,0.0,0.0,0.0,0.0,0.0,0.0,0.0,0.0,0.0,0.0,0.0,0.0,0.0,0.0,0.0,0.0,0.0,0.0,0.6387,0.6387,0.6387,0.6387,0.6387,0.6387,0.6387,0.6387,0.6387,0.6387,0.6387,0.6387,0.6387,0.6387,0.6387,0.6387,0.6387,0.6387,0.6387,0.6387,0.6387,0.6387,0.6387,0.6387,0.6387,0.6387,0.6387,0.6387,0.6387,0.6387,0.6387,0.6387,0.6387,0.6387,0.6387,0.6387,0.0,0.0,0.0,0.0,0.6387,0.6387,0.6387,0.6387,0.6387,0.6387,0.6387,0.6387,0.6387,0.6401,0.6366,0.6366,0.6282,0.6181,0.613,0.6064,0.5977,0.586,0.5833,0.5814,0.5702,0.5285,0.4792,0.4389,0.3092,0.0,0.148,0.1077,0.0629,0.009,0.0,0.0,0.0,0.0,0.0,0.0,0.0,0.0,0.0,0.0,0.0,0.0,0.0,0.0,0.0,0.0,0.0,0.0,0.0,0.0,0.0,0.0,0.0,0.0,0.0,0.0,0.0,0.0,0.0,0.0,0.0,0.0,0.0,0.0,0.0,0.0,0.0,0.0,0.0,0.0,0.0,0.0,0.6387,0.6387,0.6387,0.6387,0.6387,0.6387,0.6387,0.6387,0.6387,0.6387,0.6387,0.6387,0.6387,0.6387,0.6387,0.6387,0.0,0.0,0.0,0.6387,0.6387,0.6387,0.6387,0.6387,0.6387,0.6387,0.6387,0.6387,0.6387,0.6387,0.6387,0.6387,0.6387,0.6387,0.6387,0.6387,0.6387,0.6387,0.6387,0.6387,0.6387,0.6387,0.6387,0.0,0.0,0.6387,0.6387,0.6384,0.6371,0.6347,0.6314,0.63,0.6159,0.604,0.5931,0.5893,0.5858,0.5712,0.5688,0.5688,0.5688,0.5688,0.5419,0.4478,0.3537,0.2598,0.1569,0.0629,0.0,0.0,0.0,0.0,0.0,0.0,0.0,0.0,0.0,0.0,0.0,0.0,0.0,0.0,0.0,0.0,0.0,0.0,0.0,0.0,0.0,0.0,0.0,0.0,0.0,0.0,0.0,0.0,0.0,0.0,0.0,0.0,0.0,0.0,0.0,0.0,0.0,0.0,0.0,0.0,0.0,0.0,0.0,0.6387,0.6387,0.6387,0.6387,0.6387,0.6387,0.6387,0.6387,0.6387,0.6387,0.6387,0.6387,0.6387,0.6387,0.6387,0.6387,0.6387,0.6387,0.6387,0.6387,0.6387,0.6387,0.6387,0.6387,0.6387,0.6387,0.0,0.6387,0.6387,0.6387,0.6387,0.6387,0.6387,0.6387,0.6387,0.6387,0.6387,0.6387,0.6387,0.6387,0.6387,0.6387,0.6387,0.6387,0.6387,0.6387,0.6387,0.6387,0.6371,0.6328,0.6333,0.0,0.6149,0.6032,0.5931,0.5909,0.5836,0.5715,0.5694,0.5688,0.5688,0.5688,0.5688,0.5419,0.4478,0.3537,0.2598,0.1569,0.0629,0.0,0.0,0.0,0.0,0.0,0.0,0.0,0.0,0.0,0.0,0.0,0.0,0.0,0.0,0.0,0.0,0.0,0.0,0.0,0.0,0.0,0.0,0.0,0.0,0.0,0.0,0.0,0.0,0.0,0.0,0.0,0.0,0.0,0.0,0.0,0.0,0.0,0.0,0.0,0.6387,0.6387,0.0,0.6387,0.6387,0.6387,0.6387,0.6387,0.6387,0.6387,0.6387,0.6387,0.6387,0.6387,0.6387,0.6387,0.6387,0.6387,0.6387,0.6387,0.6387,0.6387,0.6387,0.6387,0.6387,0.6387,0.6387,0.6387,0.6387,0.6387,0.6387,0.6387,0.6387,0.6387,0.6387,0.6387,0.6387,0.6387,0.6387,0.6387,0.6387,0.6387,0.6387,0.6387,0.6387,0.6387,0.6387,0.6387,0.6387,0.6387,0.6387,0.6399,0.6342,0.6333,0.6184,0.6072,0.601,0.5909,0.5817,0.5817,0.5731,0.5688,0.5688,0.5688,0.5688,0.5688,0.5688,0.5419,0.4478,0.3537,0.2598,0.1569,0.0629,0.0,0.0,0.0,0.0,0.0,0.0,0.0,0.0,0.0,0.0,0.0,0.0,0.0,0.0,0.0,0.0,0.0,0.0,0.0,0.0,0.0,0.0,0.0,0.0,0.0,0.0,0.0,0.0,0.0,0.0,0.0,0.0,0.0,0.0,0.0,0.4985,0.5336,0.6237,0.6387,0.6387,0.6387,0.6387,0.6387,0.6387,0.6387,0.6387,0.6387,0.6387,0.6387,0.6387,0.6387,0.6387,0.6387,0.6387,0.6387,0.6387,0.6387,0.6387,0.6387,0.6387,0.6387,0.6387,0.6387,0.6387,0.6387,0.6387,0.6387,0.6387,0.6387,0.6387,0.6387,0.6387,0.6387,0.6387,0.6387,0.6387,0.6387,0.6387,0.6387,0.6387,0.6387,0.6387,0.6387,0.6387,0.6387,0.6387,0.6387,0.6387,0.6387,0.6387,0.6374,0.6293,0.6295,0.6094,0.5928,0.5882,0.5803,0.5688,0.5688,0.5688,0.5688,0.5688,0.5688,0.5688,0.5688,0.5555,0.5151,0.421,0.3269,0.2286,0.1301,0.0494,0.0,0.0,0.0,0.0,0.0,0.0,0.0,0.0,0.0,0.0,0.0,0.0,0.0,0.0,0.0,0.0,0.0,0.0,0.0,0.0,0.0,0.0,0.0,0.0,0.0,0.0,0.0,0.0,0.0,0.0707,0.1462,0.1563,0.3123,0.4634,0.0,0.5536,0.6237,0.6387,0.6387,0.6387,0.6387,0.6387,0.6387,0.6387,0.6387,0.6387,0.6387,0.6387,0.6387,0.6387,0.6387,0.6387,0.6387,0.6387,0.6387,0.6387,0.6387,0.6387,0.6387,0.6387,0.6387,0.6387,0.6387,0.6387,0.6387,0.6387,0.6387,0.6387,0.6387,0.6387,0.6387,0.6387,0.6387,0.6387,0.6387,0.6387,0.6387,0.6387,0.6387,0.6387,0.6387,0.6387,0.6387,0.6387,0.6387,0.6387,0.6387,0.6387,0.6387,0.6387,0.6379,0.638,0.617,0.6086,0.6021,0.5812,0.5699,0.5688,0.5688,0.5688,0.5688,0.5688,0.5688,0.5688,0.5688,0.506,0.4164,0.3226,0.224,0.1256,0.0314,0.009,0.0,0.0,0.0,0.0,0.0,0.0,0.0,0.0,0.0,0.0,0.0,0.0,0.0,0.0,0.0,0.0,0.0,0.0,0.0,0.0,0.0,0.0,0.0,0.0,0.0,0.0,0.0,0.0,0.0,0.0303,0.0656,0.0656,0.1361,0.2318,0.3575,0.4228,0.4878,0.6134,0.6387,0.6387,0.6387,0.6387,0.6387,0.6387,0.6387,0.6387,0.6387,0.6387,0.6387,0.6387,0.6387,0.6387,0.6387,0.6387,0.6387,0.6387,0.6387,0.6387,0.6387,0.6387,0.6387,0.6387,0.6387,0.6387,0.6387,0.6387,0.6387,0.6387,0.6387,0.6387,0.6387,0.6387,0.6387,0.6387,0.6387,0.6387,0.6387,0.6387,0.6387,0.6387,0.6387,0.6387,0.6387,0.6387,0.6387,0.6387,0.6387,0.6387,0.6387,0.6387,0.6391,0.632,0.6222,0.6092,0.5958,0.586,0.5739,0.5688,0.5688,0.5688,0.5688,0.5688,0.5688,0.5688,0.5688,0.5374,0.4656,0.3181,0.2553,0.1793,0.0269,0.0,0.0,0.0,0.0,0.0,0.0,0.0,0.0,0.0,0.0,0.0,0.0,0.0,0.0,0.0,0.0,0.0,0.0,0.0,0.0,0.0,0.0,0.0,0.0,0.0,0.0,0.0,0.0,0.0,0.0,0.0,0.0,0.0,0.0202,0.0858,0.2418,0.3224,0.4078,0.5634,0.6187,0.6387,0.6387,0.6387,0.6387,0.6387,0.6387,0.6387,0.6387,0.6387,0.6387,0.6387,0.6387,0.6387,0.6387,0.6387,0.6387,0.6387,0.6387,0.6387,0.6387,0.6387,0.6387,0.6387,0.6387,0.6387,0.6387,0.6387,0.6387,0.6387,0.6387,0.6387,0.6387,0.6387,0.6387,0.6387,0.6387,0.6387,0.6387,0.6387,0.6387,0.6387,0.6387,0.6387,0.6387,0.6387,0.6387,0.6387,0.6387,0.6387,0.6387,0.6387,0.6382,0.6309,0.6328,0.6121,0.5947,0.5912,0.582,0.5688,0.5688,0.5688,0.5688,0.5688,0.5688,0.5688,0.5688,0.5285,0.4523,0.3179,0.2465,0.166,0.0225,0.0,0.0,0.0,0.0,0.0,0.0,0.0,0.0,0.0,0.0,0.0,0.0,0.0,0.0,0.0,0.0,0.0,0.0,0.0,0.0,0.0,0.0,0.0,0.0,0.0,0.0,0.0,0.0,0.0,0.0,0.0,0.0,0.0,0.0757,0.1563,0.1613,0.3274,0.4784,0.4834,0.5684,0.6387,0.6387,0.6387,0.6387,0.6387,0.6387,0.6387,0.6387,0.6387,0.6387,0.6387,0.6387,0.6387,0.6387,0.6387,0.6387,0.6387,0.6387,0.6387,0.6387,0.6387,0.6387,0.6387,0.6387,0.6387,0.6387,0.6387,0.6387,0.6387,0.6387,0.6387,0.6387,0.6387,0.6387,0.6387,0.6387,0.6387,0.6387,0.6387,0.6387,0.6387,0.6387,0.6387,0.6387,0.6387,0.6387,0.6387,0.6387,0.6387,0.6387,0.6387,0.6384,0.6363,0.6301,0.6181,0.6053,0.5937,0.582,0.5688,0.5688,0.5688,0.5688,0.5688,0.5688,0.5688,0.5688,0.4253,0.2957,0.2911,0.1391,0.009,0.0,0.0,0.0,0.0,0.0,0.0,0.0,0.0,0.0,0.0,0.0,0.0,0.0,0.0,0.0,0.0,0.0,0.0,0.0,0.0,0.0,0.0,0.0,0.0,0.0,0.0,0.0,0.0,0.0,0.0,0.0,0.0,0.0,0.0,0.0252,0.0706,0.1462,0.2167,0.3073,0.4481,0.5085,0.5536,0.6287,0.6387,0.6387,0.6387,0.6387,0.6387,0.6387,0.6387,0.6387,0.6387,0.6387,0.6387,0.6387,0.6387,0.6387,0.6387,0.6387,0.6387,0.6387,0.6387,0.6387,0.6387,0.6387,0.6387,0.6387,0.6387,0.6387,0.6387,0.6387,0.6387,0.6387,0.6387,0.6387,0.6387,0.6387,0.6387,0.6387,0.6387,0.6387,0.6387,0.6387,0.6387,0.6387,0.6387,0.6387,0.6387,0.6387,0.6387,0.6387,0.6387,0.6387,0.6379,0.6391,0.6298,0.6181,0.6059,0.5937,0.5828,0.571,0.5688,0.5688,0.5688,0.5688,0.551,0.4926,0.4253,0.3449,0.2152,0.1928,0.1704,0.1032,0.0926,0.0732,0.0084,0.0,0.0,0.0,0.0,0.0,0.0,0.0,0.0,0.0,0.0,0.0,0.0,0.0,0.0,0.0,0.0,0.0,0.0,0.0,0.0,0.0,0.0,0.0,0.0,0.0,0.0,0.0,0.0,0.0,0.0,0.0,0.0202,0.0858,0.1311,0.1966,0.3374,0.428,0.5035,0.5687,0.6134,0.6387,0.6387,0.6387,0.6387,0.6387,0.6387,0.6387,0.6387,0.6387,0.6387,0.6387,0.6387,0.6387,0.6387,0.6387,0.6387,0.6387,0.6387,0.6387,0.6387,0.6387,0.6387,0.6387,0.6387,0.6387,0.6387,0.6387,0.6387,0.6387,0.6387,0.6387,0.6387,0.6387,0.6387,0.6387,0.6387,0.6387,0.6387,0.6387,0.6387,0.6387,0.6387,0.6387,0.6387,0.6387,0.6387,0.6387,0.6387,0.6387,0.6387,0.6387,0.6358,0.63,0.6173,0.6032,0.5885,0.5812,0.5721,0.5688,0.5688,0.5688,0.5555,0.4926,0.4253,0.3537,0.2598,0.2374,0.2152,0.1524,0.1102,0.0685,0.0082,0.0,0.0,0.0,0.0,0.0,0.0,0.0,0.0,0.0,0.0,0.0,0.0,0.0,0.0,0.0,0.0,0.0,0.0,0.0,0.0,0.0,0.0,0.0,0.0,0.0,0.0,0.0,0.0,0.0,0.0,0.0,0.0,0.0,0.0807,0.1513,0.1613,0.3274,0.4734,0.4784,0.5684,0.6387,0.6387,0.6387,0.6387,0.6387,0.6387,0.6387,0.6387,0.6387,0.6387,0.6387,0.6387,0.6387,0.6387,0.6387,0.6387,0.6387,0.6387,0.6387,0.6387,0.6387,0.6387,0.6387,0.6387,0.6387,0.6387,0.6387,0.6387,0.6387,0.6387,0.6387,0.6387,0.6387,0.6387,0.6387,0.6387,0.6387,0.6387,0.6387,0.6387,0.6387,0.6387,0.6387,0.6387,0.6387,0.6387,0.6387,0.6387,0.6387,0.6387,0.6387,0.6363,0.6325,0.632,0.6097,0.5912,0.5904,0.5817,0.5688,0.5688,0.5688,0.5688,0.5644,0.421,0.3226,0.4074,0.2778,0.1524,0.1478,0.0749,0.0129,0.0,0.0,0.0,0.0,0.0,0.0,0.0,0.0,0.0,0.0,0.0,0.0,0.0,0.0,0.0,0.0,0.0,0.0,0.0,0.0,0.0,0.0,0.0,0.0,0.0,0.0,0.0,0.0,0.0,0.0,0.0,0.0,0.0,0.0,0.0202,0.0656,0.1412,0.267,0.3828,0.4634,0.5684,0.6387,0.6387,0.6387,0.6387,0.6387,0.6387,0.6387,0.6387,0.6387,0.6387,0.6387,0.6387,0.6387,0.6387,0.6387,0.6387,0.6387,0.6387,0.6387,0.6387,0.6387,0.6387,0.6387,0.6387,0.6387,0.6387,0.6387,0.6387,0.6387,0.6387,0.6387,0.6387,0.6387,0.6387,0.6387,0.6387,0.6387,0.6387,0.6387,0.6387,0.6387,0.6387,0.6387,0.6387,0.6387,0.6387,0.6387,0.6387,0.6387,0.6387,0.6387,0.6368,0.6377,0.6293,0.6157,0.6018,0.5926,0.5817,0.5688,0.5688,0.5688,0.5508,0.479,0.43,0.3807,0.336,0.3403,0.3342,0.2633,0.2309,0.1678,0.021,0.0,0.0,0.0,0.0,0.0,0.0,0.0,0.0,0.0,0.0,0.0,0.0,0.0,0.0,0.0,0.0,0.0,0.0,0.0,0.0,0.0,0.0,0.0,0.0,0.0,0.0,0.0,0.0,0.0,0.0,0.0,0.0,0.0,0.0,0.0151,0.0757,0.1765,0.2821,0.3879,0.4983,0.5837,0.6337,0.6387,0.6387,0.6387,0.6387,0.6387,0.6387,0.6387,0.6387,0.6387,0.6387,0.6387,0.6387,0.6387,0.6387,0.6387,0.6387,0.6387,0.6387,0.6387,0.6387,0.6387,0.6387,0.6387,0.6387,0.6387,0.6387,0.6387,0.6387,0.6387,0.6387,0.6387,0.6387,0.6387,0.6387,0.6387,0.6387,0.6387,0.6387,0.6387,0.6387,0.6387,0.6387,0.6387,0.6387,0.6387,0.6387,0.6387,0.6387,0.6387,0.6387,0.6373,0.6361,0.6257,0.6138,0.6015,0.5896,0.5795,0.5699,0.5688,0.5555,0.5015,0.4612,0.4164,0.3628,0.3628,0.3525,0.2999,0.2201,0.1269,0.0171,0.0,0.0,0.0,0.0,0.0,0.0,0.0,0.0,0.0,0.0,0.0,0.0,0.0,0.0,0.0,0.0,0.0,0.0,0.0,0.0,0.0,0.0,0.0,0.0,0.0,0.0,0.0,0.0,0.0,0.0,0.0,0.0,0.0,0.0,0.0,0.0,0.0958,0.2116,0.3022,0.4178,0.5336,0.6237,0.6387,0.6387,0.6387,0.6387,0.6387,0.6387,0.6387,0.6387,0.6387,0.6387,0.6387,0.6387,0.6387,0.6387,0.6387,0.6387,0.6387,0.6387,0.6387,0.6387,0.6387,0.6387,0.6387,0.6387,0.6387,0.6387,0.6387,0.6387,0.6387,0.6387,0.6387,0.6387,0.6387,0.6387,0.6387,0.6387,0.6387,0.6387,0.6387,0.6387,0.6387,0.6387,0.6387,0.6387,0.6387,0.6387,0.6387,0.6387,0.6387,0.6387,0.6387,0.6387,0.6355,0.6292,0.6138,0.6007,0.5877,0.5734,0.5699,0.5688,0.5688,0.5062,0.4478,0.4478,0.3807,0.3181,0.2957,0.148,0.0312,0.0044,0.0,0.0,0.0,0.0,0.0,0.0,0.0,0.0,0.0,0.0,0.0,0.0,0.0,0.0,0.0,0.0,0.0,0.0,0.0,0.0,0.0,0.0,0.0,0.0,0.0,0.0,0.0,0.0,0.0,0.0,0.0,0.0,0.0,0.0,0.0,0.0,0.1563,0.2972,0.3173,0.4778,0.6187,0.6387,0.6387,0.6387,0.6387,0.6387,0.6387,0.6387,0.6387,0.6387,0.6387,0.6387,0.6387,0.6387,0.6387,0.6387,0.6387,0.6387,0.6387,0.6387,0.6387,0.6387,0.6387,0.6387,0.6387,0.6387,0.6387,0.6387,0.6387,0.6387,0.6387,0.6387,0.6387,0.6387,0.6387,0.6387,0.6387,0.6387,0.6387,0.6387,0.6387,0.6387,0.6387,0.6387,0.6387,0.6387,0.6387,0.6387,0.6387,0.6387,0.6387,0.6387,0.6387,0.6387,0.6355,0.6314,0.6289,0.607,0.5896,0.588,0.5801,0.5688,0.5688,0.5555,0.5466,0.5466,0.5329,0.4701,0.3179,0.2599,0.1836,0.0223,0.0,0.0,0.0,0.0,0.0,0.0,0.0,0.0,0.0,0.0,0.0,0.0,0.0,0.0,0.0,0.0,0.0,0.0,0.0,0.0,0.0,0.0,0.0,0.0,0.0,0.0,0.0,0.0,0.0,0.0,0.0,0.0,0.0,0.0,0.0,0.0,0.1261,0.2569,0.3271,0.4726,0.5934,0.6539,0.6739,0.6736,0.6437,0.6539,0.6539,0.6437,0.6539,0.6589,0.6589,0.6739,0.6836,0.6836,0.6836,0.6686,0.6437,0.6387,0.6387,0.6387,0.6387,0.6387,0.6387,0.6387,0.6387,0.6387,0.6387,0.6387,0.6387,0.6387,0.6387,0.6387,0.6387,0.6387,0.6387,0.6387,0.6387,0.6387,0.6387,0.6387,0.6387,0.6387,0.6387,0.6387,0.6387,0.6387,0.6387,0.6387,0.6387,0.6387,0.6387,0.6387,0.6387,0.6387,0.6396,0.6342,0.6333,0.6181,0.6078,0.6013,0.5909,0.582,0.582,0.5731,0.5688,0.5688,0.4926,0.3941,0.3047,0.2062,0.1077,0.0135,0.0,0.0,0.0,0.0,0.0,0.0,0.0,0.0,0.0,0.0,0.0,0.0,0.0,0.0,0.0,0.0,0.0,0.0,0.0,0.0,0.0,0.0,0.0,0.0,0.0,0.0,0.0,0.0,0.0,0.0,0.0,0.0,0.0,0.0,0.0,0.0,0.0908,0.2066,0.337,0.4526,0.5632,0.6689,0.7039,0.7039,0.6637,0.6739,0.6792,0.6537,0.6739,0.6892,0.6945,0.7089,0.7188,0.7188,0.7188,0.7036,0.6587,0.6587,0.6587,0.6587,0.6587,0.6537,0.6487,0.6487,0.6437,0.6387,0.6387,0.6387,0.6387,0.6387,0.6387,0.6387,0.6387,0.6387,0.6387,0.6387,0.6387,0.6387,0.6387,0.6387,0.6387,0.6387,0.6387,0.6387,0.6387,0.6387,0.6387,0.6387,0.6387,0.6387,0.6387,0.6387,0.6387,0.6387,0.6387,0.6365,0.6328,0.6287,0.6287,0.6116,0.6013,0.5934,0.5909,0.5833,0.5718,0.5694,0.4344,0.3135,0.2957,0.1436,0.0225,0.0045,0.0,0.0,0.0,0.0,0.0,0.0,0.0,0.0,0.0,0.0,0.0,0.0,0.0,0.0,0.0,0.0,0.0,0.0,0.0,0.0,0.0,0.0,0.0,0.0,0.0,0.0,0.0,0.0,0.0,0.0,0.0,0.0,0.0,0.0,0.0,0.0,0.106,0.2318,0.342,0.4678,0.5934,0.6989,0.7188,0.7188,0.7138,0.7138,0.7086,0.6983,0.7086,0.7238,0.7394,0.7288,0.7188,0.7188,0.7188,0.7188,0.7138,0.7138,0.7138,0.7138,0.7138,0.6989,0.6742,0.6742,0.6639,0.6387,0.6387,0.6387,0.6387,0.6387,0.6387,0.6387,0.6387,0.6387,0.6387,0.6387,0.6387,0.6387,0.6387,0.6387,0.6387,0.6387,0.6387,0.6387,0.6387,0.6387,0.6387,0.6387,0.6387,0.6387,0.6387,0.6387,0.6387,0.6387,0.6387,0.6384,0.6373,0.6344,0.6287,0.6116,0.6078,0.6037,0.5926,0.5893,0.5855,0.571,0.4882,0.3896,0.3045,0.1973,0.0987,0.0135,0.0,0.0,0.0,0.0,0.0,0.0,0.0,0.0,0.0,0.0,0.0,0.0,0.0,0.0,0.0,0.0,0.0,0.0,0.0,0.0,0.0,0.0,0.0,0.0,0.0,0.0,0.0,0.0,0.0,0.0,0.0,0.0,0.0,0.0,0.0252,0.1058,0.1613,0.262,0.4674,0.5479,0.6184,0.7241,0.759,0.759,0.7391,0.7391,0.7391,0.7291,0.7391,0.7494,0.7547,0.764,0.769,0.769,0.769,0.769,0.769,0.7388,0.7188,0.7188,0.7188,0.7138,0.7039,0.7039,0.6989,0.6886,0.6886,0.6789,0.6639,0.6639,0.6539,0.6387,0.6387,0.6387,0.6387,0.6387,0.6387,0.6387,0.6387,0.6387,0.6387,0.6387,0.6387,0.6387,0.6387,0.6387,0.6387,0.6387,0.6387,0.6387,0.6387,0.6387,0.6387,0.6387,0.6387,0.6387,0.6387,0.6401,0.6355,0.6309,0.6244,0.6184,0.6132,0.6064,0.5977,0.5858,0.4557,0.3406,0.2963,0.1614,0.0449,0.0045,0.0,0.0,0.0,0.0,0.0,0.0,0.0,0.0,0.0,0.0,0.0,0.0,0.0,0.0,0.0,0.0,0.0,0.0,0.0,0.0,0.0,0.0,0.0,0.0,0.0,0.0,0.0,0.0,0.0,0.0,0.0,0.0,0.0,0.0051,0.0454,0.1762,0.2116,0.3021,0.5529,0.6079,0.6484,0.754,0.7892,0.7942,0.7693,0.7657,0.7644,0.7637,0.7654,0.7697,0.769,0.7892,0.7988,0.7988,0.7988,0.7988,0.7988,0.7637,0.7437,0.7437,0.7437,0.7388,0.7341,0.7341,0.7288,0.7188,0.7188,0.7089,0.6942,0.6942,0.6789,0.6539,0.6539,0.6487,0.6387,0.6387,0.6387,0.6387,0.6487,0.6487,0.6387,0.6487,0.6487,0.6387,0.6387,0.6387,0.6387,0.6387,0.6387,0.6387,0.6387,0.6387,0.6387,0.6387,0.6387,0.6387,0.6387,0.6387,0.6387,0.6387,0.6377,0.6309,0.6325,0.6248,0.6105,0.598,0.435,0.2985,0.2944,0.1306,0.0,0.0,0.0,0.0,0.0,0.0,0.0,0.0,0.0,0.0,0.0,0.0,0.0,0.0,0.0,0.0,0.0,0.0,0.0,0.0,0.0,0.0,0.0,0.0,0.0,0.0,0.0,0.0,0.0,0.0,0.0,0.0,0.0,0.0,0.0,0.0202,0.0707,0.1762,0.2416,0.3472,0.5577,0.6232,0.6736,0.7839,0.7988,0.7988,0.7988,0.786,0.7868,0.7971,0.7857,0.7872,0.7975,0.7988,0.7988,0.7988,0.7988,0.7988,0.7988,0.7988,0.7988,0.7988,0.7988,0.7842,0.7596,0.7596,0.7444,0.7188,0.7188,0.7188,0.7188,0.7188,0.7042,0.6795,0.6795,0.6642,0.6387,0.6387,0.6387,0.6437,0.6692,0.6639,0.6437,0.6692,0.6639,0.6387,0.6387,0.6387,0.6387,0.6387,0.6387,0.6387,0.6387,0.6387,0.6387,0.6387,0.6387,0.6387,0.6387,0.6387,0.6387,0.6387,0.6384,0.6404,0.6293,0.6317,0.6279,0.6108,0.4441,0.2997,0.2997,0.1318,0.0,0.0,0.0,0.0,0.0,0.0,0.0,0.0,0.0,0.0,0.0,0.0,0.0,0.0,0.0,0.0,0.0,0.0,0.0,0.0,0.0,0.0,0.0,0.0,0.0,0.0,0.0,0.0,0.0,0.0,0.0,0.0,0.0555,0.116,0.131,0.2014,0.3019,0.4422,0.4271,0.4622,0.6933,0.6836,0.6736,0.7839,0.7988,0.7988,0.7988,0.7948,0.7934,0.7985,0.7948,0.7938,0.7985,0.7988,0.7988,0.7988,0.7988,0.7988,0.7988,0.7988,0.7988,0.7988,0.7988,0.7942,0.7892,0.7892,0.7839,0.7739,0.7739,0.764,0.7494,0.7494,0.7341,0.7089,0.7089,0.7039,0.6936,0.6936,0.6936,0.6936,0.7039,0.7039,0.6939,0.6842,0.6842,0.6939,0.6739,0.6692,0.6692,0.6692,0.6539,0.6387,0.6387,0.6387,0.6387,0.6387,0.6387,0.6387,0.6387,0.6387,0.6387,0.6387,0.6387,0.6376,0.6391,0.6382,0.635,0.6233,0.4534,0.3097,0.3012,0.1332,0.0,0.0,0.0,0.0,0.0,0.0,0.0,0.0,0.0,0.0,0.0,0.0,0.0,0.0,0.0,0.0,0.0,0.0,0.0,0.0,0.0,0.0,0.0,0.0,0.0,0.0,0.0,0.0,0.0101,0.0152,0.0252,0.0656,0.1261,0.1915,0.2466,0.3218,0.4173,0.5679,0.5527,0.5727,0.7637,0.7437,0.7238,0.7889,0.7988,0.7988,0.7988,0.7894,0.7826,0.7826,0.787,0.7928,0.7985,0.7988,0.7988,0.7988,0.7988,0.7988,0.7988,0.7988,0.7988,0.7988,0.7988,0.7988,0.7988,0.7988,0.7988,0.7988,0.7988,0.7892,0.7743,0.7743,0.7593,0.7341,0.7341,0.7288,0.0,0.7188,0.7188,0.7188,0.7291,0.7288,0.7188,0.7144,0.7141,0.7188,0.6992,0.6942,0.6942,0.6942,0.6789,0.6539,0.6437,0.6387,0.6387,0.6387,0.6387,0.6387,0.6387,0.6387,0.6387,0.6387,0.6387,0.6387,0.6387,0.6387,0.6365,0.6344,0.4622,0.3158,0.308,0.1362,0.0,0.0,0.0,0.0,0.0,0.0,0.0,0.0,0.0,0.0,0.0,0.0,0.0,0.0,0.0,0.0,0.0,0.0,0.0,0.0,0.0,0.0,0.0,0.0,0.0,0.0,0.0,0.0,0.0,0.0505,0.0757,0.1765,0.2117,0.2519,0.3521,0.4022,0.0,0.5879,0.6334,0.6836,0.7839,0.7988,0.7988,0.7988,0.7988,0.7988,0.7988,0.7794,0.7614,0.7614,0.7733,0.7872,0.7975,0.7988,0.7988,0.7988,0.7988,0.7988,0.7988,0.7988,0.7988,0.7988,0.8088,0.8088,0.7988,0.7988,0.7988,0.7988,0.7988,0.7988,0.7988,0.7988,0.7842,0.7646,0.7646,0.7494,0.7238,0.7238,0.7238,0.7288,0.7543,0.749,0.7288,0.7494,0.7444,0.7238,0.7238,0.7238,0.7238,0.7188,0.7039,0.6792,0.6489,0.6437,0.6387,0.6387,0.6387,0.6387,0.6387,0.6387,0.6387,0.6387,0.6387,0.6387,0.6387,0.6387,0.6387,0.6387,0.4712,0.3286,0.3231,0.1496,0.0095,0.0,0.0,0.0,0.0,0.0,0.0,0.0,0.0,0.0,0.0,0.0,0.0,0.0,0.0,0.0,0.0,0.0,0.0,0.0,0.0,0.0,0.0,0.0,0.0,0.0,0.0,0.0,0.096,0.0,0.1662,0.1916,0.3371,0.4822,0.0,0.5979,0.6889,0.7434,0.7587,0.769,0.7939,0.7988,0.7988,0.7988,0.7988,0.7988,0.7988,0.7879,0.7763,0.7763,0.779,0.7872,0.7975,0.7988,0.7988,0.7988,0.7988,0.7988,0.7988,0.7988,0.7988,0.7988,0.8775,0.8825,0.7988,0.7988,0.7988,0.7988,0.7988,0.7988,0.7988,0.7988,0.7992,0.7892,0.7892,0.7889,0.7789,0.7789,0.7789,0.7839,0.7889,0.7889,0.7789,0.7643,0.7693,0.7789,0.7593,0.7494,0.7494,0.7288,0.7138,0.7039,0.6792,0.6539,0.6387,0.6387,0.6387,0.6387,0.6387,0.6387,0.6387,0.6387,0.6387,0.6387,0.6387,0.6387,0.6387,0.6387,0.5316,0.4182,0.3338,0.2098,0.0968,0.0142,0.0,0.0,0.0,0.0,0.0,0.0,0.0,0.0,0.0,0.0,0.0,0.0,0.0,0.0,0.0,0.0,0.0,0.0,0.0,0.0,0.0,0.0,0.0,0.0,0.0,0.0,0.1263,0.1865,0.2467,0.2972,0.4475,0.5927,0.6381,0.7089,0.7696,0.7939,0.7988,0.7988,0.7988,0.7988,0.7988,0.7988,0.7988,0.7941,0.7855,0.7706,0.7634,0.7706,0.7712,0.7801,0.7968,0.7988,0.7988,0.7988,0.7988,0.7988,0.7988,0.7988,0.7988,0.7988,0.9019,0.9312,0.8726,0.8726,0.8726,0.8726,0.8233,0.7988,0.7988,0.7988,0.7988,0.7988,0.7988,0.7988,0.7988,0.7988,0.7988,0.7988,0.7988,0.7988,0.7988,0.7842,0.7892,0.7992,0.7842,0.7793,0.7743,0.749,0.7391,0.7341,0.7042,0.6889,0.6736,0.6487,0.6387,0.6387,0.6387,0.6387,0.6387,0.6387,0.6387,0.6387,0.6387,0.6387,0.6387,0.6387,0.5536,0.4618,0.4024,0.263,0.1381,0.0823,0.0335,0.0,0.0,0.0,0.0,0.0,0.0,0.0,0.0,0.0,0.0,0.0,0.0,0.0,0.0,0.0,0.0,0.0,0.0,0.0,0.0,0.0,0.0,0.0,0.0,0.0,0.1465,0.232,0.3272,0.4128,0.5281,0.6484,0.7341,0.7596,0.7696,0.7939,0.7988,0.7988,0.7988,0.7988,0.7988,0.7988,0.7971,0.786,0.7638,0.7468,0.7428,0.7584,0.76,0.7716,0.7961,0.7988,0.7988,0.7988,0.7988,0.7988,0.7988,0.7988,0.7988,0.7988,0.9217,0.985,0.985,0.985,0.985,0.985,0.892,0.8482,0.8482,0.8333,0.8237,0.8233,0.8088,0.7988,0.7988,0.7988,0.7988,0.7988,0.7988,0.7988,0.7988,0.7988,0.7988,0.7988,0.7988,0.7988,0.7942,0.7746,0.7643,0.7596,0.7341,0.7238,0.7138,0.6686,0.6487,0.6437,0.6387,0.6387,0.6387,0.6387,0.6387,0.6387,0.6387,0.6387,0.6387,0.6387,0.5684,0.4935,0.4634,0.3073,0.1755,0.1381,0.059,0.0,0.0,0.0,0.0,0.0,0.0,0.0,0.0,0.0,0.0,0.0,0.0,0.0,0.0,0.0,0.0,0.0,0.0,0.0,0.0,0.0,0.0,0.0,0.0,0.0,0.1566,0.2874,0.4128,0.4081,0.5737,0.7341,0.7288,0.7444,0.7696,0.7939,0.7988,0.7988,0.7988,0.7988,0.7988,0.7988,0.788,0.7787,0.7624,0.7468,0.7428,0.7584,0.76,0.7716,0.7961,0.7988,0.7988,0.7988,0.7988,0.7988,0.7988,0.7988,0.7988,0.7988,0.9899,1.0925,1.0925,1.0925,1.0925,1.0925,1.0779,1.073,1.0685,0.9756,0.9361,0.9312,0.8382,0.7988,0.7988,0.7988,0.7988,0.7988,0.7988,0.7988,0.7988,0.7988,0.7988,0.7988,0.7988,0.7988,0.7988,0.7939,0.7942,0.7892,0.7643,0.7543,0.7494,0.7188,0.6892,0.6692,0.6437,0.6387,0.6387,0.6387,0.6387,0.6387,0.6387,0.6387,0.6387,0.6387,0.6287,0.5582,0.3776,0.3173,0.2316,0.0503,0.0099,0.0,0.0,0.0,0.0,0.0,0.0,0.0,0.0,0.0,0.0,0.0,0.0,0.0,0.0,0.0,0.0,0.0,0.0,0.0,0.0,0.0,0.0,0.0,0.0,0.0,0.2321,0.3525,0.4676,0.4981,0.6337,0.7596,0.764,0.7743,0.7842,0.7992,0.7988,0.7988,0.7988,0.7988,0.7965,0.788,0.7794,0.7645,0.7499,0.7343,0.7336,0.757,0.76,0.7716,0.7961,0.7988,0.7988,0.7988,0.7988,0.8237,0.8825,0.8333,0.8531,0.9706,1.0685,1.1463,1.1999,1.2587,1.2587,1.1999,1.1463,1.1219,1.117,1.0096,0.9608,0.9558,0.0,0.7988,0.7988,0.7988,0.7988,0.7988,0.7988,0.7988,0.7988,0.7988,0.7988,0.7988,0.7988,0.7988,0.7988,0.7988,0.7988,0.7992,0.7842,0.7793,0.7743,0.7494,0.7241,0.6992,0.6889,0.6739,0.6639,0.6786,0.6637,0.6437,0.6589,0.6487,0.6387,0.6387,0.6387,0.6084,0.5081,0.3976,0.2871,0.1865,0.0751,0.0,0.0,0.0,0.0,0.0,0.0,0.0,0.0,0.0,0.0,0.0,0.0,0.0,0.0,0.0,0.0,0.0,0.0,0.0,0.0,0.0,0.0,0.0,0.0,0.0,0.2923,0.3924,0.4926,0.5879,0.6839,0.7646,0.7842,0.7892,0.7942,0.7988,0.7988,0.7988,0.7988,0.7961,0.7897,0.7831,0.7662,0.7506,0.7433,0.7238,0.7196,0.7512,0.7546,0.7662,0.7907,0.7938,0.7951,0.7985,0.7988,0.8482,0.9558,0.8821,0.9266,1.1121,1.1414,1.1901,1.2678,1.3757,1.3902,1.3071,1.229,1.195,1.1901,1.0828,1.0194,0.9899,0.8825,0.8233,0.7988,0.7988,0.7988,0.7988,0.7988,0.7988,0.7988,0.7988,0.7988,0.7988,0.7988,0.7988,0.7988,0.7988,0.7988,0.7988,0.7988,0.7988,0.7942,0.7743,0.7543,0.7338,0.7238,0.7042,0.6942,0.7138,0.6886,0.6637,0.6792,0.6639,0.6487,0.6437,0.6387,0.6337,0.6084,0.4479,0.3123,0.2871,0.121,0.0,0.0,0.0,0.0,0.0,0.0,0.0,0.0,0.0,0.0,0.0,0.0,0.0,0.0,0.0,0.0,0.0,0.0,0.0,0.0,0.0,0.0,0.0,0.0,0.0,0.2923,0.3776,0.473,0.6034,0.6992,0.7596,0.7646,0.7646,0.7696,0.7939,0.7988,0.7988,0.7988,0.7874,0.7824,0.7814,0.7573,0.7429,0.7419,0.7238,0.7159,0.7366,0.7433,0.7502,0.7797,0.7828,0.7885,0.7978,0.7988,0.8482,0.9558,0.9509,0.9998,1.117,1.2096,1.263,1.2678,1.3757,1.425,1.4196,1.41,1.41,1.4052,1.2974,1.195,1.1023,0.9948,0.892,0.7988,0.7988,0.7988,0.7988,0.7988,0.7988,0.7988,0.7988,0.7988,0.7988,0.7988,0.7988,0.7988,0.7988,0.7988,0.7988,0.7988,0.7988,0.7988,0.7992,0.7942,0.7839,0.7338,0.7188,0.7188,0.7188,0.7185,0.7089,0.6845,0.6795,0.6692,0.6437,0.6387,0.6087,0.5085,0.3977,0.2871,0.1865,0.0757,0.0,0.0,0.0,0.0,0.0,0.0,0.0,0.0,0.0,0.0,0.0,0.0,0.0,0.0,0.0,0.0,0.0,0.0,0.0,0.0,0.0,0.0,0.0,0.0,0.0,0.3924,0.4929,0.5934,0.7086,0.764,0.7842,0.7842,0.7842,0.7892,0.7992,0.7988,0.7988,0.7988,0.7867,0.7784,0.7695,0.7506,0.7336,0.7241,0.7132,0.7197,0.7353,0.7415,0.7451,0.7658,0.7678,0.7702,0.776,0.8471,0.9344,1.0399,1.0569,1.1365,1.3076,1.2829,1.3022,1.3709,1.41,1.4298,1.4298,1.4298,1.4298,1.425,1.3173,1.2484,1.2047,1.0342,0.9361,0.892,0.8283,0.8382,0.9019,0.9019,0.9019,0.892,0.8237,0.7988,0.7988,0.7988,0.7988,0.7988,0.7988,0.7988,0.7988,0.7988,0.7988,0.7988,0.7988,0.7988,0.7939,0.7739,0.759,0.7494,0.764,0.7437,0.7238,0.7294,0.7045,0.6792,0.6692,0.6539,0.6287,0.5887,0.4883,0.3827,0.2771,0.1663,0.0757,0.0101,0.0,0.0,0.0,0.0,0.0,0.0,0.0,0.0,0.0,0.0,0.0,0.0,0.0,0.0,0.0,0.0,0.0,0.0,0.0,0.0,0.0,0.0,0.0,0.4876,0.5779,0.6534,0.7686,0.7988,0.7988,0.7988,0.7988,0.7988,0.7988,0.7988,0.7975,0.7928,0.7845,0.7695,0.755,0.74,0.7261,0.7109,0.7095,0.7136,0.7285,0.7299,0.736,0.7512,0.7529,0.7546,0.7597,0.8627,0.9793,1.0948,1.1332,1.241,1.4244,1.3613,1.3565,1.4298,1.4298,1.4298,1.4298,1.4298,1.4298,1.4298,1.3559,1.3022,1.2587,1.0877,1.0096,0.9998,0.897,0.9118,1.0047,0.9756,0.9608,0.946,0.8382,0.7988,0.7988,0.7988,0.7988,0.7988,0.7988,0.7988,0.7988,0.7988,0.7988,0.7988,0.7988,0.7988,0.7988,0.7988,0.7842,0.7793,0.7939,0.7739,0.7487,0.7596,0.7297,0.7045,0.6942,0.6789,0.6637,0.6637,0.5684,0.458,0.3473,0.2317,0.121,0.0151,0.0,0.0,0.0,0.0,0.0,0.0,0.0,0.0,0.0,0.0,0.0,0.0,0.0,0.0,0.0,0.0,0.0,0.0,0.0,0.0,0.0,0.0,0.0,0.5734,0.6182,0.6331,0.7686,0.7988,0.7988,0.7988,0.7988,0.7988,0.7988,0.7988,0.7941,0.7838,0.7695,0.755,0.7443,0.7241,0.7095,0.7095,0.7095,0.7095,0.7095,0.7095,0.7156,0.7398,0.7415,0.7434,0.7584,0.8469,0.9614,1.0934,1.1806,1.2917,1.4238,1.4298,1.4298,1.4298,1.4298,1.4298,1.4298,1.4298,1.4298,1.4298,1.4298,1.3709,1.2678,1.1658,1.1219,1.1121,1.0047,1.0243,1.1121,1.0047,0.9608,0.946,0.8382,0.7988,0.7988,0.7988,0.7988,0.7988,0.7988,0.7988,0.7988,0.7988,0.7988,0.7988,0.7988,0.7988,0.7988,0.7988,0.7988,0.7988,0.7988,0.7988,0.7942,0.7643,0.7596,0.7543,0.7238,0.7188,0.7188,0.7188,0.6082,0.4826,0.3772,0.2467,0.121,0.0151,0.0,0.0,0.0,0.0,0.0,0.0,0.0,0.0,0.0,0.0,0.0,0.0,0.0,0.0,0.0,0.0,0.0,0.0,0.0,0.0,0.0,0.0,0.0,0.5077,0.6331,0.7487,0.7889,0.7988,0.7988,0.7988,0.7988,0.7988,0.7988,0.7988,0.7941,0.7838,0.7695,0.755,0.7443,0.7241,0.7095,0.7095,0.7095,0.7095,0.7095,0.7095,0.7112,0.7204,0.721,0.7227,0.7227,0.8906,1.0094,1.0474,1.2344,1.3608,1.402,1.4201,1.4298,1.4298,1.4298,1.4298,1.4298,1.4298,1.4298,1.4298,1.4298,1.4148,1.3757,1.2732,1.2242,1.2242,1.1901,1.195,1.2145,1.1121,1.0734,1.0485,0.8676,0.7988,0.7988,0.7988,0.7988,0.7988,0.7988,0.7988,0.7988,0.7988,0.7988,0.7988,0.7988,0.7988,0.7988,0.7988,0.7988,0.7988,0.7988,0.7988,0.7992,0.7892,0.7746,0.7596,0.7494,0.7341,0.7188,0.7188,0.6739,0.5984,0.4876,0.3572,0.2066,0.0252,0.0,0.0,0.0,0.0,0.0,0.0,0.0,0.0,0.0,0.0,0.0,0.0,0.0,0.0,0.0,0.0,0.0,0.0,0.0,0.0,0.0,0.0,0.0,0.5782,0.6783,0.7739,0.7939,0.7988,0.7988,0.7988,0.7988,0.7988,0.7988,0.7941,0.7902,0.7753,0.7607,0.7458,0.7305,0.72,0.7095,0.7095,0.7095,0.7095,0.7095,0.7095,0.7095,0.7095,0.7095,0.7095,0.7095,0.8992,1.0203,1.0289,1.2411,1.364,1.3749,1.4002,1.4141,1.4141,1.4244,1.4298,1.4298,1.4298,1.4298,1.4298,1.4298,1.4298,1.425,1.3613,1.3071,1.2727,1.3173,1.3318,1.3173,1.1755,1.1219,1.0925,0.8775,0.7988,0.7988,0.7988,0.7988,0.7988,0.7988,0.7988,0.7988,0.7988,0.7988,0.7988,0.7988,0.7988,0.7988,0.7988,0.7988,0.7988,0.7988,0.7988,0.7988,0.7988,0.7892,0.7743,0.7743,0.764,0.7537,0.7537,0.7291,0.6739,0.5529,0.3773,0.2116,0.0807,0.0252,0.0,0.0,0.0,0.0,0.0,0.0,0.0,0.0,0.0,0.0,0.0,0.0,0.0,0.0,0.0,0.0,0.0,0.0,0.0,0.0,0.0,0.0,0.7141,0.7341,0.7338,0.7839,0.7988,0.7988,0.7988,0.7988,0.7985,0.7971,0.7909,0.7763,0.7607,0.7465,0.7319,0.7122,0.7095,0.7095,0.7095,0.7095,0.7095,0.7095,0.7095,0.7095,0.7095,0.7095,0.7139,0.7228,0.8877,1.0051,1.0389,1.212,1.3191,1.3471,1.3731,1.387,1.387,1.4129,1.4262,1.4262,1.4286,1.4298,1.4298,1.4298,1.4298,1.4298,1.4298,1.3757,1.2926,1.3902,1.4298,1.41,1.1999,1.1219,1.0925,0.8775,0.7988,0.7988,0.7988,0.7988,0.7988,0.7988,0.7988,0.7988,0.7988,0.7988,0.7988,0.7988,0.7988,0.7988,0.7988,0.7988,0.7988,0.7988,0.7988,0.7988,0.7988,0.7988,0.7988,0.7988,0.7988,0.7988,0.7988,0.7793,0.7138,0.5774,0.347,0.1865,0.1765,0.0807,0.0151,0.0151,0.0051,0.0,0.0,0.0,0.0,0.0,0.0,0.0,0.0,0.0,0.0,0.0,0.0,0.0,0.0,0.0,0.0,0.0,0.0,0.0,0.6282,0.6939,0.7543,0.7643,0.7842,0.7988,0.7988,0.7988,0.7958,0.7885,0.7834,0.7733,0.7468,0.7439,0.7319,0.7122,0.7095,0.7095,0.7095,0.7095,0.7095,0.7095,0.7095,0.7095,0.7095,0.7095,0.7401,0.8149,0.9274,1.025,1.105,1.2382,1.3151,1.3161,1.3465,1.3598,1.3598,1.3857,1.399,1.3996,1.4201,1.4298,1.4298,1.4298,1.4298,1.4298,1.4298,1.4148,1.3956,1.4196,1.4298,1.41,1.1999,1.1219,1.0925,0.8775,0.7988,0.7988,0.7988,0.7988,0.7988,0.7988,0.7988,0.7988,0.7988,0.7988,0.7988,0.7988,0.7988,0.7988,0.7988,0.7988,0.7988,0.7988,0.7988,0.7988,0.7988,0.7988,0.7988,0.7988,0.7988,0.7988,0.7988,0.7793,0.7092,0.5529,0.4776,0.4024,0.2972,0.1915,0.1261,0.1261,0.0505,0.0,0.0,0.0,0.0,0.0,0.0,0.0,0.0,0.0,0.0,0.0,0.0,0.0,0.0,0.0,0.0,0.0,0.0,0.0,0.6786,0.7191,0.7646,0.7743,0.7892,0.7988,0.7988,0.7934,0.7889,0.774,0.7709,0.7641,0.746,0.7312,0.7234,0.7109,0.7095,0.7095,0.7095,0.7095,0.7095,0.7095,0.7095,0.7095,0.7095,0.7095,0.7492,0.8412,0.9362,1.0318,1.1235,1.2319,1.2922,1.2922,1.3188,1.3332,1.3332,1.3586,1.3719,1.3725,1.3984,1.4177,1.4298,1.4298,1.4298,1.4298,1.4298,1.4298,1.4298,1.4298,1.4298,1.41,1.1999,1.1219,1.0925,0.8775,0.7988,0.7988,0.7988,0.7988,0.7988,0.7988,0.7988,0.7988,0.7988,0.7988,0.7988,0.7988,0.7988,0.7988,0.7988,0.7988,0.7988,0.7988,0.7988,0.7988,0.7988,0.7988,0.7988,0.7988,0.7988,0.7988,0.7988,0.7793,0.7294,0.6487,0.5779,0.5077,0.4277,0.3221,0.2317,0.1663,0.111,0.0555,0.0051,0.0,0.0,0.0,0.0,0.0,0.0,0.0,0.0,0.0,0.0,0.0,0.0,0.0,0.0,0.0,0.0,0.0,0.7547,0.7543,0.7593,0.7942,0.7988,0.7988,0.7988,0.7874,0.777,0.7631,0.758,0.7512,0.736,0.7227,0.7095,0.7095,0.7095,0.7095,0.7095,0.7095,0.7095,0.7095,0.7095,0.7095,0.7095,0.7095,0.7533,0.8671,0.9449,1.0356,1.1494,1.2272,1.2705,1.2705,1.2928,1.3011,1.3011,1.3314,1.3447,1.3447,1.3713,1.3972,1.4226,1.4226,1.4256,1.4298,1.4298,1.4298,1.4298,1.4298,1.4298,1.41,1.1999,1.1219,1.0925,0.8775,0.7988,0.7988,0.7988,0.7988,0.7988,0.7988,0.7988,0.7988,0.7988,0.7988,0.7988,0.7988,0.7988,0.7988,0.7988,0.7988,0.7988,0.7988,0.7988,0.7988,0.7988,0.7988,0.7988,0.7988,0.7988,0.7988,0.7988,0.7793,0.7646,0.7596,0.6634,0.5827,0.5579,0.4574,0.347,0.2317,0.1865,0.1261,0.0353,0.0101,0.0,0.0,0.0,0.0,0.0,0.0,0.0,0.0,0.0,0.0,0.0,0.0,0.0,0.0,0.0,0.0,0.7341,0.7238,0.7388,0.7889,0.7988,0.7988,0.7988,0.7874,0.777,0.7631,0.7495,0.7356,0.7156,0.7109,0.7095,0.7095,0.7095,0.7095,0.7095,0.7095,0.7095,0.7095,0.7095,0.7095,0.7095,0.7095,0.7837,0.9575,0.9836,1.0659,1.24,1.2619,1.2705,1.2705,1.2741,1.2759,1.2759,1.3037,1.3131,1.3181,1.3441,1.3707,1.396,1.396,1.4081,1.4298,1.4298,1.4298,1.4298,1.4298,1.4298,1.41,1.1999,1.1219,1.0925,0.8775,0.7988,0.7988,0.7988,0.7988,0.7988,0.7988,0.7988,0.7988,0.7988,0.7988,0.7988,0.7988,0.7988,0.7988,0.7988,0.7988,0.7988,0.7988,0.7988,0.7988,0.7988,0.7988,0.7988,0.7988,0.7988,0.7988,0.7988,0.7992,0.7892,0.7646,0.7444,0.7241,0.6986,0.5782,0.4929,0.4728,0.287,0.1563,0.1412,0.0555,0.0,0.0,0.0,0.0,0.0,0.0,0.0,0.0,0.0,0.0,0.0,0.0,0.0,0.0,0.0,0.0,0.764,0.754,0.754,0.7892,0.7988,0.7968,0.788,0.7797,0.7651,0.7502,0.735,0.7221,0.7109,0.7095,0.7095,0.7095,0.7095,0.7095,0.7095,0.7095,0.7095,0.7095,0.7095,0.7095,0.7095,0.7095,0.7881,0.9749,0.9879,1.0702,1.2619,1.2705,1.2705,1.2705,1.2705,1.2705,1.2705,1.2825,1.297,1.3083,1.3242,1.3435,1.3688,1.3839,1.4051,1.4298,1.4298,1.4298,1.4298,1.4298,1.4298,1.41,1.1999,1.1219,1.0925,0.8775,0.7988,0.7988,0.7988,0.7988,0.7988,0.7988,0.7988,0.7988,0.7988,0.7988,0.7988,0.7988,0.7988,0.7988,0.7988,0.7988,0.7988,0.7988,0.7988,0.7988,0.7988,0.7988,0.7988,0.7988,0.7988,0.7988,0.7988,0.7988,0.7942,0.7842,0.7842,0.7743,0.7444,0.6889,0.6184,0.5279,0.4225,0.3071,0.1714,0.116,0.0656,0.0051,0.0,0.0,0.0,0.0,0.0,0.0,0.0,0.0,0.0,0.0,0.0,0.0,0.0,0.0,0.7739,0.759,0.7494,0.7793,0.7892,0.7902,0.7796,0.7702,0.7556,0.745,0.7248,0.7095,0.7095,0.7095,0.7095,0.7095,0.7095,0.7095,0.7095,0.7095,0.7095,0.7095,0.7095,0.7095,0.7095,0.7095,0.7881,0.9749,0.9879,1.0702,1.2619,1.2705,1.2705,1.2705,1.2705,1.2705,1.2705,1.2705,1.2813,1.3019,1.3019,1.3157,1.3423,1.3622,1.3888,1.4201,1.4268,1.4298,1.4298,1.4298,1.4298,1.41,1.1999,1.1219,1.0925,0.8775,0.7988,0.7988,0.7988,0.7988,0.7988,0.7988,0.7988,0.7988,0.7988,0.7988,0.7988,0.7988,0.7988,0.7988,0.7988,0.7988,0.7988,0.7988,0.7988,0.7988,0.7988,0.7988,0.7988,0.7988,0.7988,0.7988,0.7988,0.7988,0.7988,0.7988,0.7988,0.7942,0.7746,0.7646,0.7141,0.5934,0.5529,0.4526,0.2669,0.2266,0.1713,0.0858,0.0807,0.0807,0.0807,0.0807,0.0807,0.0807,0.0555,0.0252,0.0,0.0,0.0,0.0,0.0,0.0,0.7188,0.7042,0.6945,0.7497,0.7646,0.7657,0.7748,0.7702,0.7556,0.745,0.7248,0.7095,0.7095,0.7095,0.7095,0.7095,0.7095,0.7095,0.7095,0.7095,0.7095,0.7095,0.7095,0.7095,0.7095,0.7095,0.7881,0.9749,0.9879,1.0702,1.2619,1.2705,1.2705,1.2705,1.2705,1.2705,1.2705,1.2705,1.2711,1.2729,1.2729,1.2874,1.3101,1.3157,1.3441,1.3936,1.4189,1.4298,1.4298,1.4298,1.4298,1.41,1.1999,1.1219,1.0925,0.8775,0.7988,0.7988,0.7988,0.7988,0.7988,0.7988,0.7988,0.7988,0.7988,0.7988,0.7988,0.7988,0.7988,0.7988,0.7988,0.7988,0.7988,0.7988,0.7988,0.7988,0.7988,0.7988,0.7988,0.7988,0.7988,0.7988,0.7988,0.7988,0.7988,0.7988,0.7988,0.7988,0.7988,0.7743,0.7547,0.7497,0.6331,0.5425,0.5029,0.4073,0.3371,0.3073,0.3022,0.3022,0.3022,0.3022,0.3022,0.3022,0.2016,0.1009,0.0,0.0,0.0,0.0,0.0,0.0,0.7089,0.6992,0.6945,0.7447,0.7526,0.7518,0.7661,0.756,0.7411,0.7255,0.7136,0.7095,0.7095,0.7095,0.7095,0.7095,0.7095,0.7095,0.7095,0.7095,0.7095,0.7095,0.7095,0.7095,0.7095,0.7095,0.7881,0.9749,0.9879,1.0702,1.2619,1.2705,1.2705,1.2705,1.2705,1.2705,1.2705,1.2705,1.2705,1.2705,1.2705,1.2753,1.2862,1.3043,1.3179,1.3429,1.3857,1.4141,1.4298,1.4298,1.4298,1.4154,1.2732,1.1755,1.1023,0.9558,0.8577,0.7988,0.7988,0.7988,0.7988,0.7988,0.7988,0.7988,0.7988,0.7988,0.7988,0.7988,0.7988,0.7988,0.7988,0.7988,0.7988,0.7988,0.7988,0.7988,0.7988,0.7988,0.7988,0.7988,0.7988,0.7988,0.7988,0.7988,0.7988,0.7988,0.7988,0.7988,0.7988,0.7942,0.7793,0.7596,0.7188,0.6481,0.5527,0.4926,0.4273,0.3522,0.3272,0.3224,0.3224,0.3224,0.2871,0.2167,0.1815,0.1412,0.1009,0.0353,0.0,0.0,0.0,0.0,0.6939,0.6942,0.6945,0.7447,0.7488,0.744,0.7587,0.7482,0.7326,0.7129,0.7095,0.7095,0.7095,0.7095,0.7095,0.7095,0.7095,0.7095,0.7095,0.7095,0.7095,0.7095,0.7095,0.7078,0.7031,0.7068,0.7859,0.9699,0.9885,1.0702,1.2619,1.2705,1.2705,1.2705,1.2705,1.2705,1.2705,1.2705,1.2705,1.2705,1.2705,1.2705,1.2705,1.2807,1.2909,1.3101,1.3495,1.3839,1.4171,1.4262,1.4298,1.4202,1.3125,1.2096,1.1072,0.9998,0.892,0.7988,0.7988,0.7988,0.7988,0.7988,0.7988,0.7988,0.7988,0.7988,0.7988,0.7988,0.7988,0.7988,0.7988,0.7988,0.7988,0.7988,0.7988,0.7988,0.7988,0.7988,0.7988,0.7988,0.7988,0.7988,0.7988,0.7988,0.7988,0.7988,0.7988,0.7988,0.7988,0.7988,0.7942,0.7743,0.7746,0.7338,0.6379,0.6132,0.5679,0.4874,0.4578,0.4228,0.3875,0.3776,0.3224,0.2167,0.1765,0.1613,0.1613,0.0505,0.0,0.0,0.0,0.0,0.0,0.0,0.0,0.7441,0.7481,0.7433,0.758,0.7475,0.7322,0.7125,0.7095,0.7095,0.7095,0.7095,0.7095,0.7095,0.7095,0.7095,0.7095,0.7095,0.7095,0.7095,0.7095,0.7041,0.6906,0.7054,0.7854,0.9559,0.9843,1.073,1.2595,1.2687,1.2699,1.2705,1.2705,1.2705,1.2705,1.2705,1.2705,1.2705,1.2705,1.2705,1.2693,1.2439,1.2608,1.3103,1.3071,1.3417,1.3906,1.4183,1.4298,1.4202,1.3167,1.2096,1.1072,1.0047,0.897,0.7988,0.7988,0.7988,0.7988,0.7988,0.7988,0.7988,0.7988,0.7988,0.7988,0.7988,0.7988,0.7988,0.7988,0.7988,0.7988,0.7988,0.7988,0.7988,0.7988,0.7988,0.7988,0.7988,0.7988,0.7988,0.7988,0.7988,0.7988,0.7988,0.7988,0.7988,0.7988,0.7988,0.7988,0.7988,0.7988,0.7892,0.7646,0.7596,0.7494,0.7238,0.6942,0.6289,0.5229,0.4933,0.428,0.3173,0.2116,0.1563,0.1563,0.0505,0.0,0.0,0.0,0.0,0.6939,0.0,0.0,0.0,0.0,0.0,0.7422,0.7316,0.7146,0.7105,0.7095,0.7095,0.7095,0.7095,0.7095,0.7095,0.7095,0.7095,0.7095,0.7095,0.7095,0.7095,0.7095,0.7082,0.7041,0.7537,0.8286,0.9456,1.003,1.084,1.2056,1.2318,1.2506,1.2699,1.2705,1.2705,1.2705,1.2705,1.2705,1.2705,1.2705,1.2705,1.2699,1.2626,1.2572,1.256,1.2909,1.3161,1.3393,1.4032,1.4298,1.425,1.3956,1.278,1.117,1.0877,0.9608,0.7988,0.7988,0.7988,0.7988,0.7988,0.7988,0.7988,0.7988,0.7988,0.7988,0.7988,0.7988,0.7988,0.7988,0.7988,0.7988,0.7988,0.7988,0.7988,0.7988,0.7988,0.7988,0.7988,0.7988,0.7988,0.7988,0.7988,0.7988,0.7988,0.7988,0.7988,0.7988,0.7988,0.7988,0.7988,0.7988,0.7992,0.7892,0.7693,0.7547,0.7494,0.6489,0.5787,0.5484,0.4481,0.3426,0.2369,0.1865,0.121,0.0454,0.0151,0.0,0.0,0.0,0.0,0.7188,0.7288,0.7356,0.7511,0.0,0.0,0.7404,0.7251,0.7095,0.7095,0.7095,0.7095,0.7095,0.7095,0.7095,0.7095,0.7095,0.7095,0.7095,0.7095,0.7095,0.7095,0.7095,0.7071,0.7014,0.7761,0.8581,0.9373,1.0197,1.105,1.1846,1.2065,1.227,1.253,1.2542,1.2596,1.2705,1.2705,1.2705,1.2705,1.2705,1.2705,1.2699,1.259,1.2518,1.2493,1.2813,1.3079,1.3332,1.39,1.4201,1.4298,1.4298,1.3028,1.1219,1.1219,0.985,0.7988,0.7988,0.7988,0.7988,0.7988,0.7988,0.7988,0.7988,0.7988,0.7988,0.7988,0.7988,0.7988,0.7988,0.7988,0.7988,0.7988,0.7988,0.7988,0.7988,0.7988,0.7988,0.7988,0.7988,0.7988,0.7988,0.7988,0.7988,0.7988,0.7988,0.7988,0.7988,0.7988,0.7988,0.7988,0.7988,0.7988,0.7988,0.7842,0.7743,0.7743,0.6942,0.6237,0.5784,0.4479,0.3473,0.2868,0.2216,0.1613,0.1009,0.0454,0.0202,0.0354,0.0354,0.0354,0.7494,0.7531,0.7585,0.7731,0.7682,0.0,0.738,0.7241,0.7095,0.7095,0.7095,0.7095,0.7095,0.7095,0.7095,0.7095,0.7095,0.7095,0.7095,0.7095,0.7095,0.7095,0.7095,0.7048,0.692,0.7957,0.8807,0.9278,1.0342,1.1221,1.181,1.1838,1.1958,1.2264,1.2294,1.2421,1.2656,1.2693,1.2705,1.2705,1.2705,1.2705,1.2699,1.2463,1.2469,1.2662,1.2693,1.2982,1.3447,1.3743,1.4032,1.4298,1.4298,1.3028,1.1219,1.1219,0.985,0.7988,0.7988,0.7988,0.7988,0.7988,0.7988,0.7988,0.7988,0.7988,0.7988,0.7988,0.7988,0.7988,0.7988,0.7988,0.7988,0.7988,0.7988,0.7988,0.7988,0.7988,0.7988,0.7988,0.7988,0.7988,0.7988,0.7988,0.7988,0.7988,0.7988,0.7988,0.7988,0.7988,0.7988,0.7988,0.7988,0.7988,0.7988,0.7988,0.7988,0.7988,0.7643,0.7039,0.6082,0.4776,0.4021,0.4066,0.3066,0.2616,0.2616,0.1412,0.0808,0.0808,0.0909,0.0959,0.7892,0.7802,0.7724,0.7726,0.7576,0.0,0.7221,0.7119,0.7095,0.7095,0.7095,0.7095,0.7095,0.7095,0.7095,0.7095,0.7095,0.7095,0.7095,0.7095,0.7095,0.7095,0.7095,0.7085,0.7058,0.8429,0.9348,0.9433,1.063,1.1425,1.1573,1.1567,1.1688,1.1952,1.2204,1.2337,1.2391,1.2602,1.2705,1.2705,1.2705,1.2705,1.2699,1.265,1.2542,1.2403,1.2614,1.2765,1.2898,1.3387,1.387,1.4298,1.4298,1.3028,1.1219,1.1219,0.985,0.7988,0.7988,0.7988,0.7988,0.7988,0.7988,0.7988,0.7988,0.7988,0.7988,0.7988,0.7988,0.7988,0.7988,0.7988,0.7988,0.7988,0.7988,0.7988,0.7988,0.7988,0.7988,0.7988,0.7988,0.7988,0.7988,0.7988,0.7988,0.7988,0.7988,0.7988,0.7988,0.7988,0.7988,0.7988,0.7988,0.7988,0.7988,0.7988,0.7988,0.7988,0.7138,0.6537,0.6334,0.5024,0.432,0.4318,0.3917,0.3817,0.4019,0.3518,0.2415,0.0808,0.1664,0.2065,0.7828,0.7717,0.7573,0.7569,0.7473,0.0,0.0,0.7095,0.7095,0.7095,0.7095,0.7095,0.7095,0.7095,0.7095,0.7095,0.7095,0.7095,0.7095,0.7095,0.7095,0.7095,0.7095,0.7095,0.7095,0.8241,0.935,1.0134,1.1021,1.1495,1.1495,1.1363,1.1411,1.1682,1.1814,1.2047,1.2312,1.2445,1.2572,1.2705,1.2705,1.2705,1.2705,1.2705,1.2632,1.2518,1.2644,1.2783,1.2946,1.335,1.3749,1.4117,1.4244,1.3318,1.1901,1.1365,1.0194,0.8726,0.8187,0.7988,0.7988,0.7988,0.7988,0.7988,0.7988,0.7988,0.7988,0.7988,0.7988,0.7988,0.7988,0.7988,0.7988,0.7988,0.7988,0.7988,0.7988,0.7988,0.7988,0.7988,0.7988,0.7988,0.7988,0.7988,0.7988,0.7988,0.7988,0.7988,0.7988,0.7988,0.7988,0.7988,0.7988,0.7988,0.7988,0.7988,0.7988,0.7988,0.7487,0.7188,0.7188,0.6029,0.5377,0.5377,0.5774,0.5774,0.5377,0.5824,0.4872,0.282,0.337,0.362,0.7677,0.7519,0.7383,0.7355,0.7346,0.7295,0.0,0.0,0.0,0.7095,0.7095,0.7095,0.7095,0.7095,0.7095,0.7095,0.7095,0.7095,0.7095,0.7095,0.7095,0.7095,0.7095,0.7095,0.7095,0.7929,0.9243,1.1035,1.1312,1.1402,1.1501,1.1279,1.1236,1.1405,1.1465,1.1718,1.2234,1.2288,1.2445,1.2705,1.2705,1.2705,1.2705,1.2705,1.2705,1.2705,1.2705,1.2831,1.3067,1.3387,1.364,1.3857,1.4177,1.3655,1.2587,1.1804,1.0685,0.946,0.8627,0.8187,0.7988,0.7988,0.7988,0.7988,0.7988,0.7988,0.7988,0.7988,0.7988,0.7988,0.7988,0.7988,0.7988,0.7988,0.7988,0.7988,0.7988,0.7988,0.7988,0.7988,0.7988,0.7988,0.7988,0.7988,0.7988,0.7988,0.7988,0.7988,0.7988,0.7988,0.7988,0.7988,0.7988,0.7988,0.7988,0.7988,0.7988,0.7988,0.7988,0.7988,0.7988,0.7185,0.6686,0.6686,0.754,0.7587,0.6686,0.7587,0.688,0.4824,0.5027,0.5127,0.7513,0.7416,0.7344,0.7187,0.713,0.7119,0.7098,0.0,0.7095,0.7095,0.0,0.7095,0.7095,0.0,0.0,0.7095,0.7095,0.7095,0.7095,0.7095,0.7095,0.7095,0.7095,0.7095,0.7095,0.7929,0.9502,1.1957,1.1427,1.1126,1.148,1.1465,1.1345,1.1166,1.1363,1.1633,1.1922,1.2198,1.2445,1.2705,1.2705,1.2705,1.2705,1.2705,1.2705,1.2705,1.2705,1.2723,1.2789,1.3302,1.3532,1.361,1.4105,1.3655,1.2678,1.2581,1.1268,0.9608,0.946,0.8775,0.7988,0.7988,0.7988,0.7988,0.7988,0.7988,0.7988,0.7988,0.7988,0.7988,0.7988,0.7988,0.7988,0.7988,0.7988,0.7988,0.7988,0.7988,0.7988,0.7988,0.7988,0.7988,0.7988,0.7988,0.7988,0.7988,0.7988,0.7988,0.7988,0.7988,0.7988,0.7988,0.7988,0.7988,0.7988,0.7988,0.7988,0.7988,0.7988,0.7988,0.7988,0.7889,0.7839,0.7839,0.7939,0.7939,0.7839,0.7939,0.688,0.4824,0.5782,0.6234,0.7435,0.7307,0.7193,0.71,0.7098,0.7095,0.7095,0.7095,0.7095,0.7095,0.0,0.0,0.0,0.0,0.0,0.0,0.7095,0.7095,0.7095,0.7095,0.7095,0.7095,0.7095,0.7316,0.7841,0.8281,0.9378,1.1569,1.122,1.1222,1.1918,1.1657,1.1441,1.1321,1.1273,1.1419,1.1657,1.1916,1.2216,1.2481,1.2632,1.2705,1.2705,1.2705,1.2705,1.2705,1.2705,1.2705,1.2735,1.3127,1.3381,1.355,1.3924,1.3874,1.3565,1.2926,1.1804,1.044,0.9805,0.8874,0.7988,0.7988,0.7988,0.7988,0.7988,0.7988,0.7988,0.7988,0.7988,0.7988,0.7988,0.7988,0.7988,0.7988,0.7988,0.7988,0.7988,0.7988,0.7988,0.7988,0.7988,0.7988,0.7988,0.7988,0.7988,0.7988,0.7988,0.7988,0.7988,0.7988,0.7988,0.7988,0.7988,0.7988,0.7988,0.7988,0.7988,0.7988,0.7988,0.7988,0.7988,0.7988,0.7988,0.7988,0.7988,0.7988,0.7988,0.7988,0.7534,0.6681,0.7135,0.7338,0.7319,0.7224,0.7095,0.7095,0.7095,0.7095,0.7095,0.7095,0.7095,0.7095,0.7095,0.0,0.0,0.0,0.7095,0.7095,0.0,0.7095,0.7095,0.7095,0.7095,0.7095,0.7316,0.7841,0.8798,0.8671,0.9366,1.1537,1.1038,1.112,1.2236,1.191,1.1639,1.1495,1.1297,1.1285,1.1489,1.1754,1.2012,1.2318,1.2578,1.2705,1.2705,1.2705,1.2705,1.2705,1.2705,1.2705,1.2729,1.3006,1.3191,1.3441,1.3773,1.402,1.41,1.3392,1.2484,1.1463,1.0391,0.9167,0.7988,0.7988,0.7988,0.7988,0.7988,0.7988,0.7988,0.7988,0.7988,0.7988,0.7988,0.7988,0.7988,0.7988,0.7988,0.7988,0.7988,0.7988,0.7988,0.7988,0.7988,0.7988,0.7988,0.7988,0.7988,0.7988,0.7988,0.7988,0.7988,0.7988,0.7988,0.7988,0.7988,0.7988,0.7988,0.7988,0.7988,0.7988,0.7988,0.7988,0.7988,0.7988,0.7988,0.7988,0.7988,0.7988,0.7988,0.7988,0.7988,0.7988,0.7988,0.7988,0.7142,0.7098,0.7095,0.7095,0.7095,0.7095,0.7095,0.7095,0.7095,0.7095,0.7095,0.7095,0.7095,0.7095,0.7095,0.7095,0.7095,0.0,0.0,0.7095,0.7095,0.7095,0.7885,0.8846,0.9749,0.9017,0.9671,1.2443,1.0956,1.0643,1.22,1.2294,1.2059,1.1507,1.1483,1.1483,1.1495,1.1754,1.2012,1.2318,1.2578,1.2705,1.2705,1.2705,1.2705,1.2705,1.2705,1.2705,1.2729,1.3006,1.3133,1.3188,1.3707,1.3912,1.3948,1.4154,1.3559,1.2484,1.1512,0.9756,0.7988,0.7988,0.7988,0.7988,0.7988,0.7988,0.7988,0.7988,0.7988,0.7988,0.7988,0.7988,0.7988,0.7988,0.7988,0.7988,0.7988,0.7988,0.7988,0.7988,0.7988,0.7988,0.7988,0.7988,0.7988,0.7988,0.7988,0.7988,0.7988,0.7988,0.7988,0.7988,0.7988,0.7988,0.7988,0.7988,0.7988,0.7988,0.7988,0.7988,0.7988,0.7988,0.7988,0.7988,0.7988,0.7988,0.7988,0.7988,0.7988,0.7988,0.7988,0.7988,0.0,0.7095,0.7095,0.7095,0.7095,0.7095,0.7095,0.7095,0.7095,0.7095,0.7095,0.7095,0.7095,0.7095,0.7095,0.7095,0.7095,0.7095,0.0,0.7095,0.7095,0.7095,0.736,0.8185,0.9749,0.9061,0.9666,1.2491,1.1537,1.1327,1.2493,1.2409,1.2234,1.2059,1.1676,1.1495,1.1495,1.1754,1.1968,1.2059,1.2493,1.2705,1.2705,1.2705,1.2705,1.2705,1.2705,1.2705,1.2711,1.2807,1.2958,1.3139,1.332,1.3598,1.3936,1.4201,1.3613,1.2436,1.073,0.9217,0.7988,0.7988,0.7988,0.7988,0.7988,0.7988,0.7988,0.7988,0.7988,0.7988,0.7988,0.7988,0.7988,0.7988,0.7988,0.7988,0.7988,0.7988,0.7988,0.7988,0.7988,0.7988,0.7988,0.7988,0.7988,0.7988,0.7988,0.7988,0.7988,0.7988,0.7988,0.7988,0.7988,0.7988,0.7988,0.7988,0.7988,0.7988,0.7988,0.7988,0.7988,0.7988,0.7988,0.7988,0.7988,0.7988,0.7988,0.7988,0.7988,0.7988,0.7988,0.7988,0.7095,0.7095,0.0,0.7095,0.7095,0.7095,0.7095,0.7095,0.7183,0.7536,0.7316,0.7316,0.7965,0.7533,0.7228,0.7533,0.7316,0.7095,0.0,0.7095,0.7095,0.7095,0.7404,0.8189,0.9749,0.9362,1.0014,1.2528,1.1843,1.1714,1.2662,1.2542,1.2409,1.2318,1.1946,1.1682,1.1495,1.1844,1.197,1.1926,1.2451,1.2705,1.2705,1.2705,1.2705,1.2705,1.2705,1.2705,1.2705,1.2705,1.2813,1.2988,1.3041,1.3387,1.3797,1.4063,1.3293,1.1999,1.0632,0.9217,0.7988,0.7988,0.7988,0.7988,0.7988,0.7988,0.7988,0.7988,0.7988,0.7988,0.7988,0.7988,0.7988,0.7988,0.7988,0.7988,0.7988,0.7988,0.7988,0.7988,0.7988,0.7988,0.7988,0.7988,0.7988,0.7988,0.7988,0.7988,0.7988,0.7988,0.7988,0.7988,0.7988,0.7988,0.7988,0.7988,0.7988,0.7988,0.7988,0.7988,0.7988,0.7988,0.8015,0.8123,0.8019,0.8015,0.8123,0.8015,0.7988,0.7988,0.7988,0.7988]}]]